GFSNW_sfc_temp_000.txt.gz
Temp
54 54 54 54 54 53 61 67 63 67 66 64 59 54 58 52 59 61 59 58 56 53 53 51 52 51 55 59 59 53 55 50 42 49 59 56 55 51 50 41 41 43 37 40
54 54 54 54 53 53 66 67 67 69 66 50 51 56 55 57 58 57 57 54 56 56 53 48 52 53 57 59 58 54 55 46 39 48 51 53 50 52 52 50 42 36 32 42
55 54 54 53 53 53 67 67 49 62 63 61 59 55 53 53 57 56 56 55 56 55 52 54 50 52 56 57 58 51 53 49 43 40 48 54 47 51 53 47 34 39 42 47
54 54 54 53 53 53 69 62 53 54 51 53 56 56 55 52 51 57 58 54 54 52 45 47 48 53 55 58 53 54 54 41 48 49 51 49 47 47 48 45 45 36 43 48
54 53 53 53 53 54 66 61 58 56 53 53 56 50 52 52 53 54 53 52 53 53 49 51 48 52 52 50 55 52 53 40 41 38 47 47 43 47 47 48 48 49 49 49
53 52 52 52 53 57 67 60 59 59 43 50 52 54 54 54 56 55 58 56 54 47 54 58 59 59 58 57 52 49 45 40 36 33 44 39 32 40 47 51 54 50 43 52
52 50 50 51 52 56 67 63 64 40 47 48 54 54 56 55 55 53 57 57 52 58 60 60 59 58 56 55 55 55 40 36 37 33 35 29 52 60 58 52 52 54 55 56
52 53 53 52 51 52 65 61 62 50 37 53 50 52 54 54 55 53 55 58 61 59 56 45 37 40 37 44 51 51 51 40 35 32 35 43 49 55 51 47 47 57 56 57
52 52 52 52 51 52 61 62 61 59 40 45 59 56 55 51 51 50 51 57 59 57 47 39 34 34 40 42 47 46 45 42 36 36 31 31 47 57 55 53 40 55 54 51
51 52 51 51 52 52 62 64 61 61 46 54 56 53 52 56 52 51 51 52 46 54 37 35 34 36 48 37 34 35 35 34 32 32 31 39 54 53 53 35 42 51 53 53
51 51 51 51 51 52 56 60 62 59 45 54 55 58 56 53 54 46 51 49 45 40 35 35 36 34 42 38 46 41 39 34 32 34 32 31 57 50 41 51 55 57 56 55
50 51 51 51 51 51 52 53 59 58 49 50 60 63 65 62 62 57 52 52 52 49 42 38 38 33 34 35 33 47 34 41 42 44 44 58 59 54 57 59 55 55 54 56
50 50 51 51 51 51 53 53 54 52 38 47 47 52 61 63 62 65 48 42 54 47 51 43 36 34 37 34 37 40 45 51 40 41 49 54 54 58 59 59 56 57 55 50
50 50 50 50 51 51 52 50 55 53 43 34 44 61 59 66 63 62 60 59 59 56 52 36 35 35 42 37 41 39 45 43 39 41 47 53 55 57 58 57 58 56 53 49
50 50 50 50 51 51 52 52 53 55 49 37 41 52 59 63 61 58 59 56 54 48 36 34 36 40 39 41 42 38 43 41 38 39 53 52 52 58 59 57 54 53 49 47
49 49 50 50 50 50 48 43 48 52 50 38 34 45 47 56 58 57 56 56 51 47 41 36 40 43 39 33 36 48 52 55 56 50 56 56 57 59 60 54 53 54 54 51
48 49 49 49 49 49 45 42 47 49 51 35 33 35 42 46 50 54 54 54 48 45 40 36 41 42 41 34 35 49 54 56 56 58 56 51 55 51 56 55 56 55 55 50
47 47 48 48 48 48 44 47 49 49 44 37 32 35 39 47 40 39 44 44 43 42 43 43 42 46 38 35 48 54 57 57 57 57 57 54 55 54 54 55 53 50 50 47
47 47 48 47 45 41 43 47 48 49 43 33 33 33 34 46 42 42 40 41 35 45 36 41 46 40 35 46 51 53 54 54 54 55 53 53 51 50 50 49 48 47 46 40
47 47 42 37 41 46 47 45 40 39 36 36 33 39 36 46 38 37 37 36 34 33 39 46 34 39 50 54 55 56 56 55 51 45 45 46 45 46 46 45 44 39 36 38
47 39 38 45 46 44 40 35 33 36 33 36 38 40 38 44 35 35 38 35 34 31 39 35 36 37 47 53 51 51 50 50 49 49 49 49 47 45 43 39 37 35 36 36
45 44 45 44 40 37 33 32 34 33 34 39 36 37 40 39 41 37 36 33 34 30 37 30 29 43 46 46 47 47 48 48 48 49 47 46 44 44 40 37 35 35 34 33
46 40 35 36 34 29 28 27 32 33 36 34 34 34 35 35 34 32 32 31 31 33 29 31 39 43 45 45 46 47 49 44 38 45 46 44 43 41 35 35 34 33 33 32
35 32 28 30 29 31 33 34 33 34 34 34 35 35 35 36 33 34 30 35 32 28 26 31 40 43 44 46 46 44 45 37 35 38 40 35 33 33 32 32 32 32 32 31
33 32 27 30 35 34 34 32 33 35 36 35 34 34 33 32 30 32 31 28 26 29 31 36 41 42 42 42 42 43 36 34 35 39 34 33 32 32 33 32 32 32 31 30
32 32 30 32 30 31 30 30 31 38 34 34 34 31 28 29 31 28 27 27 28 34 36 42 44 43 42 42 39 37 38 38 39 39 36 34 32 32 35 32 32 31 30 30
30 29 34 34 30 29 31 32 35 39 33 30 30 25 27 34 27 26 33 31 35 39 41 44 44 41 41 41 40 35 35 37 38 38 34 33 34 32 32 33 32 30 29 29

GFSNW_sfc_temp_003.txt.gz
Temp
55 55 54 54 54 54 61 74 68 73 75 69 69 62 63 54 64 67 64 64 61 58 58 56 56 55 59 64 64 57 59 53 45 53 65 64 61 58 57 45 44 47 45 44
55 55 54 54 53 53 74 74 73 77 73 54 56 62 61 63 63 62 62 59 61 61 58 52 56 57 61 64 62 58 60 50 42 52 58 60 58 62 60 56 50 41 34 43
55 55 55 54 54 54 68 73 55 69 72 71 65 61 59 57 62 61 62 60 62 59 57 60 54 56 61 61 62 52 56 52 46 42 49 56 50 55 58 55 39 44 46 51
55 55 55 54 54 53 67 73 61 62 56 60 64 63 62 58 56 62 63 59 59 57 48 51 53 58 60 62 56 58 57 45 51 53 56 55 54 53 54 52 53 43 49 53
55 55 54 54 53 53 73 67 65 66 62 62 63 55 59 58 58 60 58 57 59 59 54 55 52 57 57 56 61 57 57 42 45 40 50 52 47 53 54 54 55 55 55 54
54 54 54 53 53 56 74 72 70 66 52 58 58 58 60 59 61 60 63 62 59 53 58 63 63 63 62 61 57 53 49 40 37 34 48 41 34 43 51 54 58 57 49 57
54 51 51 52 52 53 72 71 72 45 51 56 59 60 62 60 61 57 62 63 58 62 67 66 64 62 61 61 61 62 44 38 36 33 37 30 53 62 61 56 59 60 59 60
53 51 54 53 53 55 70 71 68 55 39 58 59 59 61 62 62 59 60 64 67 66 62 47 38 43 37 46 58 58 59 42 34 34 37 44 49 58 55 50 49 59 58 57
52 52 53 52 52 53 67 71 70 65 42 51 63 61 62 56 56 56 56 65 66 62 52 40 34 37 41 45 52 55 53 47 36 36 31 29 50 59 61 60 44 57 56 55
51 52 52 52 52 52 63 70 68 66 48 60 63 58 58 62 59 55 56 57 51 60 41 33 34 37 50 38 35 37 37 35 33 33 32 40 56 62 59 38 44 56 57 54
51 51 51 51 51 52 58 66 68 64 54 61 63 65 61 61 58 50 56 54 51 45 37 35 37 35 45 44 50 44 41 35 33 34 33 32 62 59 42 50 57 58 56 55
51 51 51 51 51 51 53 57 66 65 55 60 65 68 69 68 67 62 59 55 56 53 45 40 39 35 35 35 33 53 39 47 44 46 46 60 64 59 62 63 59 55 53 57
50 50 51 51 51 52 53 58 59 56 41 48 51 57 65 70 68 70 53 53 60 58 61 50 39 35 43 34 37 38 44 53 45 46 52 57 57 60 62 59 53 59 58 55
50 50 50 51 51 51 52 53 59 56 44 34 44 63 60 69 69 66 65 62 62 60 56 37 35 34 44 38 42 41 45 46 43 45 52 54 54 56 60 57 58 59 58 56
50 50 50 50 51 51 52 53 55 57 51 37 40 52 63 67 67 63 63 60 58 53 40 35 36 43 41 42 42 39 46 44 39 37 50 51 54 59 60 57 55 57 56 56
49 49 50 50 50 50 49 44 49 54 53 40 35 48 52 61 61 62 59 59 57 52 45 37 42 50 42 35 36 45 53 55 55 48 55 55 58 60 60 55 56 58 56 56
48 49 49 49 49 51 46 43 49 51 53 35 35 36 44 47 52 58 58 58 53 49 44 39 42 43 43 35 35 51 54 57 58 60 58 56 57 55 59 58 59 57 57 57
48 48 48 48 48 48 44 47 49 50 43 38 33 35 38 50 42 41 53 46 43 42 42 42 41 47 39 35 49 55 59 60 60 60 60 58 59 59 58 58 56 53 51 50
48 48 49 48 46 41 43 47 48 48 43 33 32 34 34 51 45 42 43 43 34 45 37 42 47 43 37 47 53 56 58 57 54 57 57 57 55 54 55 55 53 48 44 40
48 50 45 38 43 47 47 45 40 37 36 35 33 40 36 49 39 36 37 38 34 32 40 50 39 41 52 56 58 59 55 56 55 49 48 49 49 51 52 51 49 44 37 38
52 42 39 45 47 48 42 36 34 36 33 35 37 41 38 44 36 35 38 34 36 32 41 39 37 39 50 56 55 56 55 54 54 54 54 54 53 51 49 47 44 39 37 39
49 48 49 47 41 38 34 32 35 33 35 43 38 40 44 42 44 38 37 33 35 30 41 32 32 45 51 52 51 53 54 54 53 53 52 52 52 50 46 43 39 38 37 33
52 43 37 37 35 30 29 28 32 34 38 35 35 34 38 37 36 33 33 31 32 37 31 33 40 47 51 52 53 53 55 51 43 49 50 49 48 46 38 36 37 33 35 35
38 34 29 31 30 34 38 37 34 35 34 35 38 36 37 36 34 34 29 37 36 29 30 34 46 48 50 50 50 49 48 40 39 44 45 39 35 35 35 33 34 33 34 34
34 32 29 31 39 38 35 35 37 37 38 38 37 36 37 33 31 33 33 29 27 33 34 42 47 47 47 46 46 47 41 36 37 44 39 35 34 34 35 34 34 34 32 32
35 33 31 35 32 32 31 32 33 40 38 37 37 32 29 30 33 30 28 30 30 36 41 46 49 47 47 46 42 42 43 42 43 44 42 39 33 33 34 36 33 32 32 32
31 32 36 36 32 33 34 35 38 44 35 31 34 27 28 39 31 29 36 32 36 41 43 46 47 46 46 46 44 40 40 43 43 42 42 40 37 33 32 32 36 34 33 31

GFSNW_sfc_temp_009.txt.gz
Temp
55 55 55 54 54 55 59 58 51 63 64 53 50 46 58 55 62 64 61 59 56 53 54 51 52 51 54 59 57 50 52 45 32 45 56 59 55 51 51 34 34 33 32 37
55 55 55 54 54 54 51 54 55 63 62 41 40 55 59 59 60 59 59 56 58 57 52 44 52 53 57 59 55 49 50 38 30 38 48 52 48 52 50 46 35 35 26 35
55 55 55 54 54 53 53 55 40 53 56 56 54 53 54 54 59 59 61 59 59 55 51 54 48 52 56 57 56 52 52 44 37 31 39 46 42 46 48 44 27 34 36 42
54 55 54 54 53 53 55 55 49 53 41 48 53 55 57 54 53 59 60 56 56 53 41 45 47 53 53 56 51 54 50 36 42 44 47 48 47 46 46 43 43 36 41 43
54 54 53 52 53 53 58 51 49 52 49 55 53 50 53 55 57 56 55 52 55 54 45 48 43 48 47 46 52 47 50 35 36 37 44 46 41 43 44 44 44 44 45 45
53 54 51 52 52 54 56 57 57 51 45 47 43 44 54 55 57 56 59 56 52 43 51 53 52 52 52 51 48 42 41 35 30 35 39 37 29 38 43 45 48 46 36 43
53 51 52 53 52 52 55 55 54 37 37 39 47 56 57 56 56 51 58 56 47 55 60 55 49 48 48 47 49 50 37 31 32 33 30 26 41 53 52 47 48 48 46 46
53 51 52 53 52 52 54 57 54 41 34 43 49 53 53 55 53 52 55 58 59 57 50 36 34 33 35 41 48 44 46 33 32 30 29 37 42 47 43 42 42 46 45 48
53 53 53 54 53 52 55 57 58 47 37 40 56 51 52 41 41 43 50 58 57 55 35 35 29 24 33 35 43 47 42 37 33 29 24 23 37 48 52 52 35 46 48 45
52 52 52 52 53 53 53 55 59 53 41 46 53 46 45 53 46 39 45 48 43 50 35 33 33 28 41 30 27 29 30 31 28 24 28 32 45 51 51 31 37 47 49 47
51 51 51 51 52 52 54 54 59 53 44 48 55 57 51 52 48 37 46 44 41 36 33 33 33 33 32 32 40 33 31 27 30 26 30 25 50 50 36 44 48 51 48 47
51 51 50 51 51 52 51 51 58 58 50 49 56 57 58 58 57 51 48 46 47 43 34 34 34 33 34 33 33 44 34 38 31 34 33 46 52 49 52 53 50 48 47 46
50 50 51 51 51 52 53 52 54 51 40 48 47 49 57 63 61 61 43 42 53 48 48 39 36 34 36 33 34 35 43 46 36 36 43 48 50 53 53 52 49 49 48 47
50 50 50 50 50 51 52 51 54 52 42 34 43 56 54 61 61 59 58 56 55 52 47 36 34 34 42 35 39 38 41 43 40 39 45 48 49 49 51 49 49 47 48 47
49 49 50 50 50 51 51 52 53 55 49 37 38 48 55 59 59 57 57 54 52 43 37 35 35 36 37 36 36 35 45 43 38 36 47 45 47 49 50 48 47 47 47 45
49 50 50 50 50 50 50 44 50 54 53 40 34 46 46 53 55 54 54 54 50 48 41 36 39 46 40 34 36 46 52 52 52 46 50 50 48 51 52 49 49 50 46 43
48 49 49 50 49 50 46 43 47 51 52 35 35 35 41 45 47 48 48 50 47 45 40 37 38 39 42 33 35 47 50 51 51 53 52 46 49 46 51 51 51 51 46 43
48 48 49 49 49 48 44 46 48 50 43 38 35 34 35 43 35 36 41 37 38 39 39 36 36 38 35 34 43 47 50 51 51 51 51 49 49 49 50 51 49 46 40 38
48 48 48 47 44 40 42 48 48 46 42 35 33 32 33 44 39 37 36 37 33 37 34 35 38 34 34 38 43 46 48 46 47 49 49 46 45 45 47 47 45 43 39 36
48 48 42 34 39 47 47 43 36 35 34 33 32 36 34 42 35 33 34 33 32 31 35 37 33 34 45 48 50 49 46 48 48 41 39 39 39 42 42 42 42 39 36 34
46 38 35 42 47 44 37 32 32 32 31 32 34 35 34 40 34 33 34 32 32 29 28 27 25 29 39 46 46 48 49 50 49 47 46 45 43 42 41 37 36 35 33 32
45 44 45 42 38 34 33 31 32 31 29 34 33 35 37 35 38 33 33 31 31 26 31 30 26 32 44 44 46 46 45 44 45 45 42 42 43 41 36 34 34 30 32 32
45 37 34 34 32 28 24 23 29 27 32 34 34 33 34 34 34 32 31 28 27 32 28 27 28 38 43 43 42 43 43 37 36 40 40 40 39 38 33 34 30 27 33 32
33 30 21 25 26 26 28 28 32 32 33 33 33 33 30 32 31 31 26 26 28 25 23 21 27 36 41 42 42 42 40 32 33 35 35 32 31 31 30 26 29 32 28 28
28 30 21 26 29 32 32 33 33 33 34 34 32 31 29 25 23 27 23 20 24 21 20 24 29 35 37 38 39 38 32 30 28 34 30 30 31 30 30 28 28 30 28 27
33 31 26 29 27 30 31 32 33 34 33 30 29 24 19 18 21 18 19 17 18 21 24 28 33 35 35 36 34 35 35 35 34 34 34 34 31 29 30 32 32 32 30 29
26 22 28 32 29 32 31 32 32 35 27 21 22 17 20 25 17 17 26 20 22 25 27 28 34 34 35 35 35 32 32 34 34 36 36 35 32 26 32 33 35 32 30 30

GFSNW_sfc_temp_012.txt.gz
Temp
54 54 54 54 53 54 55 55 49 60 61 51 45 44 55 54 58 60 57 55 53 50 50 48 48 47 51 55 54 47 49 41 32 42 51 54 49 45 44 29 33 31 32 36
54 54 54 54 53 53 52 52 52 60 60 39 36 52 56 56 57 56 56 53 55 54 49 43 49 50 54 55 52 48 48 37 29 38 45 48 45 48 46 42 33 31 24 31
54 54 54 53 53 53 53 52 41 50 52 51 50 50 50 51 57 56 58 55 56 52 48 51 45 49 53 54 54 51 50 41 36 30 37 42 39 45 46 40 26 33 35 39
54 53 52 52 53 53 55 50 46 50 39 46 49 51 53 51 50 56 57 53 53 50 40 42 43 48 49 52 50 50 47 35 39 41 44 44 44 43 43 40 40 31 38 39
53 52 50 51 52 53 54 49 48 48 45 52 51 46 50 51 54 53 51 49 50 50 43 45 40 45 43 44 48 44 46 34 34 36 41 41 38 42 42 41 41 41 40 40
53 50 50 52 52 55 52 51 52 48 41 43 40 41 50 52 54 53 56 53 49 41 48 51 51 51 50 49 45 39 39 33 29 34 35 34 32 36 39 42 44 42 34 40
52 50 51 51 51 52 53 52 48 37 35 35 43 52 54 52 52 50 54 54 48 53 55 52 49 47 45 44 44 47 34 30 30 31 32 25 41 47 47 42 44 45 43 43
52 50 52 52 51 52 54 53 50 39 33 41 45 49 50 51 50 49 51 54 55 53 45 36 32 32 35 38 44 42 43 34 30 25 29 35 39 44 40 37 39 44 41 45
52 52 52 52 52 52 54 54 52 44 37 39 51 48 48 40 38 41 47 54 54 47 34 31 23 23 32 34 41 44 39 35 29 31 27 25 35 45 49 46 31 44 45 44
51 51 52 52 52 52 53 53 55 49 40 45 50 45 43 49 42 37 40 47 42 45 34 31 27 27 38 29 27 27 28 31 24 20 25 28 41 47 49 26 34 42 47 47
51 51 51 51 52 52 54 53 55 52 43 47 52 54 50 49 45 36 44 43 39 36 33 32 29 32 32 30 37 32 32 27 29 26 26 26 47 47 37 41 42 47 46 44
50 51 50 51 51 52 52 50 55 54 48 48 53 55 56 55 55 48 45 45 43 40 35 34 31 31 33 31 32 40 34 38 31 33 32 43 47 48 47 49 46 43 44 46
50 50 50 50 51 52 52 50 52 49 39 45 46 49 55 60 57 57 42 38 50 44 45 36 35 33 34 33 33 35 41 45 33 36 43 45 47 51 51 47 44 45 44 43
49 50 50 50 50 51 51 49 51 48 42 34 43 53 53 58 58 56 54 52 52 51 45 36 34 34 41 35 40 38 41 42 39 40 44 46 48 47 49 48 47 46 47 45
49 49 49 50 50 51 50 50 52 52 48 36 37 47 53 56 57 55 56 52 49 42 37 35 35 36 37 35 35 35 44 43 37 37 47 45 47 49 49 45 45 45 45 44
49 49 50 50 50 50 50 45 49 52 53 40 35 45 45 50 51 51 51 50 48 45 39 36 39 45 40 34 34 44 48 51 52 46 49 48 48 48 48 45 45 47 48 42
49 49 49 50 49 51 47 44 47 51 52 36 35 35 41 43 45 45 45 47 44 44 40 37 39 39 42 33 36 47 48 50 52 51 50 43 45 42 46 45 47 48 45 43
48 49 49 49 49 48 45 47 49 50 44 38 34 34 36 44 33 34 40 36 37 39 39 36 36 37 35 34 46 45 48 50 49 47 47 46 47 46 47 48 46 43 41 40
48 48 48 47 45 40 42 47 47 45 43 35 33 33 33 43 38 36 34 34 33 36 33 35 37 33 34 38 40 43 44 45 45 46 45 46 43 43 43 44 43 40 39 37
48 47 42 34 39 47 47 42 36 35 34 34 32 35 34 41 34 33 33 33 32 31 34 39 33 36 44 48 48 47 42 44 43 36 35 37 37 39 38 39 40 37 34 34
45 37 35 42 47 43 37 32 33 32 31 32 34 34 34 39 34 33 33 32 32 28 28 32 27 29 35 41 41 42 43 44 43 43 42 43 39 38 37 34 35 33 32 32
44 43 44 41 37 34 32 31 31 31 28 32 32 34 37 34 38 33 32 30 31 24 27 25 27 29 37 39 40 41 42 43 43 43 41 40 40 39 35 33 32 32 31 27
42 37 34 32 32 25 21 25 28 28 32 34 33 33 33 34 34 32 25 24 21 30 27 27 26 35 40 41 42 41 40 37 35 41 41 40 38 36 31 31 31 28 27 29
32 27 24 25 23 25 25 27 31 32 33 33 33 32 30 30 25 31 26 26 27 22 22 20 26 34 38 39 39 39 38 31 31 33 34 32 30 30 29 25 27 23 31 32
25 26 21 25 30 30 32 32 32 33 34 32 27 27 27 24 20 28 25 18 22 24 18 23 28 34 35 36 36 36 31 31 31 33 30 29 28 28 31 32 26 29 31 31
25 27 25 26 27 28 31 32 32 32 28 27 27 21 17 17 18 16 16 16 16 19 20 26 31 34 34 34 33 34 33 32 33 34 33 34 30 31 33 29 31 34 34 32
23 20 27 29 26 24 31 29 31 34 30 20 19 15 20 22 13 14 23 17 20 23 26 29 31 33 33 33 33 30 31 34 34 34 34 33 33 28 29 26 34 32 33 32

GFSNW_sfc_temp_015.txt.gz
Temp
53 54 54 53 53 53 56 53 48 59 58 50 41 43 52 53 55 58 55 53 51 47 47 45 45 45 49 53 51 45 46 39 31 40 49 50 47 42 41 31 32 30 28 33
53 53 53 53 52 53 53 51 50 58 58 39 35 49 52 53 54 53 53 50 52 51 46 41 46 47 52 54 50 45 46 36 29 37 43 46 42 43 43 38 32 32 26 30
54 53 51 51 52 52 54 50 41 50 49 48 48 47 48 49 54 54 55 52 53 49 46 48 43 46 51 52 51 50 49 39 35 30 37 40 37 40 42 39 27 31 33 38
53 50 50 51 53 52 55 48 45 47 38 45 47 49 50 49 48 53 54 50 49 47 39 40 40 45 47 50 49 48 45 35 37 39 41 41 41 40 42 37 37 33 37 37
52 49 50 52 52 53 52 48 46 45 43 49 48 44 47 49 50 51 48 47 48 48 43 44 39 44 42 43 46 42 43 33 34 32 39 39 37 40 39 39 39 37 37 37
50 49 52 52 52 54 50 48 48 47 39 41 39 40 48 50 52 51 53 51 46 39 47 50 49 49 49 47 43 39 38 32 31 28 34 32 28 34 37 39 42 40 32 38
49 49 51 51 52 53 52 49 47 37 34 33 42 49 50 50 49 48 51 51 46 50 53 51 48 45 44 42 42 45 33 30 29 29 32 24 40 44 45 41 42 42 41 41
49 49 52 51 52 53 53 50 48 39 32 40 42 47 48 48 49 47 49 51 51 50 45 36 33 33 34 36 41 39 39 32 30 29 28 33 39 43 38 37 38 43 41 42
50 51 52 52 51 52 53 51 48 44 37 38 48 47 46 39 36 40 45 51 50 46 32 31 25 24 31 33 38 40 37 33 28 29 27 24 35 42 45 43 32 42 42 41
51 52 52 52 52 52 53 52 52 48 39 43 48 43 42 46 40 35 38 44 41 43 34 30 23 26 36 29 26 27 28 30 27 27 28 29 39 45 46 28 33 44 45 45
51 51 51 52 52 50 53 51 53 50 41 45 50 52 48 47 43 37 43 42 38 36 31 27 27 21 31 29 35 31 30 27 25 27 25 23 44 44 36 41 41 43 42 41
50 51 51 51 52 52 53 50 53 52 49 49 52 53 54 54 52 46 43 43 41 39 35 34 30 31 28 29 31 38 34 37 30 33 33 43 46 46 47 47 43 40 39 42
50 50 50 51 51 52 52 50 50 48 39 45 46 48 53 56 55 55 43 37 47 42 43 36 34 33 33 30 33 36 40 44 35 37 42 46 47 51 52 47 43 43 45 44
50 50 50 50 50 51 52 49 49 48 42 34 41 51 51 55 55 54 52 51 48 47 41 34 34 34 41 35 40 37 41 41 38 38 44 45 47 47 47 46 45 44 43 42
49 50 50 50 50 51 50 50 51 52 49 37 38 46 52 54 54 52 51 50 47 42 36 34 35 36 37 35 35 35 42 40 37 36 47 46 47 46 47 42 41 42 42 42
49 49 50 50 50 51 50 45 50 52 52 39 35 43 45 49 50 50 49 49 48 45 39 35 37 42 39 33 34 45 49 49 50 46 50 49 46 45 45 43 44 44 43 43
48 49 49 49 49 51 47 45 47 51 52 37 35 36 40 42 44 44 44 45 43 43 39 36 38 39 42 33 36 47 49 48 47 50 48 42 41 37 43 43 45 45 45 43
48 49 49 49 49 49 46 46 48 50 45 39 34 34 36 41 32 34 40 36 37 36 39 36 35 37 35 34 44 45 45 46 47 45 46 44 44 44 44 44 42 39 39 39
48 48 48 47 45 41 43 47 47 46 44 34 33 33 33 42 38 36 34 36 33 36 33 34 36 34 34 38 41 42 43 42 41 40 39 39 39 39 39 40 40 39 38 36
48 47 42 34 39 47 46 43 37 36 34 34 33 35 34 41 34 33 34 33 33 32 33 38 33 33 41 38 40 40 39 40 39 36 33 34 35 35 37 38 37 35 33 32
44 37 34 42 47 43 37 33 33 33 32 32 34 34 34 38 34 33 33 32 32 27 26 31 27 25 32 36 37 39 40 40 41 42 41 40 38 37 35 34 33 34 33 32
44 43 44 41 37 34 33 31 31 31 29 32 32 34 36 34 37 33 32 30 30 19 27 28 24 30 35 36 36 37 41 42 41 41 39 39 39 38 36 34 34 33 32 28
43 37 34 33 32 27 22 25 27 28 30 33 33 32 33 34 34 32 29 26 24 30 25 22 26 33 37 38 41 40 41 37 33 37 38 39 37 35 31 32 32 29 29 27
30 29 25 22 21 27 24 23 28 32 33 34 33 32 30 31 23 29 25 24 27 24 19 19 28 34 37 37 38 36 36 31 31 33 33 31 29 29 29 26 27 25 25 30
26 24 18 24 28 31 32 32 33 33 33 32 27 29 27 27 20 27 25 21 21 24 18 21 28 34 34 35 35 34 31 29 28 32 29 28 27 27 28 29 27 25 25 31
25 21 22 28 29 27 30 32 32 33 31 28 25 18 15 16 16 17 20 14 14 18 18 25 31 33 33 33 32 33 33 32 32 32 32 32 29 28 31 31 27 28 29 33
19 18 28 20 24 20 25 31 30 31 30 19 18 15 20 21 10 12 21 15 19 22 24 26 31 32 33 32 32 30 30 32 32 32 32 32 32 28 25 26 32 31 30 28

GFSNW_sfc_temp_021.txt.gz
Temp
53 53 51 50 51 53 56 52 50 58 58 51 42 44 52 52 54 57 54 53 52 49 48 47 47 46 51 53 55 49 49 43 39 45 50 52 50 46 44 38 35 37 35 38
53 51 51 51 52 52 55 52 52 57 58 41 38 50 52 53 53 52 53 51 52 52 47 44 48 49 52 53 53 50 50 41 36 41 46 50 46 47 44 41 38 36 32 39
52 50 51 51 52 53 53 51 44 51 49 48 48 48 48 49 53 52 52 51 53 50 46 48 46 48 52 52 52 48 50 42 41 37 42 44 41 43 44 43 35 37 38 43
51 50 51 51 52 52 54 48 46 48 41 46 48 49 50 49 48 53 53 51 51 48 41 44 44 48 50 51 50 50 49 40 41 42 44 42 41 41 42 40 42 36 42 43
50 50 50 51 52 52 51 49 47 45 43 48 49 44 48 49 50 51 50 48 50 50 46 48 44 48 47 47 50 47 45 39 38 35 39 39 36 41 41 41 42 41 42 41
50 49 50 52 52 54 51 48 49 49 39 41 43 43 49 50 51 50 53 50 48 43 50 53 52 51 49 50 48 43 42 38 34 32 35 35 33 39 40 42 43 44 39 48
50 49 50 51 51 53 53 49 48 39 37 37 43 49 50 49 50 48 51 52 48 52 53 52 50 46 45 46 44 46 34 34 33 32 31 28 44 48 48 45 46 48 46 47
49 49 51 51 51 52 52 48 49 42 33 39 44 47 47 48 47 47 49 50 50 52 49 40 35 36 35 36 39 40 41 35 32 30 30 37 43 47 45 42 44 48 45 47
49 49 51 51 50 52 52 49 48 46 37 41 49 47 47 42 41 42 45 50 50 48 37 35 32 32 35 38 38 40 38 36 35 31 28 27 40 47 49 48 37 46 48 47
49 51 51 51 50 51 53 51 51 49 40 44 49 46 45 46 43 39 40 46 43 46 34 32 33 34 38 35 30 28 31 32 32 32 30 35 44 47 49 34 39 48 47 47
51 51 51 51 50 50 54 52 52 51 41 46 50 52 47 47 45 41 44 43 40 37 34 34 33 31 36 35 39 34 35 31 29 29 28 27 46 47 39 47 48 48 48 48
50 51 51 51 51 52 53 51 52 51 48 49 50 53 54 54 53 47 43 46 42 42 36 34 32 32 30 32 34 40 35 40 37 37 37 46 48 48 51 50 45 44 44 40
50 50 51 51 52 52 53 50 50 48 39 45 48 49 53 55 55 56 46 40 47 43 45 38 35 34 35 32 32 37 41 44 38 39 46 48 49 53 49 46 41 41 41 39
50 50 50 50 51 51 52 50 49 47 42 34 43 50 50 55 55 55 54 50 46 44 42 34 34 34 43 35 41 38 44 42 40 39 46 48 48 45 43 40 40 40 43 44
50 50 50 50 51 51 51 50 51 51 48 36 38 46 50 50 52 52 51 49 45 43 37 34 35 37 38 37 37 35 43 42 37 37 48 46 41 41 41 38 40 42 43 43
49 50 50 50 50 52 52 46 50 51 51 39 34 43 43 46 49 49 48 48 46 44 40 36 39 45 41 33 33 44 48 50 51 47 48 42 40 39 40 41 43 44 44 44
49 49 49 50 50 52 49 46 47 50 51 38 36 36 40 42 43 43 43 45 46 45 39 36 37 38 41 33 34 45 46 46 43 45 43 38 39 38 43 44 45 45 44 44
49 49 49 50 50 49 47 47 48 51 46 40 34 35 36 42 36 36 40 37 39 38 39 35 36 37 35 34 39 39 41 40 39 40 42 41 43 44 44 45 44 41 41 41
49 49 49 48 46 42 44 48 48 46 45 35 33 34 34 42 38 37 36 37 34 37 33 34 37 34 33 34 35 35 37 39 37 39 41 42 41 42 42 42 41 39 39 39
49 48 43 35 39 47 47 44 38 36 35 34 33 36 34 41 34 33 35 34 33 32 34 37 33 34 36 38 39 39 39 40 41 38 37 38 38 38 38 38 39 38 38 38
43 37 35 42 46 43 37 34 34 33 32 33 34 34 34 38 34 34 34 33 33 29 30 32 32 31 34 37 38 40 41 43 43 44 43 41 39 37 37 37 37 36 35 34
43 42 43 41 37 34 33 32 32 32 32 33 33 34 36 34 37 34 32 32 31 26 31 29 25 31 36 37 39 40 41 41 41 41 39 38 38 37 35 35 35 34 34 31
42 37 33 33 32 31 30 27 27 29 32 33 33 32 33 34 34 32 32 28 26 30 25 25 28 34 37 39 40 39 40 38 35 38 38 37 37 35 32 31 32 30 31 32
34 33 29 29 28 28 27 28 29 32 33 33 33 31 32 31 31 29 27 27 28 25 20 22 29 35 39 39 37 37 38 31 30 34 35 32 30 30 30 27 28 27 28 31
29 30 25 25 28 30 31 33 33 33 34 33 31 29 29 27 27 28 26 24 22 23 23 26 33 36 35 35 36 37 32 28 29 35 31 29 28 28 29 31 30 30 28 27
28 26 25 28 29 28 31 32 32 33 32 31 29 23 24 24 25 23 23 20 18 23 25 30 33 34 35 35 34 34 34 34 34 34 32 32 29 28 31 31 29 28 27 27
25 23 27 26 24 28 28 32 32 34 33 26 24 21 22 23 19 19 24 19 24 27 29 30 32 34 35 35 34 30 31 33 34 34 33 33 32 28 26 27 32 32 32 31

GFSNW_sfc_temp_024.txt.gz
Temp
53 51 51 52 52 53 63 68 64 69 69 65 63 60 62 56 63 65 63 63 61 58 57 55 54 53 57 60 61 56 57 54 49 52 57 59 58 54 54 46 42 45 43 46
52 51 51 52 52 53 73 70 68 71 69 55 55 59 59 62 62 61 62 59 61 61 56 52 56 56 58 61 60 57 58 51 46 48 54 57 54 55 54 51 47 42 36 47
52 51 51 51 52 54 71 70 56 67 69 64 63 59 58 57 62 60 62 59 62 59 56 58 54 54 57 58 59 48 55 53 49 45 50 53 49 53 54 51 40 44 46 51
51 51 51 51 52 52 69 67 59 60 55 59 62 62 61 58 56 61 63 59 60 58 50 54 53 56 56 57 52 57 57 47 51 53 54 54 51 50 52 49 50 42 48 52
50 50 50 51 52 52 68 64 61 60 57 60 62 54 59 59 57 61 57 58 59 60 55 57 52 56 56 55 57 56 55 47 45 42 50 51 46 51 52 51 51 52 52 50
50 50 50 52 52 55 69 62 62 64 48 55 58 57 59 60 62 58 62 62 59 53 59 63 61 61 60 59 56 52 50 46 41 38 44 43 36 47 50 51 54 52 46 55
50 50 50 51 52 56 70 65 66 52 50 56 58 59 60 59 59 57 59 62 59 58 63 62 61 58 56 56 54 55 41 41 38 35 36 32 49 58 57 52 54 57 57 57
50 49 51 51 51 53 66 62 64 55 38 56 55 59 58 58 59 57 59 57 57 64 61 51 39 45 39 43 49 50 52 42 35 32 36 45 49 53 51 48 48 57 54 55
49 50 51 50 49 52 64 60 61 61 43 52 60 58 60 55 55 55 53 56 59 60 52 44 35 40 44 46 46 46 46 45 41 33 30 30 49 55 55 54 43 55 54 52
50 51 51 50 49 52 65 60 59 66 52 56 59 59 57 60 57 54 54 55 53 57 40 35 36 41 47 43 36 35 34 35 34 35 32 41 55 54 55 37 41 53 54 51
51 52 52 51 51 52 64 60 60 64 53 57 58 60 58 58 61 52 54 53 50 44 37 37 37 36 45 43 48 42 43 35 33 34 31 30 55 53 42 50 54 54 54 50
51 51 52 51 51 52 57 63 60 59 61 58 59 60 62 63 65 61 55 56 54 54 45 39 39 36 35 39 39 51 42 48 46 46 45 57 60 55 58 58 53 48 41 39
50 51 51 52 52 52 58 62 59 61 51 57 58 57 61 63 64 67 57 54 58 55 56 49 41 35 46 34 39 47 53 55 45 46 52 56 57 59 52 50 43 43 42 42
50 50 51 51 52 51 56 61 59 59 49 37 53 58 58 62 63 64 64 60 56 55 54 38 37 38 53 43 47 44 53 54 49 48 52 53 55 51 45 41 41 43 47 48
50 50 50 51 52 52 59 61 60 61 60 43 48 56 57 59 60 61 61 60 56 47 40 38 40 50 44 44 42 39 54 51 43 40 50 46 44 40 41 39 43 48 48 49
49 50 50 50 51 52 62 57 61 61 62 47 41 54 52 55 58 57 57 58 55 50 47 40 48 52 48 34 36 49 54 56 55 46 50 44 40 40 42 45 47 50 50 51
49 49 50 50 50 57 57 55 55 54 61 43 39 41 49 50 53 53 54 52 52 52 46 40 44 44 47 34 34 44 46 47 47 50 45 38 39 37 48 49 51 51 52 52
49 49 49 49 49 49 54 54 50 55 50 46 36 38 42 50 43 40 46 43 42 42 43 37 39 40 38 35 42 44 45 43 43 44 48 46 47 48 50 52 50 48 48 48
49 49 49 50 48 44 46 48 50 52 51 37 35 37 36 47 41 41 41 43 36 40 35 36 38 35 35 39 40 41 41 43 44 46 48 47 46 47 48 48 48 45 45 46
49 49 45 36 41 47 48 46 40 38 36 35 34 39 37 46 39 38 39 38 36 34 36 41 34 34 37 42 43 45 45 44 45 43 42 44 44 45 45 45 46 45 44 42
44 38 35 43 47 44 39 34 35 34 33 34 35 36 36 41 37 34 36 34 34 32 37 36 34 34 39 45 45 47 46 47 48 48 48 48 46 44 43 43 43 42 41 39
43 43 43 41 38 34 33 32 32 33 34 34 34 35 37 35 38 35 33 33 33 30 40 32 32 41 43 44 43 44 45 47 47 48 46 46 45 45 43 41 41 39 38 34
43 36 33 33 32 32 32 30 32 32 36 37 35 33 34 35 37 33 34 32 31 36 30 32 39 40 43 44 45 46 47 45 41 46 46 45 44 42 38 36 36 34 35 36
34 32 30 32 31 32 34 34 35 36 36 35 36 34 35 34 33 33 31 31 34 28 27 30 37 41 43 46 46 45 45 37 38 41 42 38 35 35 34 33 33 32 32 34
33 34 30 30 31 34 34 35 36 36 37 38 36 35 37 32 30 33 30 27 27 31 32 37 42 43 44 43 43 44 41 35 36 42 37 34 34 34 34 35 35 35 33 32
34 32 30 31 32 31 33 34 33 36 34 34 36 32 31 29 31 28 28 28 28 33 37 42 43 41 41 42 41 41 41 40 40 41 40 38 34 33 37 36 34 33 32 32
32 30 32 32 33 33 33 36 36 36 35 32 33 29 29 30 28 27 32 29 34 38 39 41 42 41 42 42 41 36 37 39 40 41 40 39 38 35 33 33 39 37 35 34

GFSNW_sfc_temp_027.txt.gz
Temp
52 52 52 52 53 54 58 74 67 76 77 69 71 65 67 60 68 71 68 69 67 64 64 61 60 59 62 66 66 61 62 59 52 58 64 66 64 60 59 48 46 50 46 47
52 51 51 51 53 54 80 74 71 77 74 59 62 66 65 68 67 68 67 64 67 67 63 56 61 61 63 66 65 61 63 56 49 54 58 62 58 61 59 57 50 44 39 47
52 51 51 51 53 54 72 75 60 71 73 74 68 64 64 62 67 66 68 66 68 65 61 65 59 59 61 63 64 51 58 58 53 47 54 60 54 58 60 57 45 46 48 54
52 51 51 51 52 54 71 76 66 69 60 65 68 69 67 63 60 67 69 65 66 64 56 60 58 62 60 62 52 61 61 50 56 57 60 60 58 56 57 54 55 46 51 54
51 51 50 52 52 53 75 72 67 70 68 69 67 58 65 64 63 66 63 64 66 66 59 62 58 62 61 60 62 61 61 50 50 47 56 58 53 57 57 57 56 56 55 53
51 50 51 52 52 54 77 74 73 72 54 65 64 63 65 66 66 64 69 68 65 59 64 67 67 67 66 65 61 57 55 50 46 39 49 47 39 50 56 57 58 56 48 56
50 50 51 51 51 54 78 74 76 58 56 63 65 65 67 66 66 62 68 69 63 64 70 69 67 65 62 62 60 61 49 48 41 36 37 33 55 63 62 57 59 61 60 61
49 50 51 49 50 53 75 73 73 62 42 65 63 65 66 65 66 64 63 62 67 70 66 55 44 46 39 47 56 57 58 48 38 34 39 47 53 57 54 51 51 61 58 59
50 51 52 49 50 52 72 68 70 69 48 56 68 65 65 60 60 59 58 63 67 66 57 47 36 42 50 50 50 54 52 52 44 36 31 32 51 60 60 59 44 58 58 56
50 52 52 52 52 53 71 68 66 73 58 64 67 63 62 68 65 59 60 59 58 64 43 37 37 43 54 47 38 35 37 38 36 37 34 43 58 59 60 40 43 56 56 49
52 52 52 52 52 53 66 67 68 69 61 63 65 66 64 64 66 55 61 58 56 51 38 37 41 38 50 48 54 46 41 36 34 38 33 32 60 57 44 51 57 52 52 46
52 52 52 52 52 52 55 71 69 70 69 63 66 66 66 67 68 69 62 62 60 60 50 42 43 39 39 42 42 59 46 51 46 47 47 59 61 57 57 58 52 49 42 43
51 52 52 52 52 53 58 70 69 72 56 63 65 62 65 70 69 71 61 61 66 63 64 53 45 36 48 35 44 51 57 62 48 48 56 57 57 58 55 53 48 46 46 47
51 51 52 52 52 53 58 70 68 68 56 40 57 65 64 66 69 69 68 66 64 64 61 41 40 38 58 48 52 51 56 58 53 49 56 55 50 47 46 45 44 45 50 52
50 51 51 52 53 54 66 69 67 68 64 47 54 62 62 65 66 65 66 65 62 56 43 38 41 54 52 51 49 47 57 54 47 42 48 46 43 44 44 42 48 51 51 52
50 50 51 51 52 53 70 63 68 69 69 52 43 60 58 62 64 63 63 64 58 58 50 43 54 60 53 36 39 55 59 61 55 52 47 43 43 43 45 48 51 53 54 54
49 49 50 50 51 65 62 60 60 56 69 48 40 47 55 57 60 60 60 55 53 55 53 45 50 52 53 39 38 55 54 53 51 50 47 38 40 43 50 52 54 54 55 55
49 49 49 49 49 51 58 60 54 58 60 54 36 41 46 55 47 43 53 47 48 49 50 43 44 50 45 37 48 53 52 49 46 46 49 51 51 52 53 55 54 52 51 51
49 48 49 52 50 48 57 49 54 60 57 39 35 36 36 53 46 44 44 48 38 44 37 38 41 38 37 45 48 46 46 45 44 50 52 52 50 50 52 52 51 49 48 48
49 50 47 37 42 48 49 51 44 42 43 41 37 49 40 51 41 38 39 41 38 34 38 41 34 34 41 47 49 49 47 47 50 47 46 47 46 48 49 48 50 48 47 45
45 38 36 44 47 47 40 35 36 36 34 36 41 44 41 46 39 37 40 35 35 33 37 36 36 38 45 47 46 48 49 51 51 52 51 51 50 48 47 47 46 44 44 42
43 43 44 42 39 34 36 34 33 34 36 35 34 35 38 36 41 35 33 34 34 32 45 34 32 45 47 48 48 49 50 51 50 51 50 50 50 49 46 45 43 43 40 35
43 37 34 34 32 31 32 30 33 33 34 35 34 33 34 35 37 33 33 32 33 41 31 34 43 45 48 49 49 49 51 49 45 48 50 49 48 45 41 39 40 36 39 40
34 32 31 32 32 33 35 36 36 36 36 36 35 33 34 34 33 34 32 34 37 30 29 32 43 45 48 49 50 50 48 39 41 44 45 43 39 38 36 34 34 34 34 37
33 34 30 32 33 34 34 35 36 36 38 38 36 36 38 34 32 35 32 29 29 34 35 40 46 46 46 47 46 47 45 36 38 45 40 35 35 36 37 38 38 38 34 34
35 34 32 33 33 32 33 33 33 38 38 39 39 34 33 32 34 30 30 30 31 36 41 46 47 45 45 45 45 45 45 44 44 44 43 41 37 34 39 40 36 34 33 33
34 32 35 34 34 33 34 36 36 38 36 33 34 30 29 32 30 29 37 33 37 42 44 47 46 44 45 46 45 39 41 42 43 43 43 43 42 38 36 34 41 42 41 35

GFSNW_sfc_temp_030.txt.gz
Temp
52 51 52 52 53 54 60 73 62 75 77 65 68 63 69 60 69 72 70 71 69 66 66 63 62 60 62 68 68 61 63 60 51 58 66 67 64 59 59 45 45 46 44 45
52 51 51 51 53 54 73 70 68 75 75 58 61 67 68 71 69 70 69 66 69 70 65 58 63 60 65 68 65 58 62 56 47 52 58 63 59 62 61 58 49 42 37 43
52 51 51 51 53 55 68 72 59 69 70 72 67 64 64 63 70 69 71 69 70 67 63 66 60 58 62 65 63 52 58 59 54 46 53 59 54 58 61 57 43 44 45 50
51 51 51 51 53 54 68 72 66 70 59 64 68 69 68 64 61 69 71 66 67 65 57 61 60 62 60 63 54 61 62 51 57 58 59 59 57 57 57 54 55 44 50 53
51 51 51 52 53 53 69 68 67 71 68 70 67 60 65 65 67 66 64 64 67 67 60 62 59 63 62 60 62 61 62 49 49 46 58 57 51 55 56 57 57 57 55 53
51 50 51 52 52 55 74 75 75 72 56 66 64 63 66 67 68 66 71 70 66 58 63 65 67 67 67 66 61 58 56 49 44 39 47 44 38 48 55 57 58 56 47 56
50 50 51 50 50 53 72 72 75 58 57 64 65 68 69 68 67 64 70 71 63 65 72 69 68 65 63 64 62 62 48 46 40 35 37 33 54 62 60 56 58 59 58 60
50 50 51 50 50 51 74 73 71 60 41 64 66 67 67 67 67 66 63 64 69 71 67 55 45 44 39 48 59 58 60 46 38 35 38 46 52 57 53 50 49 59 56 55
50 53 52 51 52 53 71 67 69 68 49 58 70 66 66 61 60 59 58 66 70 68 55 43 37 40 50 47 49 55 56 51 42 36 31 31 50 60 62 59 41 55 53 50
50 53 52 52 52 53 67 67 68 71 59 66 67 64 62 68 63 57 59 59 58 65 43 34 35 42 56 46 39 35 37 38 35 37 33 41 56 60 61 39 41 52 51 47
53 53 52 52 52 53 63 66 69 68 61 64 68 69 66 66 65 54 60 57 57 50 37 36 40 38 48 49 55 42 39 35 33 37 33 32 60 56 41 50 55 51 50 47
53 53 52 52 52 53 55 68 71 70 66 63 68 67 68 68 68 66 62 61 58 57 47 43 44 38 38 40 42 61 46 49 45 44 42 57 58 53 55 54 49 48 47 49
52 53 53 53 53 54 57 69 69 71 59 62 63 61 67 71 69 71 59 61 67 63 62 50 43 34 46 35 43 51 58 62 49 50 56 58 54 54 52 51 47 48 48 49
51 52 54 53 53 54 56 69 69 67 55 38 57 67 65 69 70 70 69 66 65 63 58 40 38 37 56 45 50 49 55 57 53 51 57 58 50 49 47 46 47 48 51 53
51 51 52 55 55 54 66 69 69 69 63 45 54 64 65 67 67 67 67 64 61 55 42 37 39 52 50 51 48 45 56 52 46 44 52 52 46 44 45 45 48 52 52 52
50 51 52 52 52 51 68 62 67 68 68 50 41 60 59 63 65 65 63 64 59 57 47 42 51 62 51 37 40 54 60 62 57 53 52 50 46 46 49 49 52 54 53 53
49 50 50 51 52 62 59 57 57 54 65 47 39 47 56 59 62 61 57 57 54 53 51 45 48 51 53 37 37 54 58 57 55 52 48 41 43 46 50 52 54 54 55 54
49 49 49 49 48 50 57 57 55 57 60 53 36 42 46 56 48 44 54 46 48 51 49 44 44 51 43 37 48 55 58 52 51 49 50 50 51 52 53 55 54 51 50 50
48 48 50 54 53 53 57 49 52 63 58 38 35 36 36 55 46 44 44 48 36 44 38 39 44 38 37 44 49 54 51 48 48 50 52 52 51 51 52 51 50 48 47 47
49 51 47 37 44 48 49 56 48 45 44 41 37 49 40 50 41 38 38 40 37 34 38 42 34 35 47 51 53 53 50 48 49 46 46 48 47 48 48 48 49 47 45 44
46 39 35 43 47 51 43 38 37 37 35 39 42 47 40 48 39 36 40 35 36 33 37 36 34 35 45 49 48 50 49 50 51 53 52 52 50 48 47 46 45 42 41 39
43 43 44 42 38 35 36 34 34 34 36 36 35 37 42 39 45 37 34 34 34 32 41 34 33 43 47 47 47 48 50 52 51 52 50 50 50 49 44 42 40 40 38 33
43 37 35 35 32 31 32 31 32 33 33 35 34 33 35 35 37 33 33 32 32 39 32 32 39 45 49 49 50 49 51 45 44 49 49 48 46 44 39 37 38 35 36 37
34 32 31 32 31 33 33 33 34 35 36 35 34 33 34 33 32 32 32 33 35 30 29 32 40 46 49 50 50 49 47 37 40 42 43 40 37 36 34 33 33 31 33 35
33 33 31 31 33 34 34 34 35 35 36 35 34 34 35 33 32 33 32 30 29 32 32 35 42 46 46 46 47 47 42 34 36 42 37 34 33 34 35 36 36 36 33 33
35 33 32 33 33 32 33 33 33 36 35 36 37 33 32 31 33 31 30 30 29 33 37 42 44 43 43 44 42 41 42 41 40 41 40 39 35 33 38 38 35 34 34 33
33 33 34 35 33 33 33 34 34 37 35 32 35 31 28 33 31 30 34 31 35 40 41 41 42 42 43 43 42 37 38 39 40 40 40 40 40 36 35 34 38 38 37 33

GFSNW_sfc_temp_033.txt.gz
Temp
52 51 52 52 53 54 58 58 50 63 64 52 50 48 61 59 65 66 65 63 63 59 59 56 56 53 56 63 61 54 54 51 40 50 58 60 56 52 52 32 37 35 31 35
52 51 51 51 53 53 59 55 54 64 62 42 45 57 63 65 63 63 62 60 63 62 56 51 54 54 59 61 56 50 53 47 34 43 50 56 51 55 55 50 38 34 26 33
52 51 51 51 53 54 59 55 46 54 56 57 54 56 57 58 64 63 66 63 63 58 55 59 51 52 58 58 56 52 53 51 43 34 44 50 45 51 52 48 30 34 36 42
51 51 51 52 53 54 60 58 52 56 45 51 54 57 59 57 56 62 64 59 60 57 48 53 51 53 54 56 53 54 52 42 47 48 51 51 49 48 49 46 46 35 41 46
51 50 50 52 52 53 57 56 56 57 53 58 55 52 57 57 60 60 58 56 60 58 52 53 50 54 52 51 54 52 54 38 39 37 48 47 43 47 47 49 49 47 47 45
50 50 51 49 50 54 57 60 62 56 50 53 51 52 58 60 60 59 63 60 54 48 54 56 56 56 56 56 52 49 46 38 32 30 39 36 31 41 48 49 50 48 39 46
50 50 50 49 49 53 59 58 58 47 43 50 54 61 61 60 61 56 58 59 52 58 61 57 54 53 53 55 54 54 40 36 32 25 30 22 45 54 52 49 50 50 48 47
50 51 51 52 51 53 59 59 58 47 36 53 57 60 57 57 56 54 55 58 60 61 56 42 39 35 37 43 52 50 50 35 27 28 27 37 45 51 47 44 41 48 45 46
49 52 52 52 52 53 60 57 58 53 42 47 61 57 56 48 47 49 52 59 59 57 42 34 29 30 38 39 44 47 48 40 31 23 19 19 39 51 55 52 32 47 46 43
51 52 52 52 52 54 59 57 59 57 48 54 57 52 52 56 51 43 50 50 50 51 36 33 28 31 46 35 33 29 29 33 26 22 20 31 47 53 54 32 34 44 44 42
53 52 52 52 52 53 58 56 60 57 49 53 58 58 54 59 53 42 50 45 44 38 33 29 32 32 35 37 44 35 31 28 30 32 27 23 53 50 39 42 45 45 43 43
53 52 52 52 52 53 54 56 61 61 54 52 58 58 60 58 57 54 52 49 49 46 37 36 35 34 34 33 31 48 34 39 33 36 33 46 49 47 46 47 43 43 45 45
52 54 52 52 52 53 55 57 58 57 48 51 52 52 58 63 61 62 49 48 56 51 50 41 40 34 36 29 33 39 47 52 38 40 48 47 45 46 47 46 43 44 46 46
52 52 53 52 52 53 57 56 57 53 47 36 48 61 57 63 62 63 60 56 54 51 45 38 36 33 45 34 39 38 45 49 45 41 44 44 44 44 43 43 43 44 48 47
51 52 53 51 52 52 58 57 57 58 53 39 41 56 59 61 61 60 59 56 52 44 38 34 35 37 39 35 38 34 48 45 35 34 46 44 41 42 43 41 43 46 47 46
50 50 51 52 52 52 57 51 55 55 56 42 38 52 52 56 57 57 53 53 50 47 40 36 42 50 41 33 31 46 52 53 51 45 44 43 41 41 44 46 47 49 48 46
49 50 50 50 51 53 50 48 51 49 53 40 35 41 47 52 54 49 49 49 47 46 40 37 39 41 42 34 33 45 50 49 47 45 43 38 39 40 48 48 50 50 49 46
49 49 50 49 48 50 51 51 52 50 48 43 34 36 37 50 39 37 44 39 43 44 40 39 37 39 35 34 42 47 51 47 45 44 46 45 45 47 48 49 47 45 43 42
49 49 52 52 49 47 49 49 49 52 48 34 35 33 32 46 40 38 39 42 34 40 34 36 39 34 35 40 44 46 45 44 43 47 50 49 47 47 46 46 44 41 39 39
49 51 47 37 43 48 50 48 42 39 38 37 36 39 36 43 35 34 36 35 34 33 35 39 33 34 40 44 47 46 44 47 47 44 43 44 43 42 43 43 41 39 38 37
47 40 36 43 48 46 39 35 35 35 35 36 39 38 38 42 34 34 35 33 33 32 34 34 32 32 38 43 43 44 46 48 49 49 48 47 44 42 39 39 37 35 34 34
44 43 44 42 38 35 36 34 33 34 34 34 34 35 38 35 40 34 33 33 33 30 36 32 30 34 40 42 42 45 47 48 48 48 44 43 43 40 37 35 34 34 32 27
42 38 35 35 32 33 33 33 32 32 33 34 33 33 34 34 35 33 33 32 31 34 32 28 30 41 43 43 44 43 44 40 40 43 43 42 41 39 34 33 33 28 31 32
34 33 30 32 30 31 30 32 32 33 33 33 33 32 33 32 33 32 31 31 32 29 25 23 34 41 44 45 44 42 40 34 37 37 37 35 34 31 29 27 28 24 28 31
33 33 29 30 31 32 32 33 33 33 34 34 33 33 33 32 31 32 30 28 27 29 28 31 35 39 39 39 40 38 35 28 31 35 32 28 27 28 31 31 31 32 28 27
33 33 30 32 32 32 32 32 32 34 33 34 33 32 32 30 30 28 29 28 26 29 32 35 37 38 38 38 37 36 38 36 35 35 35 34 29 27 33 33 30 29 28 27
33 31 34 33 32 32 32 33 32 35 33 31 32 29 27 30 28 27 31 29 31 33 33 35 36 37 37 37 37 33 35 36 35 35 35 35 35 30 29 30 34 33 32 28

GFSNW_sfc_temp_036.txt.gz
Temp
51 51 52 51 53 54 57 54 48 60 61 50 45 45 57 58 62 64 62 60 58 56 55 52 50 50 53 57 56 50 51 46 38 46 54 56 52 49 46 31 36 33 29 33
51 51 51 51 53 54 56 52 52 60 59 40 42 52 59 61 59 59 59 57 59 58 53 47 50 51 54 57 54 49 50 44 33 40 47 52 48 51 50 44 35 34 25 32
51 51 51 51 53 55 56 52 44 51 52 51 51 51 53 55 60 60 61 59 60 56 52 54 48 49 55 55 54 50 52 47 40 34 41 45 42 46 48 43 29 32 33 40
51 50 51 52 53 54 57 52 49 52 43 48 51 53 56 54 53 59 60 57 57 54 45 48 47 50 51 55 52 52 50 40 43 44 46 46 45 44 44 42 42 34 39 40
50 50 50 51 52 53 56 52 51 51 48 54 53 49 53 54 56 57 54 53 55 54 49 51 47 51 48 48 50 48 49 37 37 37 43 42 40 44 44 44 45 44 42 39
50 49 49 49 49 53 58 59 60 53 46 49 48 49 54 56 58 57 58 55 49 46 51 51 51 51 53 53 50 45 43 35 31 30 35 35 30 40 44 45 45 44 37 41
50 49 49 49 49 51 60 58 54 46 42 47 51 57 58 55 56 52 54 55 50 55 57 54 53 51 51 51 48 50 38 33 29 25 27 21 42 49 50 44 44 45 44 43
50 50 51 51 51 52 56 55 54 46 35 48 53 55 53 52 52 51 52 54 55 57 52 40 38 34 37 41 46 46 46 33 27 22 25 35 42 48 46 43 40 45 43 43
50 51 51 52 51 52 55 54 55 50 42 45 55 51 53 46 44 46 49 56 56 50 38 33 29 29 36 37 41 45 44 37 29 27 19 19 38 48 53 49 32 45 44 41
53 51 52 51 52 53 56 54 56 54 45 49 53 49 50 51 46 41 46 48 48 47 29 23 25 31 42 33 31 28 30 26 25 19 17 29 43 49 51 31 35 43 44 41
51 51 51 51 52 52 57 54 56 55 45 51 54 55 53 51 48 41 47 45 42 37 31 26 27 29 33 34 40 35 31 27 24 24 18 24 48 48 40 42 42 43 41 41
52 51 51 51 52 52 55 54 57 57 52 51 55 56 56 56 55 50 47 48 45 43 35 32 36 33 35 31 30 44 36 38 32 35 34 44 47 46 45 45 42 42 41 42
52 51 51 51 52 53 57 54 54 53 45 49 51 50 58 61 57 58 48 45 52 48 45 38 33 29 35 30 32 37 45 47 36 38 45 45 43 44 45 45 42 44 45 45
51 51 51 51 52 53 56 54 53 50 44 36 46 58 55 61 60 59 56 53 49 46 42 37 36 31 41 31 37 36 42 46 42 38 40 42 42 42 42 42 44 45 47 45
51 51 51 51 52 53 56 54 52 53 51 39 38 53 56 58 58 56 56 53 48 41 37 34 34 35 36 31 35 33 45 43 36 35 45 42 40 41 42 42 43 46 45 45
49 50 51 51 51 54 54 49 53 52 51 41 35 47 49 53 54 53 51 51 48 44 39 35 40 46 38 33 33 43 49 51 50 45 43 41 41 42 44 45 46 48 46 43
49 49 48 48 51 51 49 46 50 49 49 39 35 34 45 49 50 46 46 46 45 45 38 35 37 39 40 33 32 44 47 46 44 44 42 38 39 40 46 48 48 46 44 42
49 50 48 48 50 50 49 49 49 49 44 39 33 37 36 46 36 37 41 37 40 40 40 36 33 36 35 34 40 44 45 43 42 42 43 43 44 46 46 47 45 42 40 40
50 50 50 50 47 45 47 47 47 48 45 34 30 31 32 43 39 36 36 39 33 38 34 35 36 34 34 39 41 43 42 42 41 44 46 47 46 45 45 43 42 39 38 38
50 49 44 37 42 48 49 45 40 38 37 36 31 35 35 41 34 34 34 34 33 32 33 39 33 35 38 40 43 44 42 44 46 43 41 42 40 41 41 40 39 38 36 35
47 40 36 43 48 44 39 35 35 35 35 35 38 35 36 40 34 33 33 33 33 31 33 34 32 32 36 40 40 44 46 47 47 47 45 45 43 40 38 37 36 34 33 33
45 43 44 43 38 35 35 33 34 34 34 34 35 35 38 36 37 34 33 32 32 29 34 32 30 34 38 40 43 44 46 46 45 44 42 41 40 38 36 35 34 33 31 25
44 39 35 36 33 33 34 32 32 32 33 34 34 33 33 34 35 33 33 32 31 34 31 28 31 39 42 42 42 42 44 40 40 42 42 40 39 37 35 33 34 26 30 32
34 33 31 32 30 30 30 32 32 33 33 33 33 32 33 32 33 32 31 31 32 29 24 21 34 38 41 42 41 40 37 32 35 36 36 35 34 31 28 24 26 22 27 31
33 33 28 29 31 32 32 33 33 33 34 33 33 33 33 31 30 31 30 27 26 28 27 31 34 38 38 37 38 37 34 29 33 35 31 27 26 26 30 30 30 31 27 26
32 33 30 32 31 31 32 32 32 33 33 33 33 31 31 29 30 27 27 27 24 27 31 33 36 36 36 36 35 35 36 35 35 34 34 33 27 25 32 32 29 27 26 26
32 31 33 33 32 31 32 33 33 34 33 31 32 27 25 30 27 27 30 26 30 33 33 35 36 35 35 35 35 32 35 35 34 34 34 34 34 29 27 28 33 33 32 27

GFSNW_sfc_temp_039.txt.gz
Temp
52 51 51 52 52 54 56 52 48 59 59 48 43 45 53 56 58 62 59 57 55 52 52 48 47 48 50 54 53 48 48 44 37 43 51 52 48 46 44 30 34 31 28 32
51 51 51 51 53 54 55 50 50 58 58 40 41 50 55 57 57 57 56 54 56 55 50 45 48 48 52 54 51 48 48 41 32 40 46 50 46 47 45 40 34 33 24 31
51 51 51 51 53 54 55 50 43 50 50 48 48 49 51 52 57 57 58 56 57 53 49 50 46 47 52 52 52 50 51 43 39 34 39 43 40 44 44 41 29 32 33 37
51 51 50 51 53 53 55 50 47 50 42 46 48 51 53 51 51 57 57 54 54 52 44 45 44 47 49 52 51 50 48 39 41 41 42 43 43 43 43 41 39 34 37 38
50 50 50 52 52 53 54 50 48 48 45 50 50 46 50 52 53 54 52 52 51 51 48 49 45 48 46 46 48 45 46 36 37 36 40 40 38 42 42 41 41 40 38 36
50 49 50 49 51 54 53 53 53 51 44 45 45 45 52 53 55 53 54 53 48 45 48 49 49 49 50 50 47 43 41 35 32 29 33 34 29 38 43 43 43 43 35 41
49 49 49 49 50 52 57 54 52 44 39 44 48 52 54 53 54 51 52 53 49 53 54 52 52 49 48 48 45 47 36 31 27 24 27 22 41 45 47 43 42 42 41 42
50 51 51 50 49 50 57 54 52 45 34 46 50 51 49 50 49 48 49 51 52 54 49 39 39 34 37 40 43 42 43 31 27 23 25 34 41 44 42 41 40 43 41 41
50 51 51 52 52 52 56 54 52 49 43 44 52 49 50 45 43 45 47 52 52 49 36 32 29 30 36 35 38 43 41 35 29 25 19 19 38 45 50 47 33 44 43 41
52 51 50 51 52 53 56 54 54 52 44 47 50 48 48 48 45 40 45 46 46 46 28 23 25 31 40 32 31 27 30 24 24 16 18 30 41 47 49 32 34 43 44 43
51 51 51 51 51 54 57 53 54 54 45 49 52 53 50 49 46 41 46 44 41 34 31 26 27 24 32 33 38 33 31 26 23 25 18 25 45 45 38 41 40 43 41 41
51 51 51 51 51 53 55 54 55 55 51 50 54 53 54 53 54 48 45 47 44 42 34 29 28 30 34 29 28 40 32 37 32 34 33 43 45 43 42 44 41 41 41 41
50 51 51 51 52 54 56 53 52 51 45 48 50 49 56 59 55 56 47 43 49 45 42 38 31 27 33 29 30 34 42 44 35 37 43 42 45 42 43 43 41 42 43 43
50 50 51 51 53 53 54 52 50 48 43 36 45 55 53 58 57 56 55 51 47 44 40 36 32 28 38 30 35 36 41 43 39 37 41 40 42 42 42 41 42 44 45 46
50 50 51 52 53 54 55 52 50 50 50 38 37 50 54 54 55 54 53 51 46 40 36 33 34 34 34 30 34 32 43 41 35 34 43 42 42 42 41 40 42 44 45 44
50 49 50 51 52 53 53 48 51 50 49 41 35 45 47 51 51 50 49 49 45 41 38 35 37 43 37 34 34 41 46 47 47 44 42 41 39 40 42 43 45 47 44 42
48 48 49 50 51 51 48 46 48 49 48 39 35 34 44 46 47 44 45 45 43 43 39 35 36 38 39 34 33 43 46 46 43 42 41 38 38 39 44 46 46 45 43 42
49 48 49 50 50 50 48 48 47 47 43 39 34 33 35 44 36 37 40 37 39 39 39 36 32 36 35 34 39 42 42 41 40 40 43 43 43 43 44 45 43 40 39 38
50 49 50 50 47 45 47 48 47 46 45 34 29 33 32 41 38 36 36 38 33 37 34 35 35 33 34 38 40 40 40 40 40 42 43 44 44 43 43 43 41 39 37 36
49 49 44 38 43 48 48 44 39 37 37 37 33 35 34 40 34 34 31 34 29 33 30 39 33 35 37 39 40 42 41 42 42 40 38 39 38 38 39 40 39 37 36 35
45 40 37 44 48 43 38 35 34 35 35 35 35 35 36 39 34 33 32 29 32 30 29 31 28 32 35 38 38 40 43 45 45 44 43 41 38 38 37 36 35 35 34 34
44 43 43 40 36 35 35 32 34 34 34 34 35 35 38 35 36 33 33 31 32 29 34 32 29 34 38 41 41 42 42 41 41 41 40 40 39 38 36 36 34 34 32 25
44 39 36 35 33 33 34 33 32 32 33 34 34 33 33 34 35 33 33 32 30 33 31 30 31 37 40 40 41 41 41 39 38 40 40 39 38 36 35 34 34 27 31 32
34 34 33 32 31 30 31 32 32 32 33 33 33 32 33 32 33 32 31 32 32 29 27 24 34 37 39 40 39 38 35 31 34 35 36 34 33 30 27 25 24 22 27 31
32 33 28 28 31 32 32 32 33 33 34 33 33 33 33 32 31 31 30 27 25 24 22 30 32 38 37 36 36 35 33 28 31 34 30 27 26 26 29 29 29 30 25 25
32 32 30 32 31 31 32 32 32 33 33 33 33 31 29 28 29 26 25 24 20 22 31 33 35 36 36 35 34 34 36 35 34 34 34 32 26 24 32 31 29 26 25 25
32 31 33 32 32 32 32 32 32 34 33 31 31 27 25 29 26 25 27 22 26 30 31 34 35 34 34 34 36 33 34 34 34 34 34 33 34 27 27 28 34 32 32 27

GFSNW_sfc_temp_042.txt.gz
Temp
52 51 51 52 51 53 54 50 46 56 56 48 41 43 51 53 56 57 56 55 53 50 48 46 45 46 48 51 51 47 46 42 37 42 48 49 46 43 42 30 33 30 28 31
51 51 51 52 51 54 53 48 49 57 56 40 39 48 53 54 54 53 54 52 54 52 47 44 45 46 51 51 49 48 48 40 33 39 44 47 43 44 41 38 33 31 23 30
51 51 51 51 52 53 54 49 43 48 49 46 47 48 49 50 55 54 55 53 54 50 46 48 44 45 50 50 49 49 49 41 38 34 38 41 39 42 41 40 28 32 32 35
51 51 51 51 52 53 54 47 45 48 41 44 46 50 52 50 49 54 55 52 52 49 42 42 42 45 47 50 50 47 46 38 38 38 39 40 40 40 40 39 38 35 36 36
50 50 51 51 52 53 52 48 46 46 43 49 48 45 49 50 51 51 50 51 48 49 46 48 44 46 45 45 46 43 44 36 36 35 37 37 37 40 40 39 38 38 36 37
50 50 50 52 52 55 52 50 52 50 41 43 44 44 49 52 53 51 52 52 48 44 47 48 47 47 47 47 45 41 39 34 33 29 32 33 29 37 39 40 41 40 35 40
50 50 49 50 52 54 55 52 51 44 36 41 46 50 51 51 51 50 49 51 47 49 51 50 50 48 46 46 43 44 35 32 27 23 26 21 39 43 43 42 42 42 40 41
49 49 49 49 51 51 54 52 51 44 33 43 46 49 47 48 47 46 47 48 49 52 47 39 39 34 38 38 40 39 40 31 25 22 24 34 41 41 40 40 40 43 42 40
50 50 49 48 49 49 54 52 51 48 41 43 50 47 47 43 41 43 45 50 50 47 35 33 29 30 36 35 37 41 39 34 30 20 19 19 37 42 46 45 33 43 42 40
51 50 50 51 51 52 55 53 54 51 44 46 48 46 47 47 44 39 44 46 45 45 28 23 25 30 38 32 30 29 28 24 23 15 16 29 39 44 46 33 35 41 43 41
50 50 50 51 51 52 58 53 54 52 45 47 50 51 48 47 45 41 45 43 41 34 32 27 27 25 32 32 36 33 31 28 27 23 15 25 44 44 39 41 39 42 41 40
51 50 50 51 52 53 56 54 54 53 50 49 52 52 52 51 52 46 44 46 43 42 33 26 26 26 32 29 28 37 32 36 31 33 32 42 44 41 41 42 42 40 40 40
50 51 51 51 52 53 55 53 49 50 45 47 48 48 54 57 53 54 46 42 47 42 41 34 30 28 31 27 30 33 39 41 34 36 41 41 43 43 43 43 42 41 42 42
50 51 51 51 52 53 54 50 48 48 43 36 45 53 51 55 55 54 52 48 44 42 39 32 31 29 36 29 33 34 39 41 37 36 41 40 43 42 42 41 41 42 43 43
50 52 52 53 53 54 54 50 48 48 50 38 38 48 51 52 53 52 52 50 45 40 36 33 34 33 33 32 32 32 40 39 34 34 44 43 43 41 41 40 41 42 42 41
48 49 51 51 52 52 52 48 50 50 47 42 35 44 45 48 49 48 47 47 43 40 38 34 37 41 36 33 34 41 44 45 45 43 41 40 37 38 40 41 42 44 42 42
48 50 51 51 52 51 47 45 47 47 46 39 35 33 42 44 45 42 42 42 40 41 38 35 36 37 38 34 32 42 43 44 41 40 40 36 37 38 43 43 43 43 42 41
48 49 50 50 50 49 48 47 47 47 43 39 33 32 35 42 37 37 41 37 38 39 39 36 34 37 34 33 38 41 41 39 39 40 41 41 41 42 41 44 43 40 38 38
49 49 50 50 47 45 47 48 47 45 45 32 27 32 31 40 37 36 37 37 34 37 34 35 35 33 33 36 37 39 39 39 38 40 41 41 39 40 41 41 40 37 37 37
49 49 45 37 43 48 48 44 39 37 37 35 32 36 34 40 34 34 30 33 29 24 28 38 33 34 38 36 37 38 38 39 41 36 34 35 35 36 37 37 39 37 35 35
46 41 37 44 47 44 37 34 34 34 34 36 35 35 36 39 34 33 31 30 31 27 27 33 31 32 33 37 36 39 41 41 41 41 40 40 38 37 36 35 35 35 34 34
46 44 44 42 38 35 35 32 33 34 32 34 35 35 37 35 34 34 33 26 31 28 34 32 29 33 38 38 38 39 41 41 41 42 40 39 37 37 36 35 34 34 33 27
42 38 34 35 31 34 34 32 32 32 33 34 34 33 33 34 35 33 33 32 30 33 31 29 32 36 38 37 38 38 39 38 37 39 38 38 37 35 35 34 34 28 31 32
34 33 34 33 32 31 31 32 33 32 33 33 33 32 33 32 33 32 32 32 32 29 27 25 32 36 36 38 38 36 34 30 34 35 35 34 33 30 28 25 24 22 27 30
33 34 28 28 30 32 32 32 33 32 34 33 33 33 33 32 31 31 30 27 22 23 20 30 32 37 36 34 34 34 32 28 31 34 29 26 25 26 29 29 28 29 25 25
33 32 28 31 31 31 32 32 32 33 33 33 34 32 30 28 28 25 25 24 19 22 30 32 35 35 33 33 34 33 34 34 33 33 33 32 26 24 31 29 28 26 24 24
32 30 32 32 32 32 32 32 32 34 33 31 31 24 23 28 22 22 25 19 27 31 32 34 35 33 33 33 33 31 33 33 33 33 32 32 32 26 27 28 31 31 31 27

GFSNW_sfc_temp_045.txt.gz
Temp
54 54 53 52 52 51 52 50 47 57 56 50 45 45 51 54 57 59 58 57 55 53 52 50 50 50 53 54 57 54 53 48 44 49 55 56 54 51 49 41 39 37 38 44
54 53 52 52 51 53 53 49 50 56 56 42 42 50 54 57 56 56 57 55 56 55 50 47 50 50 54 55 55 52 52 46 40 45 52 54 51 50 47 44 41 38 36 44
53 52 52 51 51 53 55 51 45 50 50 48 49 49 51 53 56 56 57 55 56 52 49 50 47 49 53 54 54 49 52 46 45 42 46 48 46 47 47 47 39 40 41 46
52 52 51 51 51 52 52 50 47 50 43 46 48 53 52 52 51 57 57 54 54 51 45 47 46 50 51 54 50 51 52 45 45 43 43 46 47 46 45 45 45 43 45 45
51 51 51 51 51 52 52 47 47 47 46 49 50 48 50 52 53 54 54 52 52 54 49 51 46 50 49 50 51 49 48 42 43 41 41 42 43 46 45 45 45 46 44 45
51 51 51 51 51 54 52 51 52 52 42 45 46 46 50 52 54 52 53 54 51 49 52 52 50 50 50 51 49 45 44 41 39 36 37 39 36 43 46 45 46 48 43 52
51 50 51 50 52 54 56 53 52 44 38 43 46 50 52 52 54 51 51 53 52 52 54 53 54 51 48 48 45 47 40 37 34 34 31 31 47 48 48 47 47 48 47 48
50 50 50 50 52 53 55 53 53 45 34 44 47 49 48 49 48 48 49 50 51 53 51 44 42 39 40 41 43 43 44 37 30 33 33 40 46 45 45 44 47 50 50 46
50 49 49 50 52 51 55 53 52 50 41 42 51 48 49 45 44 46 46 51 53 49 40 38 35 36 42 40 42 44 42 40 38 30 32 30 44 48 51 52 41 50 49 45
49 49 49 49 51 50 55 53 54 53 45 48 50 48 48 49 46 42 46 49 49 49 36 33 34 38 43 38 35 32 34 32 33 25 32 37 46 50 52 39 43 46 49 47
50 49 49 49 51 51 56 53 54 53 46 48 52 53 49 48 48 44 47 47 45 39 36 34 35 35 38 39 41 38 37 33 30 27 29 32 48 50 44 49 48 48 47 47
50 50 50 51 53 53 55 52 55 54 50 50 53 54 54 54 55 49 46 50 46 46 39 34 33 33 33 35 36 41 38 42 38 39 40 48 49 49 49 49 48 48 47 47
50 50 51 52 53 53 54 54 51 52 47 49 50 50 55 56 53 56 48 45 49 46 45 38 36 35 36 34 35 39 43 44 41 41 47 45 47 49 49 49 48 49 48 48
50 50 51 53 52 53 54 52 50 50 45 37 46 54 51 54 54 55 54 49 45 44 44 36 34 35 39 36 41 40 44 44 42 41 45 45 48 47 48 47 47 46 47 47
51 51 51 52 52 53 53 51 49 50 52 39 41 50 51 52 53 52 52 50 47 43 38 34 36 36 37 36 38 36 44 43 39 39 47 48 48 45 45 45 45 46 45 43
51 52 52 52 52 51 54 51 51 48 48 44 36 46 46 49 50 48 47 48 45 43 40 35 39 42 39 34 35 45 47 47 48 47 47 46 43 43 45 45 45 45 44 42
50 50 50 50 50 50 48 47 48 47 47 40 35 36 44 45 46 44 44 44 42 43 40 37 39 40 41 34 36 43 44 45 44 44 45 45 43 42 45 44 44 44 43 41
50 50 50 50 50 49 48 47 47 47 44 41 34 34 38 43 38 38 42 39 41 40 39 37 36 38 36 35 40 42 44 43 42 42 43 43 43 44 43 43 42 39 39 38
49 49 49 50 47 46 48 48 47 46 46 35 32 34 34 42 37 37 39 38 34 38 35 37 39 34 34 36 37 39 41 41 39 41 42 43 40 40 40 40 39 37 38 40
49 49 46 38 44 48 48 45 41 38 36 36 32 36 35 41 36 34 34 34 33 32 35 39 34 34 37 37 38 38 39 42 41 37 35 37 37 37 37 38 40 40 39 38
46 41 38 44 47 45 38 34 34 34 33 36 35 38 36 39 36 33 34 32 32 30 33 34 33 33 34 37 37 40 42 42 41 41 40 40 39 38 38 37 38 38 38 37
46 44 44 42 39 36 35 33 34 34 33 35 35 35 38 35 36 35 33 30 33 30 36 33 30 33 36 38 39 40 41 41 41 42 40 40 39 39 38 38 37 37 35 30
46 40 37 38 35 34 29 29 32 32 34 34 34 34 35 35 37 33 34 32 31 35 32 31 32 35 37 37 39 38 39 39 39 40 40 39 38 37 36 34 35 30 34 35
35 35 33 32 32 33 33 32 33 32 33 34 34 33 34 33 35 33 33 32 33 30 28 29 31 34 36 38 38 38 36 32 35 36 37 34 33 33 29 27 27 27 31 33
33 34 30 30 31 32 32 32 33 33 34 34 34 33 35 32 32 32 31 29 27 28 26 31 34 35 36 36 35 36 34 30 33 36 32 28 27 29 31 32 32 31 27 27
33 31 30 32 31 31 32 32 32 33 33 34 34 32 31 29 30 28 28 27 24 27 32 32 34 34 36 35 35 35 35 35 35 35 34 32 29 28 31 31 30 28 29 27
32 30 32 32 32 32 32 32 32 34 33 31 32 28 27 30 26 25 28 26 28 32 32 32 33 33 34 35 35 33 34 34 34 33 32 31 31 28 28 27 29 29 29 27

GFSNW_sfc_temp_048.txt.gz
Temp
53 53 55 54 52 52 52 62 55 63 69 59 62 57 63 58 66 66 66 68 66 63 63 60 61 60 63 64 67 63 63 61 53 58 63 65 64 61 61 51 48 50 49 54
52 53 53 53 52 53 60 60 59 59 62 53 54 62 63 64 64 65 64 64 67 66 62 57 60 61 60 63 64 63 63 58 50 52 59 61 59 61 61 56 54 49 43 54
52 53 53 52 52 53 63 64 53 55 60 67 62 59 60 60 64 65 66 64 65 62 60 61 57 58 59 60 62 50 59 59 57 51 56 60 54 57 59 59 49 52 53 59
52 53 52 52 52 52 59 63 60 64 52 57 61 64 63 60 59 64 67 63 66 64 56 57 57 59 58 60 52 60 62 55 56 54 54 55 57 57 57 56 58 50 58 58
51 52 52 52 51 52 55 59 60 60 61 62 61 56 60 61 60 63 63 64 64 65 61 63 58 61 60 60 59 60 59 53 52 49 51 51 51 56 58 58 59 58 60 58
51 52 51 51 51 54 61 64 65 67 50 57 58 59 62 62 65 59 62 67 63 60 61 62 65 64 65 65 60 57 56 52 49 46 47 48 41 52 57 59 60 59 54 62
51 51 51 51 51 55 70 69 68 60 51 54 60 61 63 62 64 61 60 65 64 58 65 66 65 63 61 61 57 59 51 51 45 42 39 35 57 59 58 59 61 63 61 60
51 51 50 51 51 52 61 67 67 59 41 57 60 60 61 60 59 58 60 58 62 65 63 57 51 50 46 50 54 55 57 51 39 39 43 51 58 56 54 53 57 63 62 62
50 50 51 51 51 52 56 63 63 65 50 50 64 60 61 58 58 56 53 58 62 61 57 51 44 44 51 48 49 53 53 53 49 37 37 35 54 56 59 59 49 60 61 60
50 50 50 50 51 52 58 62 61 68 55 58 61 60 59 63 60 56 55 56 56 59 49 39 42 47 53 47 42 38 41 40 39 40 38 47 58 58 59 45 50 59 61 61
50 50 50 50 50 52 57 58 61 66 56 57 59 61 60 59 63 55 56 57 55 52 44 40 46 43 50 50 53 47 46 41 37 37 35 36 59 56 50 58 60 59 59 60
49 49 49 50 51 52 54 57 60 64 60 57 61 60 60 61 65 63 59 61 59 61 52 47 45 39 38 47 46 52 46 53 50 50 52 57 60 61 61 59 58 59 58 59
49 49 49 50 52 53 55 61 60 62 56 58 61 58 61 63 61 63 60 57 61 59 59 54 49 37 50 38 47 51 54 54 51 49 58 58 59 62 62 62 59 59 58 59
49 49 49 50 53 52 56 63 59 59 53 42 53 62 58 61 62 62 62 60 57 57 60 48 42 43 52 48 52 51 56 53 53 52 58 59 59 58 57 57 55 55 55 55
50 50 50 52 53 53 57 58 55 58 56 44 49 57 58 60 62 61 62 61 61 57 48 40 46 49 48 47 49 48 56 55 49 50 54 55 54 53 52 53 53 54 53 52
50 51 52 52 53 55 65 58 57 52 59 51 43 54 54 57 59 57 56 59 57 55 49 41 49 49 50 38 46 51 53 53 54 54 54 53 52 53 54 53 53 53 51 48
51 51 51 51 51 58 60 57 55 51 55 47 40 46 52 53 56 52 54 54 48 53 45 42 44 46 51 37 44 48 50 51 52 53 53 50 50 48 52 51 49 47 46 43
50 50 51 51 51 51 57 52 49 52 56 53 37 42 47 52 45 43 49 45 49 45 42 42 41 43 43 40 45 48 50 50 49 49 52 50 50 49 46 46 43 39 38 39
50 49 50 57 54 55 55 48 49 56 57 39 35 39 38 48 41 42 46 45 37 43 39 40 45 38 37 38 41 46 47 46 46 49 49 46 43 42 42 42 41 39 41 43
50 57 57 47 49 48 51 55 52 46 42 40 34 43 37 46 42 39 42 40 37 34 39 42 39 41 39 39 41 44 47 48 48 39 37 39 39 40 41 42 46 46 45 44
53 48 43 50 49 55 46 38 38 40 36 41 40 44 39 44 40 36 39 35 36 34 39 38 37 37 37 40 42 45 46 46 45 45 44 43 42 44 44 43 42 43 42 41
52 50 51 52 48 42 37 34 37 38 36 38 39 39 41 39 45 39 37 33 36 33 41 36 33 36 38 41 42 44 44 44 44 45 44 44 44 45 44 43 42 41 39 35
54 48 38 43 37 35 37 32 35 34 37 37 37 35 39 39 43 35 37 35 33 41 35 35 35 39 39 40 41 43 44 44 44 45 45 44 42 41 40 38 37 35 39 40
38 36 34 35 35 34 35 36 37 34 35 37 38 35 37 37 37 36 35 34 36 31 30 31 33 36 36 40 43 43 40 36 41 42 41 37 37 36 34 33 33 33 34 35
36 37 32 32 32 33 33 34 35 35 36 38 39 37 41 35 33 34 33 31 30 33 33 34 34 35 39 41 42 41 39 35 38 41 34 32 33 35 35 35 35 33 31 30
35 34 32 33 33 32 33 33 33 35 36 37 39 34 34 32 34 33 32 33 32 33 35 34 35 36 41 41 40 40 41 41 40 39 38 35 32 32 34 34 32 30 30 28
34 32 33 34 33 32 32 33 33 35 35 33 35 33 31 34 32 30 34 32 34 34 33 34 37 39 40 41 39 35 38 39 38 37 35 34 34 32 31 30 32 32 32 29

GFSNW_sfc_temp_051.txt.gz
Temp
54 53 54 54 53 53 54 61 54 69 72 58 60 58 66 66 72 73 69 70 69 67 68 64 65 65 70 74 74 67 71 66 58 62 70 72 70 66 65 53 52 55 52 56
53 53 53 53 52 54 63 57 61 63 69 53 55 64 66 71 69 70 68 67 72 72 67 61 66 67 66 71 70 68 69 62 53 56 63 67 63 67 67 65 59 53 46 55
53 53 53 53 52 55 67 63 51 52 59 66 62 60 63 63 71 70 72 71 73 68 65 70 64 65 64 66 70 53 62 64 59 52 59 66 59 64 66 63 51 53 57 62
53 53 53 52 52 55 63 62 61 61 52 60 59 65 65 63 63 69 71 68 68 67 61 64 63 67 63 64 55 65 67 58 63 64 63 63 63 63 64 60 61 54 60 63
52 52 52 52 52 54 58 59 64 66 63 64 61 58 62 64 67 68 65 65 69 71 65 66 63 67 65 63 65 65 67 57 59 54 61 60 58 63 63 64 64 65 65 64
52 51 51 51 52 55 56 66 70 65 58 61 61 62 65 66 70 67 70 71 70 67 68 71 72 74 73 72 65 63 62 58 53 48 55 55 44 56 62 64 67 65 58 67
51 51 50 51 51 56 67 69 67 59 54 62 62 65 67 67 70 65 69 72 70 67 73 73 72 70 68 68 65 68 59 57 52 46 41 34 61 66 65 62 66 70 69 69
51 50 50 50 51 53 65 65 65 64 46 64 64 66 66 69 67 67 66 64 71 73 71 61 54 53 51 57 62 62 64 57 45 38 46 55 60 64 60 58 60 69 67 69
51 50 50 50 51 52 56 59 68 63 58 59 69 67 68 64 63 60 58 67 71 67 65 56 49 48 55 53 55 61 60 60 52 43 37 34 57 62 65 64 52 67 67 65
50 50 50 50 51 51 56 60 67 65 64 70 69 64 65 71 67 62 59 60 60 64 54 39 44 50 60 50 46 40 45 45 42 44 38 50 64 64 64 48 52 65 67 67
49 50 50 50 51 51 56 59 68 64 65 66 66 71 68 70 70 58 62 60 60 58 48 42 51 47 55 55 60 50 48 44 38 44 34 36 65 62 53 60 65 65 65 66
50 50 50 50 50 51 54 56 67 72 69 63 67 65 66 69 72 72 64 67 64 65 59 53 53 42 42 53 48 62 51 58 54 54 53 63 67 65 66 65 63 64 63 65
49 49 50 50 50 51 56 61 69 72 62 62 64 62 65 69 68 69 65 66 71 67 68 61 56 41 56 40 52 58 61 62 55 54 63 64 65 67 67 67 64 65 64 63
49 49 49 50 51 53 55 62 66 65 58 48 54 67 62 67 69 69 69 70 67 67 67 52 45 44 61 54 59 58 62 60 58 57 63 65 63 62 61 62 61 60 60 61
49 49 49 50 51 53 58 59 60 64 65 48 51 61 63 67 68 67 68 67 65 63 53 43 50 58 55 56 57 54 63 60 53 51 58 58 57 57 58 58 58 59 58 57
49 49 49 51 52 54 59 55 60 64 69 54 45 58 58 63 66 66 66 67 66 64 52 49 57 56 57 42 50 58 59 59 59 58 58 58 56 58 60 57 57 56 54 53
48 49 50 52 53 62 57 59 60 57 65 49 41 46 57 59 63 60 62 61 56 60 51 46 53 54 58 41 47 55 55 57 57 58 58 53 56 52 56 54 53 51 51 48
50 51 52 52 51 51 55 56 52 54 58 51 38 43 47 58 51 47 58 51 56 49 46 47 46 50 47 45 52 54 55 55 55 55 57 56 54 53 50 49 46 42 41 42
51 51 52 60 59 60 56 48 51 60 58 39 37 40 38 54 47 49 49 50 39 50 41 45 49 41 40 43 46 49 51 50 52 55 54 52 48 46 45 45 43 43 44 48
49 61 63 52 54 49 51 55 53 50 49 44 38 47 41 50 45 41 44 42 39 36 42 51 42 43 44 46 46 49 51 53 53 46 42 43 42 44 45 47 49 49 48 47
61 53 46 54 50 56 49 40 43 46 39 45 45 50 43 48 42 37 41 37 38 34 41 41 40 39 40 45 46 50 52 51 48 47 46 47 45 46 47 46 45 44 44 41
54 55 55 56 51 44 40 35 39 40 38 40 39 42 44 42 49 41 38 35 38 34 46 39 36 36 43 44 44 46 47 47 46 46 47 49 49 48 46 44 42 40 41 36
59 51 41 45 38 36 35 33 36 35 38 38 39 36 41 41 45 37 38 34 35 44 35 36 38 41 43 44 44 46 48 48 48 48 48 46 42 42 41 38 39 38 40 40
40 37 35 36 34 35 36 38 37 36 37 39 40 37 39 40 37 38 33 35 40 33 32 33 37 39 41 44 46 47 44 39 43 43 42 40 38 36 34 33 34 33 34 35
37 37 33 33 33 34 34 35 36 36 40 41 39 39 41 37 35 37 34 32 32 35 35 35 36 37 40 43 45 43 40 37 40 41 35 33 35 37 37 36 36 34 31 30
35 35 33 33 33 32 33 33 33 38 40 45 44 37 36 34 36 35 34 34 33 33 36 36 36 38 42 45 44 44 45 43 42 41 38 35 33 34 36 36 34 31 31 29
33 32 33 34 33 32 32 34 34 37 38 34 38 35 33 38 34 32 38 33 34 35 34 35 38 40 43 44 42 37 40 42 41 40 39 37 36 35 34 33 35 34 34 30

GFSNW_sfc_temp_054.txt.gz
Temp
54 54 54 54 54 53 52 57 50 67 68 52 56 52 60 62 68 75 71 70 69 67 67 65 64 63 69 75 75 66 71 65 56 61 72 73 69 64 64 49 50 54 48 51
53 54 54 54 53 53 52 54 57 64 65 49 51 58 61 66 67 70 69 66 70 72 66 62 66 68 70 74 71 67 70 61 49 55 64 68 63 66 66 64 60 50 42 51
53 54 53 53 53 53 55 58 48 51 55 63 57 55 58 60 70 70 72 70 72 69 65 70 64 66 66 69 71 55 64 63 57 49 57 64 59 62 66 63 47 50 51 58
53 53 53 53 53 53 52 58 57 59 45 52 58 61 61 60 61 70 72 68 68 67 60 63 63 68 63 66 56 65 66 56 61 63 65 65 62 62 64 61 61 51 56 59
53 53 53 53 52 53 50 56 60 61 58 58 56 56 59 61 65 66 64 64 69 69 63 65 62 67 64 62 64 64 67 55 58 55 62 62 57 62 62 63 63 63 63 62
52 52 52 52 52 52 50 63 68 61 54 56 55 56 60 62 68 69 71 70 68 65 69 72 71 74 73 71 64 61 62 56 52 45 55 53 42 55 59 62 65 64 56 64
52 52 52 52 52 52 58 64 64 54 52 56 57 61 64 63 67 65 71 72 68 71 76 74 72 71 70 71 69 69 61 57 50 43 40 34 57 68 67 62 64 67 67 69
51 51 51 51 51 52 54 62 59 57 43 61 60 62 62 65 68 66 69 68 72 74 70 58 52 52 49 56 65 64 66 55 44 35 42 52 58 64 61 59 58 67 64 66
51 51 51 51 50 51 53 55 55 57 53 57 66 63 65 61 62 61 58 68 73 72 64 53 47 45 54 53 55 63 63 61 47 41 35 33 56 63 67 66 48 66 66 64
50 50 50 50 50 50 51 54 57 55 50 65 67 62 62 70 63 60 61 59 60 65 49 37 40 48 62 50 46 38 44 43 39 41 36 46 64 65 66 46 49 64 65 65
50 50 49 49 49 50 50 53 55 52 56 68 72 73 68 69 66 56 62 59 61 57 44 39 48 45 55 54 59 47 43 42 36 43 34 34 66 62 53 59 64 64 65 64
50 50 49 49 50 51 51 50 57 59 55 60 68 65 66 66 65 68 62 65 62 62 55 50 51 40 41 50 46 64 49 56 50 49 47 62 67 64 65 66 63 64 62 64
50 50 49 50 50 51 50 52 56 59 59 62 65 62 66 69 68 69 62 66 71 67 70 59 54 40 54 39 50 58 62 64 55 54 63 64 65 66 65 65 62 62 62 61
49 49 49 50 50 51 50 51 56 58 59 47 55 68 64 68 70 71 70 71 68 67 64 52 43 42 63 52 59 57 61 61 58 58 63 65 60 59 60 61 61 61 61 61
49 49 49 50 50 50 51 53 57 59 55 48 51 62 65 69 69 67 69 68 65 61 50 39 50 58 55 57 57 54 64 60 52 50 57 57 55 57 59 58 58 59 57 54
49 49 50 49 50 50 52 50 62 64 62 54 44 58 60 66 68 66 66 67 67 63 51 51 56 59 56 41 48 60 61 62 60 57 59 57 56 58 59 55 54 54 52 51
48 49 49 49 50 53 52 50 54 52 64 50 40 44 55 62 63 61 61 62 57 59 53 49 53 54 54 40 46 56 58 59 58 59 58 53 56 50 53 52 51 49 48 47
48 49 49 50 50 50 51 52 52 53 57 52 37 39 45 57 49 48 55 52 54 49 46 48 47 49 48 44 53 55 56 56 56 56 57 54 53 51 48 48 47 44 43 43
49 50 50 53 53 51 50 49 50 58 56 39 36 36 37 54 47 46 47 50 38 48 40 44 49 41 39 48 51 53 52 51 53 55 54 52 48 46 45 45 45 44 45 48
50 55 53 42 48 49 49 52 52 48 48 45 40 44 40 48 44 41 42 42 39 36 41 50 42 40 47 48 50 51 53 54 53 47 43 44 43 44 45 47 48 47 45 43
58 50 42 49 48 51 47 40 39 42 37 45 47 46 41 48 40 37 40 37 38 35 41 41 39 38 41 48 48 52 52 50 50 50 48 48 47 46 45 44 43 41 39 36
55 56 57 55 51 43 38 35 38 39 39 41 41 42 44 42 49 39 37 35 37 34 44 36 36 36 44 45 45 47 47 47 46 46 46 48 48 47 44 41 39 37 36 32
57 48 39 44 37 35 34 32 36 35 37 39 39 37 40 42 44 37 36 34 35 44 35 37 37 41 44 44 46 46 47 47 46 47 46 44 42 40 37 35 35 36 35 33
40 37 34 35 34 35 35 35 36 35 36 39 39 38 39 39 35 36 33 36 39 33 32 34 37 41 42 45 46 45 43 39 42 42 39 36 35 33 33 31 30 29 31 31
36 37 32 32 33 34 34 34 35 35 40 40 39 39 40 36 34 36 34 32 32 36 35 35 38 41 43 43 44 42 38 36 38 38 34 33 34 34 33 33 33 31 27 26
35 34 33 33 33 33 33 33 33 36 37 42 43 36 33 34 36 34 32 34 34 34 35 36 39 40 42 43 41 41 42 40 39 37 35 34 32 32 34 33 32 27 26 24
33 32 33 33 33 32 32 33 34 37 38 34 38 34 32 38 33 32 34 32 33 34 34 36 39 39 42 43 41 38 39 40 39 37 37 35 35 34 34 32 33 34 32 25

GFSNW_sfc_temp_060.txt.gz
Temp
51 52 52 53 54 54 51 48 42 56 60 44 40 43 50 52 56 60 57 56 55 54 54 52 52 53 58 61 61 56 55 48 41 50 57 58 54 52 50 36 40 38 33 39
51 51 52 51 54 54 48 45 47 55 57 38 39 46 50 53 54 55 55 55 58 59 54 48 53 54 58 60 61 55 55 46 37 43 51 55 50 54 54 48 41 39 29 37
50 51 51 51 53 54 50 46 40 46 50 50 45 43 45 46 56 54 56 56 57 55 52 56 52 52 58 57 58 54 56 49 44 37 45 50 47 52 53 48 33 38 38 45
50 51 51 52 53 53 50 46 46 49 41 42 48 47 47 46 47 55 58 55 55 52 49 50 51 53 54 57 54 56 54 46 49 51 52 52 50 51 51 49 47 40 45 46
50 50 51 51 52 53 46 44 46 50 44 49 45 46 45 46 50 53 53 52 56 55 52 53 50 53 52 52 53 52 54 45 45 43 48 49 46 50 50 50 50 49 49 48
50 50 50 50 48 52 45 48 51 48 48 46 43 44 47 49 54 56 59 57 55 52 56 59 58 60 59 58 53 49 49 45 37 36 42 43 35 45 49 51 51 51 44 50
49 50 50 50 49 49 49 50 50 46 41 46 45 49 51 51 54 52 58 60 56 60 61 59 57 55 55 55 52 54 45 42 36 31 32 26 46 54 54 50 50 51 51 50
50 50 50 49 49 46 51 52 47 46 37 48 48 49 50 54 56 54 57 60 61 62 56 47 44 40 42 46 52 52 52 40 33 30 30 39 48 52 51 48 44 50 50 51
49 50 49 48 48 46 52 51 49 47 43 45 54 49 52 49 50 49 52 56 56 56 47 40 36 34 42 42 47 51 49 43 37 31 27 25 42 52 56 53 36 50 52 50
49 49 48 47 48 47 50 48 49 45 43 50 55 49 50 56 52 47 49 52 50 52 36 34 33 35 48 37 37 35 32 32 30 24 24 33 48 54 54 38 39 51 51 50
49 49 48 48 48 50 50 47 50 45 45 47 54 57 53 56 56 44 48 47 46 43 37 35 36 32 41 38 45 39 38 32 28 29 22 29 52 52 45 46 48 49 49 48
48 49 48 49 50 52 52 44 49 50 45 45 51 54 55 61 64 55 49 52 48 48 41 38 38 35 33 37 33 46 37 42 36 38 36 48 50 51 50 52 49 48 49 50
49 49 49 50 51 52 51 46 48 47 45 46 49 50 57 61 60 60 49 49 54 50 50 45 42 37 38 33 33 41 47 50 42 43 47 46 48 50 51 50 48 48 50 51
48 49 49 50 51 51 51 45 48 49 47 39 47 58 55 61 60 60 60 57 54 51 47 39 37 36 45 36 45 42 46 50 46 41 45 47 48 48 48 46 46 45 45 48
49 49 49 49 50 50 49 48 49 49 46 40 45 52 56 58 57 57 59 57 53 47 40 35 39 42 43 41 42 41 48 47 40 37 48 45 44 45 47 44 43 43 42 40
48 49 49 49 49 50 48 40 47 50 50 41 37 48 51 53 55 54 52 52 51 49 43 40 44 48 41 34 32 46 48 49 50 46 46 45 44 45 46 43 42 42 41 41
48 49 49 49 49 49 44 42 49 51 50 42 37 39 49 52 51 48 48 48 46 47 45 41 42 43 41 32 33 46 47 48 47 48 46 41 43 38 42 42 42 42 41 40
48 48 49 49 49 50 46 50 50 52 48 46 35 38 42 49 42 41 44 41 42 43 42 41 37 41 36 33 43 46 46 48 47 45 46 43 42 41 40 41 41 38 36 36
48 49 48 48 46 45 46 50 49 49 47 35 34 36 35 46 41 41 41 39 35 39 36 37 40 34 32 39 43 44 46 44 41 43 43 42 39 38 39 39 38 35 34 35
48 47 44 39 46 51 52 49 44 40 39 38 35 39 37 42 36 35 36 35 34 34 34 42 32 33 40 41 44 45 45 44 43 38 35 36 36 37 37 37 37 36 33 32
45 42 39 46 49 48 42 36 35 35 32 36 39 38 38 43 36 34 34 33 33 32 35 34 33 33 38 42 43 46 46 45 44 44 42 41 40 36 34 33 33 32 31 30
48 47 48 46 43 36 36 32 33 33 32 36 37 37 37 37 41 35 34 33 32 30 37 34 31 35 41 42 42 44 46 45 44 44 41 40 40 38 34 32 30 29 28 26
48 43 40 38 34 32 29 28 31 32 34 36 35 34 35 36 38 34 33 32 31 32 30 30 31 39 41 41 42 42 43 42 42 41 40 38 36 35 32 28 28 28 27 27
37 36 32 33 32 31 31 32 33 33 34 35 36 34 34 33 34 33 32 32 33 23 20 27 34 38 39 41 41 38 36 35 35 34 34 32 31 29 28 28 27 26 26 25
33 33 29 29 31 32 32 33 33 34 35 35 34 34 35 33 33 32 30 31 28 27 27 32 36 38 39 38 36 34 33 32 32 32 30 28 28 28 28 28 28 26 22 20
33 31 32 32 33 32 32 32 33 35 34 35 35 34 33 31 32 31 29 28 26 30 32 35 38 37 37 36 35 35 35 33 31 31 30 29 28 27 28 27 25 21 20 17
32 29 32 32 32 30 31 32 32 35 33 32 29 32 30 32 30 28 30 27 29 32 33 36 37 36 35 35 34 33 33 32 32 31 31 30 30 28 26 25 26 27 24 18

GFSNW_sfc_temp_063.txt.gz
Temp
52 52 51 52 53 52 51 45 37 53 56 43 44 40 47 51 54 57 54 53 51 50 51 49 49 50 55 59 57 53 52 46 40 48 54 56 53 50 47 35 38 35 33 37
51 51 51 51 52 51 47 41 44 53 55 38 40 45 47 51 53 52 52 51 54 53 50 46 51 51 58 59 56 52 53 43 36 42 49 52 49 50 49 45 39 35 29 36
51 51 51 51 52 52 47 42 37 45 48 51 47 43 43 44 54 51 53 51 53 51 49 53 49 51 55 56 58 52 54 46 44 37 44 49 45 49 49 46 33 37 36 43
51 51 51 52 52 52 46 42 42 46 38 41 46 47 45 43 45 51 53 49 49 48 44 47 49 52 52 54 51 53 52 44 45 47 49 49 49 49 47 45 45 39 44 43
51 51 51 51 52 52 41 38 42 47 42 47 45 46 44 43 47 48 47 47 52 52 48 51 49 52 49 50 51 50 51 43 43 40 45 46 44 49 48 47 47 46 46 45
50 50 50 51 51 51 40 45 48 46 45 44 43 44 45 45 50 51 54 52 51 49 53 56 58 57 56 56 52 48 47 42 36 36 40 40 34 42 47 48 49 48 42 49
50 50 50 50 51 49 46 48 47 43 39 42 44 46 48 47 49 48 53 54 51 56 59 57 55 53 53 53 50 52 44 40 34 30 32 25 45 50 50 47 47 48 47 46
50 49 50 50 49 49 45 50 46 44 34 45 47 46 47 49 51 50 53 54 60 59 55 46 43 38 41 45 49 49 48 38 31 30 30 38 46 49 47 46 45 47 47 47
49 49 49 50 50 50 45 47 49 45 41 44 50 46 48 44 45 47 51 56 57 55 46 39 36 34 41 40 44 48 46 41 36 27 26 26 42 49 53 51 37 50 49 47
49 49 49 49 50 49 46 47 49 46 41 45 51 46 45 52 50 46 47 49 49 51 35 32 32 35 46 37 36 35 32 31 30 24 24 34 46 52 52 37 39 49 50 48
49 49 49 49 49 49 46 45 49 45 42 44 49 52 49 51 53 44 46 48 45 40 36 35 34 31 40 39 43 39 38 32 27 26 22 30 50 49 44 45 45 48 47 46
49 49 49 49 49 48 47 42 49 49 43 44 50 51 52 52 60 54 47 49 47 47 40 36 37 34 33 36 33 44 38 41 36 38 37 47 49 49 48 49 47 47 47 45
48 48 48 48 48 49 47 45 48 45 41 41 44 46 53 56 56 60 48 48 53 49 49 43 40 38 38 35 35 40 45 47 40 42 45 45 46 47 48 48 48 48 47 46
48 48 48 48 48 48 46 46 47 45 43 38 45 55 52 58 57 57 58 55 51 49 47 40 37 36 46 39 46 41 45 47 42 39 42 45 47 45 44 43 44 44 45 45
48 48 48 48 48 49 48 48 48 49 43 38 42 50 54 55 55 57 56 55 50 45 41 35 38 42 42 39 42 40 47 45 40 39 45 45 45 44 44 43 42 42 41 39
48 49 49 49 49 50 47 41 46 49 48 41 35 48 50 53 53 53 53 51 49 47 43 40 42 46 40 34 34 47 47 49 49 48 48 43 43 43 44 41 40 41 40 40
49 49 49 49 50 47 44 38 43 49 49 40 35 38 49 51 50 47 47 48 47 46 44 41 42 42 40 31 32 45 45 45 44 44 44 39 41 38 41 41 40 40 39 39
48 49 49 49 50 50 44 49 49 50 45 44 34 36 41 49 42 42 44 41 42 43 41 40 38 41 35 36 43 44 44 44 43 42 44 42 40 40 39 40 39 36 35 35
49 49 49 46 45 40 44 49 50 50 47 35 33 35 35 46 41 42 39 40 35 40 35 35 39 34 36 42 44 44 44 43 40 41 41 41 38 37 37 37 36 34 33 34
49 47 42 37 44 49 49 46 41 40 39 37 34 39 37 42 36 35 35 35 34 33 36 39 30 33 40 41 44 44 43 43 42 37 35 36 35 35 36 35 36 35 33 32
41 39 37 47 50 47 41 34 32 34 33 36 39 40 38 42 35 34 34 33 33 33 35 36 33 33 36 40 41 43 44 44 43 43 42 41 39 36 34 33 32 32 31 29
44 45 47 46 42 37 34 32 32 32 32 36 36 36 39 36 38 35 33 32 32 32 37 34 32 33 37 39 40 41 42 42 41 42 40 39 38 37 34 32 31 29 29 26
47 43 37 38 33 32 32 30 30 31 33 35 35 34 34 35 34 33 33 32 30 34 33 32 33 38 39 40 41 42 43 41 40 39 38 36 34 33 32 29 29 28 27 27
37 35 32 32 31 31 31 32 33 33 33 35 35 33 33 31 33 32 31 32 33 27 24 25 33 37 38 39 40 39 36 35 35 33 33 31 30 29 28 28 27 25 26 25
33 34 28 29 31 32 32 33 33 33 35 34 33 33 33 33 32 31 32 30 29 27 23 31 35 37 36 35 35 33 32 32 31 32 29 28 28 28 27 27 28 25 22 20
32 30 31 32 32 32 32 33 33 34 34 33 33 32 33 31 31 29 24 27 26 27 32 34 37 36 35 34 34 33 33 32 31 30 29 29 27 26 27 27 24 21 21 19
31 29 32 31 32 30 31 32 33 35 33 32 26 30 30 32 29 28 30 27 29 31 33 34 35 34 33 33 31 30 30 29 29 28 29 29 28 27 26 24 25 26 23 20

GFSNW_sfc_temp_066.txt.gz
Temp
52 52 52 52 52 52 50 43 35 49 54 41 44 41 44 49 52 56 53 50 49 48 49 46 46 48 53 56 54 50 50 45 38 46 50 52 49 47 45 35 36 34 31 34
51 52 52 52 52 52 45 39 41 52 52 35 39 46 47 48 50 50 50 48 51 50 47 43 47 49 55 55 54 50 51 42 35 41 46 48 46 48 47 42 37 35 28 35
51 51 51 51 52 52 46 40 34 43 45 48 43 43 43 43 51 49 51 49 50 48 47 50 46 48 53 54 55 51 54 44 42 38 42 46 41 46 46 45 32 36 35 41
51 51 51 52 52 52 44 40 38 45 36 38 42 45 45 43 43 50 50 47 48 48 43 45 46 50 50 52 51 50 51 43 43 44 46 47 47 47 45 43 42 38 42 41
50 51 51 51 51 52 41 34 39 44 39 45 41 44 43 43 45 46 45 44 48 48 45 48 46 50 48 50 49 48 48 42 42 39 42 44 41 46 45 46 45 43 43 43
50 50 50 50 51 50 39 40 41 39 43 43 39 39 44 44 47 49 50 50 49 47 50 56 57 55 54 51 48 46 45 41 36 36 39 39 35 41 46 46 46 46 40 46
50 50 50 50 50 50 39 41 42 38 37 41 42 43 46 46 47 44 51 51 49 52 58 57 55 50 50 51 47 49 42 40 35 32 32 25 44 46 47 45 46 47 46 46
50 49 50 50 50 51 43 46 41 41 35 43 44 44 46 49 49 47 50 53 55 57 55 46 42 38 39 41 46 45 47 38 32 32 30 38 43 46 45 44 44 47 45 45
49 49 50 50 50 51 45 45 46 43 39 39 48 46 47 43 42 42 45 54 54 53 45 39 36 33 39 39 42 46 44 41 36 27 26 26 40 46 50 49 38 48 47 45
49 49 50 50 50 51 45 43 45 41 37 45 50 44 43 49 44 38 44 49 47 51 30 28 33 37 43 35 36 36 33 31 30 23 25 34 45 49 50 37 38 46 48 46
48 49 49 49 50 50 46 43 46 42 40 43 47 48 47 49 48 39 43 46 44 37 35 31 32 30 38 37 42 39 39 33 27 26 24 31 49 47 43 45 43 46 47 46
48 49 49 49 49 49 49 41 47 49 44 43 48 48 49 54 54 50 48 47 45 45 39 34 35 33 33 38 34 43 39 43 38 39 38 47 47 48 48 48 47 47 47 44
48 48 49 49 49 50 48 43 45 46 41 42 43 43 50 51 51 55 46 44 49 46 48 41 40 36 39 34 35 39 44 46 40 41 45 45 46 46 46 47 47 46 45 44
48 48 48 49 49 49 47 42 46 45 42 35 43 54 50 54 54 53 53 52 49 47 45 38 37 36 45 38 44 41 44 47 41 39 43 44 46 45 45 43 44 44 43 43
48 48 48 48 49 48 46 46 47 48 43 36 39 48 51 52 52 52 54 52 47 43 39 34 38 41 42 39 41 38 45 44 40 40 49 48 46 44 43 43 42 43 41 39
47 48 48 48 48 48 45 40 47 49 47 39 33 47 49 53 52 50 50 53 47 45 41 37 42 45 42 34 33 47 49 48 49 50 48 42 42 41 42 40 39 40 40 39
47 48 48 48 48 46 41 39 43 49 48 39 33 36 47 50 50 47 46 45 44 45 42 37 41 41 40 30 32 45 43 44 45 44 45 40 41 39 40 39 39 39 38 38
47 48 48 48 49 48 43 47 49 48 45 42 32 36 41 48 43 41 43 40 41 41 41 39 36 40 36 35 43 42 42 43 41 40 42 41 39 38 36 37 37 34 33 34
48 48 48 47 44 39 42 48 49 49 45 34 33 34 34 45 41 41 40 40 35 40 36 36 40 34 34 42 43 42 43 43 39 40 41 40 36 35 36 37 35 33 32 34
48 46 41 34 39 48 49 45 41 41 41 37 34 39 36 41 36 35 36 35 34 34 36 41 34 35 40 41 43 44 44 42 41 36 34 34 34 35 35 35 36 34 33 32
40 38 37 42 49 45 40 33 33 34 33 36 36 39 37 41 35 33 34 33 32 32 34 35 33 34 37 41 41 42 43 42 43 42 40 40 38 36 33 32 32 33 32 31
41 43 47 44 42 35 32 32 31 32 32 35 36 37 39 36 39 34 33 33 32 31 37 34 32 34 36 37 37 38 39 39 39 40 38 38 37 36 34 32 30 29 29 27
45 42 39 36 33 31 30 29 27 31 33 35 35 34 35 35 36 33 33 32 30 34 33 32 32 37 39 38 38 39 41 39 39 38 37 35 33 33 30 27 28 29 28 27
36 34 31 32 31 32 32 32 33 33 33 34 34 33 34 33 33 33 32 32 33 29 27 27 30 36 37 39 39 38 35 34 33 32 32 30 29 27 27 27 27 26 26 25
32 32 28 29 31 32 32 32 33 33 34 34 33 33 34 32 32 31 32 30 26 24 22 30 33 35 35 34 34 33 32 31 30 29 27 26 27 26 26 26 26 25 22 21
32 31 31 32 32 31 32 32 32 34 33 33 34 32 32 30 30 26 25 21 18 28 31 33 34 33 33 32 32 31 31 30 29 28 28 27 26 25 25 25 23 21 21 19
31 29 31 31 31 30 31 32 31 34 34 31 28 30 29 32 29 28 29 26 29 31 31 32 33 31 30 30 30 30 30 29 28 27 26 25 26 25 24 23 25 25 23 20

GFSNW_sfc_temp_069.txt.gz
Temp
52 52 52 52 52 52 49 42 33 50 54 38 41 38 45 50 52 56 53 53 50 49 50 47 48 50 55 57 57 54 56 50 44 51 57 58 56 54 52 44 42 41 42 44
52 52 52 52 51 52 44 38 38 49 51 33 37 43 45 50 49 51 50 49 52 53 50 46 49 51 57 56 57 54 54 47 43 47 52 55 53 53 51 48 45 42 39 46
52 52 52 51 51 52 46 38 32 40 43 46 42 40 42 43 51 50 53 51 53 51 49 51 49 50 55 54 57 51 56 48 47 44 49 52 47 50 51 51 42 45 45 51
52 51 51 51 51 51 45 39 36 41 33 36 40 43 44 42 43 50 51 47 49 49 46 48 48 52 53 55 51 55 56 48 48 50 51 52 52 51 49 49 51 46 51 47
51 51 51 50 51 51 42 35 36 42 41 42 39 42 41 42 46 47 46 45 49 51 47 50 47 52 51 51 52 51 52 48 47 46 47 50 48 51 50 49 50 51 50 49
51 51 50 50 50 50 40 42 42 40 41 40 37 38 42 44 49 49 52 50 49 46 51 55 54 56 56 56 54 49 48 45 43 42 44 46 39 46 50 51 52 53 47 56
50 50 49 50 50 50 44 44 42 37 35 39 39 41 44 44 47 45 50 52 49 54 60 58 57 54 52 52 51 53 46 45 41 37 37 32 51 53 54 52 53 53 53 54
50 50 49 49 50 51 46 45 41 39 34 42 42 43 42 46 49 47 49 52 55 57 55 45 41 42 44 46 48 49 51 43 37 36 38 43 49 50 51 49 54 55 54 55
50 49 49 49 50 51 48 44 45 42 38 39 47 44 44 41 44 43 47 53 56 55 47 40 35 35 42 42 43 47 46 45 43 33 35 33 47 53 55 56 45 57 55 53
49 49 49 49 50 51 48 41 46 42 38 42 44 43 43 48 46 42 44 49 49 53 36 33 34 37 48 40 37 37 37 36 38 33 35 40 49 53 55 44 49 56 55 54
49 49 49 49 50 51 48 43 45 43 37 42 44 46 46 49 49 41 43 46 46 41 37 34 36 35 42 41 45 41 41 37 35 34 33 37 52 52 48 54 52 54 53 53
49 49 49 49 50 51 50 40 45 46 40 42 46 47 49 54 56 50 49 47 47 46 41 38 38 35 35 42 40 46 40 46 42 44 45 52 53 56 55 54 55 52 54 52
49 48 49 49 50 51 49 42 43 42 40 39 42 42 51 51 52 60 46 46 51 47 50 43 43 37 42 36 39 45 47 48 46 47 51 50 51 53 54 53 54 52 53 50
48 48 48 49 50 50 49 42 44 43 42 34 40 52 48 55 55 56 56 53 51 50 48 41 37 38 47 42 48 46 48 49 45 45 49 49 51 51 53 51 50 48 48 48
48 48 49 49 49 49 47 45 46 46 42 35 38 46 51 52 53 53 55 52 49 47 41 36 41 45 44 43 44 42 49 47 44 44 52 53 57 54 51 49 48 47 45 43
47 47 48 48 48 48 43 37 45 47 45 38 33 46 46 51 51 51 52 54 50 48 44 40 45 47 45 38 41 50 51 51 52 53 51 47 44 45 47 47 46 46 45 44
47 48 48 49 47 44 40 39 44 48 47 39 33 35 46 50 50 48 47 48 47 48 44 41 44 44 45 36 40 49 47 47 48 47 47 45 45 45 44 44 43 42 42 43
48 48 47 47 48 47 44 47 49 50 44 42 32 34 40 47 42 41 46 42 43 43 43 41 42 42 38 38 45 45 44 44 44 43 44 46 42 41 39 41 40 38 36 37
48 48 48 45 44 39 42 48 49 48 44 34 33 32 35 45 42 41 40 42 36 41 37 39 43 37 37 45 46 44 44 45 43 41 41 41 40 38 38 38 38 36 35 37
47 45 40 34 42 48 48 44 40 40 41 38 33 38 36 42 38 36 37 35 35 34 38 42 37 37 43 45 47 48 47 44 42 37 35 36 36 37 38 39 39 37 36 34
42 39 36 42 48 43 39 33 33 34 32 36 38 40 37 41 36 34 35 33 33 34 37 38 35 35 40 42 43 44 44 44 43 43 43 44 41 38 35 34 34 34 34 32
42 43 46 44 41 35 33 31 32 33 33 36 36 38 40 36 40 36 33 33 33 32 37 35 33 36 38 39 38 40 41 41 41 42 40 39 38 37 35 33 31 30 29 28
44 40 35 35 33 30 29 26 29 31 33 35 35 34 36 35 37 33 33 32 32 35 33 34 33 37 38 38 38 38 40 39 38 37 36 35 33 33 31 28 28 28 27 28
34 33 31 32 31 32 32 30 32 33 34 34 35 33 34 33 33 33 32 32 33 31 30 29 34 35 36 37 38 36 33 33 32 31 31 29 28 26 26 26 26 26 25 25
31 32 29 29 31 32 32 33 34 33 35 34 33 34 35 32 31 32 32 31 28 29 28 31 32 33 33 33 32 31 30 29 28 29 27 26 26 25 25 26 26 25 23 22
32 30 30 32 32 31 31 32 32 34 33 33 34 33 32 31 31 30 28 27 25 28 31 32 32 31 31 30 30 29 29 28 28 27 27 26 24 23 23 24 23 22 22 21
30 28 30 29 30 28 29 31 30 33 33 31 33 31 30 33 29 27 28 26 28 30 30 31 31 30 29 29 29 28 28 27 27 26 26 25 26 26 26 24 25 25 24 22

GFSNW_sfc_temp_072.txt.gz
Temp
52 52 53 53 52 52 49 44 33 56 57 35 39 37 49 53 57 61 57 57 55 53 56 56 57 58 63 69 70 61 68 62 54 59 67 69 68 64 63 52 50 53 50 52
52 52 52 52 52 51 45 38 39 54 54 31 34 45 48 54 55 57 55 54 56 57 54 52 58 59 65 68 67 64 66 58 50 53 59 62 61 64 64 62 57 52 46 53
52 52 52 52 51 52 46 40 32 42 42 50 43 42 45 46 55 56 59 57 58 54 52 57 54 55 59 63 68 56 63 62 56 50 57 64 57 61 63 61 52 53 55 59
52 52 52 52 51 51 45 41 36 45 32 35 44 46 48 46 46 54 58 54 55 55 50 52 52 55 56 58 54 63 65 57 60 62 64 64 62 62 62 59 60 54 59 61
51 51 52 51 51 50 42 36 41 48 46 44 41 43 41 46 50 52 51 51 55 57 53 54 48 54 56 57 59 61 64 57 59 56 61 61 58 62 63 62 63 63 62 62
50 51 51 50 50 49 40 49 54 52 44 44 37 38 43 46 53 55 57 56 57 53 55 58 58 59 60 61 58 57 57 58 53 49 56 55 45 55 61 63 64 63 58 66
51 50 50 50 50 49 45 48 53 43 41 44 42 44 46 47 51 49 56 58 55 61 64 63 61 61 59 60 61 62 56 56 55 47 42 36 58 65 68 64 66 68 67 69
51 50 50 50 50 50 49 52 52 46 38 48 46 44 46 48 50 51 54 58 63 65 59 51 46 44 49 54 60 59 61 57 48 41 45 55 56 56 60 59 61 71 69 70
50 50 50 49 50 50 48 52 58 51 43 43 52 46 46 45 47 46 53 62 64 62 53 48 41 39 46 48 49 54 56 56 52 43 41 37 56 66 68 67 53 72 71 68
50 50 50 50 50 50 47 52 56 52 44 51 53 47 43 52 51 48 50 53 54 60 49 37 39 42 53 43 43 40 43 45 43 46 41 53 61 61 66 50 55 69 70 69
50 50 50 49 50 50 48 50 56 53 46 48 52 55 49 51 52 47 53 51 52 51 43 39 44 43 50 50 54 49 47 44 41 46 37 39 60 59 57 66 64 68 66 67
50 50 49 49 50 49 51 45 53 57 47 47 51 51 52 47 58 56 55 54 55 56 50 48 52 42 44 50 44 57 46 53 52 52 55 65 64 69 69 69 70 65 67 66
50 50 50 49 49 49 50 47 48 49 43 47 45 48 54 55 53 59 52 57 62 58 63 54 52 44 52 40 48 53 56 56 53 54 64 64 64 68 62 66 64 66 66 66
49 49 49 49 49 49 50 46 49 48 47 38 45 55 51 59 59 57 59 63 61 63 59 53 46 45 59 52 57 55 61 59 57 59 64 59 61 62 66 65 64 61 61 64
49 49 48 48 49 49 50 50 52 55 49 38 42 52 53 51 54 56 58 60 59 56 50 40 46 58 54 55 55 54 60 59 53 53 65 62 68 67 64 63 62 62 59 58
48 48 48 48 48 49 47 38 49 55 53 41 35 49 47 48 52 54 56 59 59 58 55 51 57 56 55 44 50 62 66 66 66 63 58 60 56 55 54 60 63 62 60 60
48 48 48 47 48 50 46 43 49 52 52 38 34 37 47 48 49 53 55 57 57 57 54 48 54 53 54 43 46 63 64 64 59 56 55 58 56 57 53 54 56 54 57 56
47 47 47 48 50 49 48 51 48 52 43 41 34 35 37 48 44 43 55 51 53 49 51 46 48 47 46 44 58 63 60 57 55 55 56 56 52 50 50 52 51 49 49 49
47 47 48 48 46 44 48 48 49 52 45 35 34 34 32 45 42 44 44 50 39 46 42 46 52 42 42 53 59 58 57 53 58 54 52 50 50 50 49 50 49 47 45 46
48 45 39 34 41 47 48 44 40 40 42 41 34 36 32 41 37 36 40 42 37 34 40 49 43 47 56 55 55 56 58 57 52 48 45 45 46 47 47 48 48 47 46 43
47 39 37 46 48 45 40 34 34 35 33 39 40 40 35 41 33 34 38 35 36 35 40 42 40 43 49 49 50 52 53 53 51 51 51 50 48 46 46 43 40 38 37 34
43 45 50 45 43 40 34 32 34 33 35 40 39 42 40 39 40 36 35 35 33 33 40 39 37 41 43 43 45 47 50 50 48 49 47 47 46 44 41 39 36 34 32 29
48 44 37 41 35 30 29 29 31 33 37 38 37 36 40 41 41 34 34 34 33 35 33 32 33 38 39 40 42 42 46 45 44 42 41 38 36 36 35 31 31 30 29 29
38 35 32 34 30 33 35 37 37 40 38 38 38 37 38 35 35 34 34 33 34 33 33 30 34 34 35 35 36 35 33 32 32 31 31 30 29 28 29 29 30 29 29 29
33 34 31 32 34 34 33 34 35 35 39 39 38 38 37 34 33 34 33 32 30 30 29 31 32 33 33 32 31 30 29 28 28 29 27 27 27 28 28 28 28 28 27 26
34 32 30 30 32 31 31 31 32 34 35 36 37 34 33 33 33 32 29 30 26 28 30 32 32 30 30 29 29 29 28 28 27 27 27 27 26 26 26 27 27 25 25 24
32 30 30 29 30 27 29 30 30 33 34 33 35 32 31 35 31 27 29 26 28 29 29 30 30 29 28 29 28 28 28 28 28 28 28 28 30 31 30 26 27 28 26 24

GFSNW_sfc_temp_075.txt.gz
Temp
52 52 52 53 53 53 49 43 34 58 60 37 37 34 47 52 59 65 65 65 63 59 60 56 53 55 65 72 72 66 70 64 58 61 72 75 72 66 65 54 53 57 55 56
52 52 52 52 52 52 46 37 39 56 57 32 35 44 47 51 55 59 61 59 62 63 56 52 58 59 68 72 70 67 69 60 52 57 65 68 64 68 68 66 64 55 47 54
52 52 52 52 52 52 47 38 33 43 43 51 46 43 45 46 55 56 63 61 64 59 54 59 56 57 62 66 70 59 65 63 58 51 59 65 59 64 67 65 54 55 57 61
51 52 52 52 52 51 45 39 40 48 32 36 46 49 49 46 47 55 59 58 60 58 51 53 54 58 59 61 58 66 67 57 62 64 67 68 66 65 65 62 63 56 61 63
51 51 51 51 51 51 43 36 45 50 50 46 44 45 45 47 51 54 53 54 59 61 55 56 53 57 55 57 62 63 68 57 61 58 65 66 62 66 66 66 66 66 66 65
51 51 50 50 51 49 41 45 56 51 47 46 41 44 46 48 54 57 60 58 57 56 60 62 61 62 60 60 57 60 62 59 56 50 62 61 52 60 65 66 69 67 60 68
50 51 50 50 50 50 47 49 55 46 41 47 46 47 49 49 53 51 58 61 56 63 71 66 63 57 58 58 59 63 58 58 57 48 46 39 59 70 70 66 69 71 71 72
50 50 50 49 50 50 47 53 52 49 39 50 49 48 47 51 53 52 55 61 65 68 64 54 48 43 43 49 56 59 62 56 50 43 46 55 61 62 64 63 63 73 72 73
50 50 50 49 50 50 47 52 60 56 46 48 56 50 49 47 47 50 53 61 66 64 57 50 42 39 47 46 49 61 61 59 51 46 42 39 57 67 73 73 56 74 74 73
50 49 50 50 49 50 48 49 58 56 48 53 56 46 46 53 51 48 54 54 56 60 48 39 41 44 56 47 44 41 45 47 44 47 43 54 68 70 74 52 56 74 75 75
50 49 50 49 50 50 48 46 59 56 50 53 57 57 53 53 52 46 54 51 53 50 43 40 46 46 53 53 57 54 45 45 42 47 39 39 66 63 58 67 74 75 74 75
50 49 50 49 50 50 49 43 58 59 50 51 56 56 59 61 61 54 54 54 55 57 51 51 51 47 50 53 45 63 49 54 51 55 55 68 68 70 71 76 74 75 74 76
49 49 50 50 50 50 49 48 55 53 45 47 53 52 58 59 58 62 47 56 64 61 65 58 55 47 57 44 50 56 62 67 57 58 64 67 70 71 73 74 73 75 73 74
49 50 50 49 49 49 50 50 55 53 50 41 48 62 56 62 58 58 56 56 60 65 65 55 52 48 64 54 58 57 63 64 59 60 65 68 69 70 71 74 71 71 72 72
49 49 49 49 48 49 49 55 56 60 53 41 46 56 60 60 59 55 56 53 55 53 53 48 48 60 60 61 60 57 66 62 57 55 66 65 67 70 74 71 71 70 70 69
49 50 49 47 47 49 49 38 49 59 54 45 36 50 55 58 57 54 55 56 54 54 56 52 59 65 60 48 50 62 67 70 69 65 70 67 66 64 65 68 70 71 70 69
49 48 47 47 49 53 46 43 51 54 57 46 38 41 51 57 56 53 53 55 53 52 54 53 56 59 58 50 47 63 68 70 71 72 65 62 65 66 61 62 63 60 66 67
47 46 47 49 49 49 48 52 53 57 49 50 34 37 42 52 46 45 54 48 51 50 52 54 52 55 53 47 59 63 67 69 65 65 65 65 62 60 60 61 60 59 59 60
47 47 47 45 45 44 46 48 50 57 52 36 33 34 32 38 43 50 50 52 43 54 47 49 53 48 43 55 59 63 66 65 65 65 62 59 58 58 57 56 56 55 54 55
48 47 41 36 45 48 48 43 39 43 46 45 35 40 34 39 33 42 43 46 40 36 41 56 45 47 60 59 59 61 62 63 60 56 54 54 55 54 54 55 56 54 53 52
51 44 39 49 48 44 40 34 34 35 34 43 44 41 39 41 34 34 40 37 38 35 44 45 45 46 54 55 56 57 59 60 58 58 58 58 57 54 53 51 50 49 46 41
45 47 47 45 41 38 35 33 35 34 37 41 40 40 43 38 37 32 36 36 36 35 45 41 39 38 43 48 50 53 55 55 54 55 53 52 50 47 41 39 36 34 32 31
53 46 38 39 36 30 30 28 33 34 39 41 40 36 40 39 35 32 35 34 34 39 35 33 33 36 39 41 44 46 49 48 46 44 43 40 37 37 35 32 32 32 30 29
41 36 31 34 30 36 38 41 38 38 38 39 40 36 35 35 32 33 32 34 34 33 32 30 32 33 33 35 35 35 34 33 32 32 31 30 30 29 30 30 30 30 29 29
34 37 30 32 34 34 34 35 36 36 39 40 40 38 36 33 33 34 33 32 30 31 30 30 31 32 31 30 30 29 28 28 28 29 28 28 28 28 29 29 30 29 27 27
36 33 31 32 34 32 31 31 32 33 34 38 40 34 33 33 34 32 29 30 27 28 31 30 30 29 28 28 28 28 28 28 28 29 29 29 29 28 28 29 28 27 27 26
34 30 32 31 32 29 27 27 28 32 33 33 35 32 31 36 32 28 31 26 28 29 29 30 31 29 29 30 30 30 30 30 30 31 31 30 31 31 30 26 27 27 27 27

GFSNW_sfc_temp_078.txt.gz
Temp
52 52 52 52 52 52 49 43 33 51 57 36 38 33 42 49 52 59 56 57 55 58 61 56 56 56 61 67 68 62 67 62 54 61 71 73 70 64 63 52 51 54 49 51
52 52 52 52 52 52 46 38 38 53 53 31 34 43 43 48 49 52 54 54 58 61 57 54 58 59 66 67 61 62 65 57 49 55 64 68 63 67 67 64 61 53 44 51
52 52 52 52 52 52 46 36 32 42 42 49 43 41 42 42 51 51 57 56 57 51 51 54 56 57 63 61 62 53 59 61 56 49 55 63 58 63 66 63 50 53 54 59
51 51 51 52 52 52 46 35 37 45 32 35 42 45 46 43 44 52 54 52 52 47 45 47 54 55 56 59 60 61 60 53 60 62 64 65 63 62 63 60 62 54 59 60
51 51 51 51 51 51 44 33 39 48 45 44 40 42 43 45 49 50 47 48 53 55 45 56 53 57 49 50 58 57 62 54 58 55 62 63 60 65 64 64 64 64 64 63
51 51 51 51 51 50 42 42 51 48 43 40 40 40 44 46 52 54 56 55 53 51 50 56 59 63 59 56 53 51 53 55 53 46 59 58 48 59 63 65 67 65 58 66
51 51 51 51 51 50 45 45 48 41 36 45 40 45 47 48 50 49 56 58 55 61 67 57 59 55 59 58 55 53 48 50 53 44 44 37 58 69 68 64 66 68 69 71
50 50 50 51 51 50 46 47 47 44 37 47 47 46 48 50 53 51 53 58 63 67 61 48 40 44 46 49 56 52 51 48 39 40 43 53 59 63 63 60 60 70 68 71
50 50 50 50 50 51 47 45 53 48 42 44 52 48 48 47 47 49 53 61 62 63 53 43 35 34 44 42 47 56 52 51 44 41 38 36 54 66 69 68 51 70 71 69
49 50 50 50 50 50 47 44 51 47 42 50 53 45 47 51 51 48 52 53 50 58 45 36 35 39 53 42 41 40 41 41 41 41 39 49 64 67 68 49 51 70 73 72
49 49 49 49 50 50 47 45 50 48 43 51 54 51 46 51 52 46 53 50 49 46 40 37 40 40 47 48 53 45 39 38 39 43 36 37 65 62 55 61 67 71 72 72
49 49 49 49 49 50 49 42 51 54 46 46 55 57 57 61 61 56 55 52 52 53 47 46 47 42 44 47 39 58 43 48 45 51 50 63 63 65 67 69 69 69 72 73
49 49 49 49 49 49 49 44 50 48 43 43 47 50 59 63 62 64 51 55 59 57 61 52 52 44 51 40 46 53 60 62 53 53 59 60 60 59 68 70 67 73 74 72
49 49 49 49 49 49 49 45 50 47 43 38 45 61 58 64 61 61 62 59 59 51 51 50 49 44 58 49 54 53 59 61 58 58 62 63 66 63 68 69 72 70 72 72
49 49 49 49 50 49 48 49 50 55 50 39 44 56 60 62 61 57 58 55 52 45 44 42 47 54 55 56 56 53 63 60 54 52 63 60 63 69 71 68 69 71 69 68
49 49 49 49 49 49 47 38 49 54 53 47 37 54 55 58 59 56 54 55 51 46 44 48 55 62 56 45 47 61 65 67 68 64 68 65 64 65 65 63 67 69 69 69
48 49 48 48 49 48 44 43 45 50 56 46 38 42 52 57 55 54 53 54 51 46 45 47 52 55 57 46 43 59 64 67 68 69 68 60 64 61 62 63 63 63 67 68
48 48 48 49 50 50 46 51 51 55 53 51 34 37 41 45 46 45 53 48 48 45 45 51 50 54 53 45 56 60 64 66 67 65 65 64 61 62 61 62 62 60 59 60
47 47 49 48 46 42 45 50 51 53 49 36 33 35 32 38 40 47 48 49 36 46 40 45 51 47 42 52 57 60 63 62 63 69 66 61 59 59 58 58 58 55 54 56
49 49 40 34 42 50 52 46 40 44 45 44 35 44 34 37 35 38 43 45 40 35 41 48 38 45 57 61 63 60 62 62 63 56 54 56 56 55 56 56 56 54 53 50
46 41 38 43 49 46 40 34 34 38 34 42 44 42 36 40 34 33 42 37 38 33 42 40 40 42 51 55 56 59 60 59 58 58 57 59 57 54 48 41 38 39 36 33
48 45 48 45 40 36 34 32 33 35 35 42 40 40 44 37 41 35 35 36 35 33 48 39 39 36 45 49 51 53 54 54 53 54 50 47 45 42 38 35 32 31 30 29
55 47 37 38 34 31 31 28 32 34 41 41 39 35 39 35 37 33 33 33 33 38 37 36 32 35 37 39 42 42 43 43 40 38 37 35 34 34 33 29 29 29 27 27
40 35 31 32 30 33 33 36 39 37 40 40 39 35 33 32 32 33 32 33 35 32 30 29 30 31 31 33 34 32 31 32 31 31 31 30 30 29 29 29 28 27 27 27
34 36 30 30 32 33 32 34 35 34 37 39 38 35 34 32 32 32 33 32 30 30 28 30 29 30 29 28 29 29 28 28 28 29 28 27 27 27 26 27 27 27 26 25
36 32 30 31 33 31 29 28 30 33 32 36 36 32 32 32 33 31 30 31 27 27 29 30 29 28 28 27 28 28 28 28 27 28 28 27 27 26 26 27 27 27 27 26
33 29 32 31 31 27 26 26 28 33 32 32 33 31 29 35 30 27 28 24 26 28 29 29 29 28 28 29 29 29 29 29 29 29 29 28 28 28 28 25 26 28 27 25

GFSNW_sfc_temp_084.txt.gz
Temp
51 52 52 52 52 52 49 42 33 47 50 33 35 30 37 42 42 46 43 43 41 38 42 39 41 42 46 55 53 48 54 50 43 48 58 60 57 54 53 41 41 41 37 40
51 51 52 52 52 51 45 37 37 46 46 29 30 37 37 40 40 40 40 40 44 44 42 36 41 45 54 53 46 51 52 46 36 45 51 55 52 55 56 52 47 43 33 39
51 51 51 51 51 51 45 33 30 38 40 40 36 34 33 34 44 41 42 40 43 40 37 44 39 43 51 51 50 49 53 46 47 40 45 51 47 53 58 54 42 43 41 47
50 51 51 51 51 51 45 33 32 39 30 33 35 36 38 34 34 42 43 39 38 36 32 37 38 45 45 48 49 49 51 41 46 49 53 54 53 52 55 54 51 45 49 49
50 50 50 50 50 50 43 32 34 38 34 38 35 36 34 34 38 38 38 36 40 41 35 38 37 42 43 41 45 43 49 41 43 42 50 54 49 54 55 54 54 53 53 51
50 50 50 50 50 49 41 41 41 40 38 36 33 34 34 37 40 41 44 42 40 38 41 46 47 47 48 46 43 39 41 41 40 35 47 49 38 46 51 54 56 54 47 54
50 50 50 50 50 49 45 43 41 35 31 34 35 38 38 37 39 37 43 45 41 47 54 49 48 46 47 46 46 45 40 42 36 30 37 32 44 56 59 56 58 58 58 58
50 50 50 50 50 49 45 45 41 37 31 37 37 39 39 40 41 40 41 45 50 50 46 39 37 33 36 41 45 46 46 42 33 32 31 41 48 52 54 53 52 59 58 61
49 49 49 50 50 50 47 45 45 41 34 34 41 37 39 35 36 37 40 48 51 47 40 35 27 23 33 34 39 48 46 44 36 32 28 27 42 55 59 60 44 60 61 59
50 49 50 50 50 50 47 44 46 40 34 39 42 38 37 42 40 36 40 41 40 45 34 30 27 29 41 31 32 32 32 32 31 31 31 35 49 55 60 42 42 59 62 62
49 49 49 49 50 50 47 43 45 40 34 38 44 47 41 42 42 36 40 39 38 34 29 28 29 26 36 36 40 36 33 31 26 31 27 28 54 54 48 50 56 57 59 58
49 49 49 49 49 50 50 41 46 46 38 38 44 50 53 51 51 45 44 40 41 40 34 30 33 30 31 36 31 47 35 39 34 37 37 50 54 54 55 56 56 57 56 59
48 48 49 49 49 49 49 43 44 42 38 37 38 40 52 55 50 51 40 40 47 42 44 38 36 31 38 30 34 40 46 49 41 42 50 52 54 57 59 59 59 60 59 57
48 48 48 49 49 49 49 43 44 43 38 32 38 49 49 55 52 49 49 46 46 45 42 38 34 30 43 37 42 41 47 49 44 44 51 55 56 58 59 61 61 61 59 58
48 48 48 48 48 49 47 45 45 46 39 33 34 45 51 54 52 49 49 47 43 40 36 33 35 39 39 39 41 42 48 45 41 40 53 52 57 58 59 58 58 59 61 59
47 48 49 49 48 48 43 37 44 48 45 38 31 45 46 48 50 49 46 47 44 41 37 35 40 46 43 34 32 47 52 53 54 52 58 56 56 54 56 56 55 56 57 57
48 48 48 48 48 45 38 37 41 48 47 36 33 34 43 49 48 45 42 44 42 39 36 34 37 39 44 34 32 46 50 54 55 56 55 50 52 51 54 54 53 52 51 52
48 48 47 48 48 47 42 44 49 49 42 38 31 33 35 41 37 36 40 36 37 37 36 35 35 38 38 31 43 48 52 54 54 55 55 54 52 52 51 51 49 43 40 41
48 48 47 45 43 40 43 49 50 48 40 31 27 26 29 36 36 38 37 36 30 36 30 32 36 33 31 40 43 47 50 53 52 52 52 51 50 49 47 45 41 36 34 33
47 45 38 32 41 49 48 42 36 37 39 33 24 31 30 35 32 34 35 31 27 28 34 38 29 31 43 45 45 44 43 45 51 46 44 44 40 38 36 35 34 32 31 29
41 38 33 43 48 43 36 32 31 32 31 31 32 32 31 36 29 31 29 31 27 27 30 32 33 32 39 44 43 40 39 40 40 41 41 41 38 34 30 29 29 29 28 26
42 42 43 42 39 34 31 28 30 29 28 30 31 31 33 32 34 29 31 30 32 27 34 28 30 33 36 36 36 36 36 36 36 36 34 33 32 31 29 28 27 27 27 26
45 39 34 35 30 24 19 21 26 23 31 31 32 32 34 34 35 31 31 28 29 34 27 26 29 32 33 33 33 32 34 33 32 31 31 30 29 29 28 26 27 26 25 25
34 28 27 26 26 28 27 30 31 31 32 29 32 33 33 32 31 32 28 29 32 29 27 27 28 29 29 31 31 30 28 29 28 28 28 27 27 25 26 25 25 25 23 23
28 29 22 24 28 27 27 29 30 29 31 33 33 33 33 31 30 31 30 29 27 25 24 25 27 28 28 27 28 27 27 26 26 26 25 24 25 24 24 25 25 25 23 22
28 25 23 25 23 23 25 25 26 29 29 32 33 31 30 29 30 27 22 23 19 20 21 25 27 27 27 27 27 26 26 26 25 25 25 25 24 23 23 24 24 23 22 21
23 21 25 23 21 19 24 25 26 30 28 31 31 25 23 29 24 19 23 17 20 24 25 26 26 26 25 26 25 25 25 24 24 25 25 24 25 25 24 22 23 23 23 22

GFSNW_sfc_temp_087.txt.gz
Temp
51 51 51 51 52 51 48 39 31 43 48 33 33 29 36 41 39 44 41 40 39 36 37 35 37 38 44 52 49 42 46 43 38 45 55 56 54 53 51 39 38 38 35 39
51 51 51 51 51 51 41 36 37 43 44 28 29 35 36 39 38 39 38 37 41 41 37 32 38 39 49 52 49 44 43 37 32 39 47 55 51 52 52 48 42 37 33 38
51 51 51 51 51 51 44 36 30 36 39 39 33 32 33 33 41 39 41 39 40 36 34 39 34 38 45 50 49 48 45 39 36 35 41 48 46 52 53 50 37 38 41 45
50 51 51 51 51 51 44 37 32 37 29 32 34 36 36 33 33 40 41 36 36 34 31 32 33 39 43 48 47 47 42 35 41 45 50 52 51 50 51 47 47 43 46 47
50 50 50 50 50 50 42 33 34 37 33 38 34 34 32 34 36 37 35 34 38 38 33 34 32 38 40 39 44 42 43 35 37 40 46 51 50 52 52 50 49 48 50 50
50 50 50 50 50 49 41 41 40 38 35 35 32 33 34 35 39 41 42 40 37 35 37 42 43 44 43 44 43 40 36 36 35 33 44 44 36 46 50 53 51 49 45 51
50 50 50 49 49 48 43 42 40 34 30 32 33 37 38 36 39 36 42 42 39 44 50 48 45 43 43 43 44 47 39 36 33 31 36 29 43 53 56 52 56 56 56 58
49 49 49 49 49 49 44 44 41 36 30 36 35 37 37 38 40 38 40 43 47 47 45 37 33 31 33 38 43 43 45 39 32 31 32 37 42 48 50 48 48 57 57 59
49 49 49 49 49 49 45 44 45 40 34 32 40 36 38 34 34 36 38 47 49 43 38 32 27 23 29 33 37 46 44 43 36 32 28 26 38 52 56 56 41 58 60 58
49 49 49 49 49 49 46 44 46 41 34 39 41 36 35 41 38 34 38 41 38 42 30 26 25 27 37 28 28 33 34 34 32 32 30 33 45 50 54 36 39 54 60 58
49 49 49 49 49 49 47 44 46 41 36 38 44 45 40 40 41 33 39 38 36 32 27 23 27 24 32 33 38 35 33 32 30 31 27 26 50 50 42 47 52 56 57 61
49 49 49 49 49 50 48 41 46 46 38 38 43 44 46 49 50 43 43 41 40 38 31 29 30 26 26 32 28 42 32 39 35 37 34 45 50 54 56 56 55 55 55 60
48 49 49 49 49 50 49 43 43 41 35 36 37 37 46 50 50 51 40 40 47 44 44 35 34 30 34 26 31 38 43 47 39 40 46 47 50 53 54 56 57 60 59 57
48 48 48 49 49 49 49 43 44 43 37 31 33 47 43 49 49 50 50 49 47 46 42 36 31 29 39 33 38 39 44 46 43 41 47 49 54 55 55 58 60 59 60 59
48 48 48 48 49 49 48 46 45 47 39 28 30 41 46 50 49 48 48 48 45 41 38 34 35 36 37 36 36 36 46 45 38 39 50 48 51 57 57 55 57 58 59 59
48 48 48 48 48 49 43 34 43 48 42 35 29 39 41 45 48 46 46 45 45 42 39 36 37 42 38 29 31 43 51 50 50 48 53 52 52 54 55 55 51 54 56 56
47 48 48 48 48 45 37 35 41 47 43 37 30 33 40 46 46 45 42 44 43 42 39 36 36 39 41 32 28 44 47 48 49 50 51 48 51 51 50 50 47 46 45 46
47 48 47 47 47 45 41 43 47 47 41 38 29 32 36 42 38 37 42 39 39 39 38 37 36 36 34 29 39 45 49 49 49 50 51 52 50 49 46 45 42 38 36 36
47 48 48 45 41 38 41 47 48 45 41 31 30 29 28 38 37 39 37 39 32 34 31 32 35 30 29 37 40 42 42 41 43 51 48 47 45 44 42 40 37 33 31 31
47 44 38 32 41 48 47 41 37 38 38 35 28 33 31 36 33 32 32 28 27 29 33 36 31 30 38 43 42 41 40 40 40 43 41 40 37 36 34 33 32 30 29 28
42 36 36 43 48 40 35 31 31 32 30 32 33 33 32 36 30 31 28 30 27 25 29 30 32 31 35 39 38 38 38 38 37 37 40 41 37 32 29 28 29 28 28 26
42 42 44 42 38 33 30 28 30 28 28 29 32 30 33 33 32 30 31 26 31 26 33 30 28 32 36 36 35 35 36 35 34 34 32 32 31 30 28 28 26 26 26 25
44 40 34 33 29 22 21 23 27 25 25 29 33 30 34 34 33 29 30 27 25 32 30 27 30 32 33 33 33 32 32 32 31 30 30 30 29 29 28 26 26 25 24 24
33 28 21 20 19 25 25 28 30 30 31 31 33 32 32 32 29 30 27 27 32 27 24 26 28 29 29 30 31 31 28 28 27 27 27 27 26 25 25 25 25 24 22 22
27 28 21 21 26 26 26 28 29 29 31 33 32 32 33 31 27 29 28 27 24 27 25 24 27 28 28 27 27 27 26 26 25 25 24 24 24 23 23 24 24 23 21 20
27 24 22 23 22 21 23 24 25 29 28 32 34 31 29 25 27 26 22 21 17 18 22 25 27 26 26 26 26 26 26 25 24 24 24 24 23 22 22 23 22 22 21 20
23 20 23 22 18 20 22 23 24 28 28 30 30 24 22 28 22 19 22 17 20 22 24 26 26 25 24 25 25 24 25 24 23 23 24 23 24 24 23 20 21 21 20 19

GFSNW_sfc_temp_090.txt.gz
Temp
51 51 51 51 51 51 46 39 31 42 46 32 33 28 32 39 37 41 39 38 36 34 35 32 33 35 40 48 49 41 41 37 32 41 52 53 49 47 49 39 35 34 34 40
50 50 51 51 50 50 38 35 35 43 41 27 28 34 34 37 36 36 36 35 39 37 33 29 34 36 44 46 45 41 44 35 30 35 43 48 44 48 50 46 42 40 33 37
50 50 50 50 50 51 41 34 28 34 38 37 32 30 30 30 39 37 38 37 38 34 32 36 32 34 41 44 44 47 45 37 34 30 34 41 39 46 50 48 35 39 41 42
50 50 50 50 50 50 43 35 31 35 27 30 31 33 33 30 30 38 39 34 34 33 30 31 31 36 38 42 46 44 42 31 37 38 40 39 38 44 49 46 45 40 42 45
50 50 50 50 50 50 39 32 32 35 33 34 33 32 30 30 34 36 34 32 37 36 30 32 30 35 35 35 41 43 40 30 37 32 40 41 38 46 48 47 46 44 45 44
49 49 49 50 50 49 39 40 41 37 35 32 31 31 32 34 37 39 41 38 35 33 35 41 42 42 41 40 37 36 36 34 34 30 38 35 33 42 48 48 48 48 41 48
49 49 49 49 50 49 42 41 38 33 28 31 32 36 36 35 38 34 40 41 35 41 48 46 43 40 40 40 39 40 35 34 33 30 33 27 40 50 53 49 51 51 51 53
49 49 49 49 49 50 43 43 39 35 29 34 35 36 37 39 40 38 38 43 47 48 43 33 30 30 32 34 37 37 39 37 31 29 30 34 40 46 46 46 47 53 52 53
48 48 49 49 49 49 45 43 44 39 33 33 39 34 36 33 34 35 38 46 49 45 35 31 25 23 29 28 35 41 41 41 33 31 27 26 39 47 50 53 37 53 53 52
48 48 48 49 49 49 45 43 45 40 33 38 40 35 35 41 38 34 38 40 39 43 32 26 26 26 35 26 26 29 32 34 30 31 30 33 45 48 50 34 38 52 52 54
48 48 48 48 48 48 46 43 46 40 34 38 42 44 40 40 39 33 39 37 34 33 29 26 26 25 31 31 35 33 29 30 30 32 30 28 48 46 38 45 49 52 53 53
48 48 48 49 48 48 48 40 46 46 38 37 44 46 50 49 48 43 42 37 37 37 32 28 28 24 25 31 26 39 30 36 34 35 35 47 49 51 53 53 51 51 53 54
48 48 49 49 49 49 48 43 44 42 34 35 37 38 46 48 48 52 38 37 44 41 44 37 33 27 31 24 28 34 39 44 37 38 45 47 48 52 52 54 53 54 57 55
48 48 48 49 49 49 49 43 44 41 37 31 34 44 41 48 48 47 46 46 46 45 43 37 34 28 37 30 35 33 38 41 40 40 47 50 51 52 53 54 56 55 56 56
48 48 48 49 49 49 47 45 44 46 38 31 31 40 44 49 46 46 48 46 43 40 37 34 33 37 36 34 34 32 41 40 35 35 48 45 47 51 54 51 52 50 52 56
48 48 48 48 48 49 44 36 43 47 46 35 28 37 38 43 45 44 44 45 44 41 37 34 35 41 38 30 27 40 46 47 47 46 48 46 49 49 49 49 46 44 43 45
48 48 48 48 48 45 37 35 41 47 45 35 27 27 37 41 41 40 41 43 42 42 39 36 37 36 40 27 31 39 44 45 46 47 46 45 47 45 45 44 44 43 40 40
48 48 48 48 48 45 40 43 47 48 40 38 25 23 35 40 34 36 40 37 40 39 37 37 36 38 34 31 36 42 46 48 47 47 48 48 45 43 42 42 40 35 34 33
48 48 48 43 40 37 41 47 48 45 39 30 29 21 28 39 37 39 38 39 31 36 33 34 36 33 30 35 39 40 43 43 46 46 47 45 41 40 39 38 37 33 31 30
44 42 35 32 40 47 46 41 37 36 38 35 25 33 30 36 34 33 32 34 32 30 33 35 32 32 36 40 42 43 41 42 42 39 40 38 35 33 32 31 32 30 28 28
41 38 36 42 48 40 36 31 30 32 29 32 32 32 32 35 31 31 32 31 30 23 28 29 30 30 34 37 37 35 36 37 37 37 35 38 35 30 28 28 29 29 28 26
43 42 44 41 37 33 28 24 29 30 27 32 30 32 34 33 35 32 31 28 30 24 31 30 28 30 35 36 34 35 34 32 32 32 31 30 30 29 28 27 26 26 25 24
43 37 31 32 29 25 25 16 25 26 29 32 32 30 32 33 31 30 30 26 26 31 29 29 29 32 32 33 32 31 32 31 30 29 29 29 28 28 27 25 25 24 23 23
32 27 23 20 12 19 24 26 29 29 31 32 29 31 31 32 30 30 25 23 29 27 24 26 28 29 29 30 31 30 28 28 27 27 27 26 25 24 24 23 23 22 21 21
25 26 17 21 25 25 26 27 28 28 30 32 30 32 32 29 28 29 28 26 24 26 19 21 27 28 28 27 27 27 26 25 25 25 24 23 23 22 21 22 22 21 20 19
24 21 19 21 21 19 22 22 24 28 28 31 33 30 27 26 25 27 23 22 18 14 19 23 27 26 25 25 25 25 25 24 23 23 23 22 21 20 20 21 21 20 20 18
21 18 21 20 18 18 19 20 23 27 27 28 28 24 20 25 20 19 21 16 19 20 21 23 24 24 23 24 24 23 23 23 22 22 22 21 22 21 20 17 18 19 18 17

GFSNW_sfc_temp_093.txt.gz
Temp
50 50 50 51 51 51 46 38 29 42 46 32 33 28 32 38 37 42 40 39 38 36 37 35 35 37 42 48 47 42 44 40 34 41 52 55 55 50 51 42 41 42 42 46
49 49 50 51 51 50 40 35 34 43 43 27 28 34 34 37 36 37 37 36 39 39 35 32 36 38 46 46 44 41 44 36 32 39 46 50 45 48 49 49 47 42 37 45
49 49 50 50 50 50 42 34 28 35 37 37 33 31 31 31 39 36 38 37 39 36 33 37 33 35 42 45 45 47 46 39 36 33 36 41 38 42 45 42 38 44 45 49
49 50 49 50 50 49 41 34 30 36 27 30 31 32 33 30 30 38 39 34 35 34 30 33 33 38 40 44 46 45 44 33 37 40 43 43 42 40 43 40 42 40 48 50
48 48 50 50 50 49 39 31 31 34 32 34 32 32 31 30 33 35 34 33 37 36 30 33 33 36 37 35 42 39 38 33 37 34 40 41 39 44 44 44 44 46 50 51
49 49 49 49 49 48 37 39 40 36 33 32 30 31 32 33 37 37 39 38 35 33 36 40 40 42 41 40 36 36 35 33 32 31 40 40 35 42 44 47 50 52 46 55
49 49 49 49 49 48 41 39 39 32 27 31 32 34 36 34 36 33 40 41 33 41 46 43 42 41 40 40 40 41 35 34 32 29 32 26 45 51 51 47 51 56 57 58
49 49 49 49 49 49 42 42 39 33 27 33 34 35 35 38 39 37 38 38 44 46 39 33 30 33 33 36 38 39 40 35 30 28 30 38 45 46 45 41 43 55 56 60
48 48 48 49 49 49 44 42 43 37 32 31 39 35 37 33 32 34 36 44 47 41 35 32 25 24 30 32 37 41 40 39 34 31 26 26 42 50 50 52 40 53 56 56
48 48 48 48 49 49 45 42 44 38 31 37 40 34 34 40 36 33 38 40 39 40 32 28 27 27 36 28 29 30 30 30 27 29 28 37 47 49 53 36 41 50 54 56
47 48 48 48 48 49 46 42 46 39 34 37 41 44 39 40 40 33 39 37 36 34 30 30 30 29 34 34 38 36 33 29 29 31 28 26 50 49 42 43 48 53 55 57
47 47 47 47 48 48 48 40 45 45 38 37 44 46 50 49 48 43 42 38 38 37 34 33 34 30 32 35 30 42 33 40 36 34 34 45 50 50 53 55 51 54 53 57
48 48 49 48 48 48 47 42 44 41 37 34 38 38 46 49 51 53 39 42 46 39 44 36 34 29 36 30 33 38 42 46 40 40 46 48 50 54 54 55 53 57 57 56
48 48 48 48 49 48 48 42 44 41 36 31 35 45 42 51 50 50 49 48 48 48 44 37 34 32 37 35 40 39 45 45 42 41 46 49 52 53 54 54 57 56 58 55
48 48 48 48 49 49 47 44 44 44 40 32 33 40 44 48 47 46 47 46 45 42 37 33 33 37 37 38 37 37 45 44 39 38 48 47 49 52 53 52 49 49 52 55
47 48 48 48 49 49 43 36 43 45 43 35 30 40 40 43 45 44 44 44 43 41 37 36 39 43 40 32 32 43 48 50 50 47 53 50 50 52 51 50 47 45 45 46
48 48 48 48 48 45 38 36 42 47 45 35 30 31 38 42 43 42 40 44 42 40 36 34 37 39 41 33 32 44 47 48 49 50 49 47 51 50 48 47 44 43 42 40
48 48 48 48 48 46 40 44 47 48 39 38 27 27 34 41 35 34 40 38 40 39 37 37 36 39 39 33 41 46 49 50 49 49 51 51 52 46 44 44 43 39 37 36
48 48 48 45 38 34 40 47 48 46 40 31 30 25 26 38 36 38 38 40 32 39 33 35 36 35 31 38 41 44 46 45 47 48 47 49 46 44 42 41 38 34 31 31
48 43 34 31 38 47 46 41 35 36 38 35 29 32 29 36 35 33 32 34 32 28 33 38 33 35 43 44 45 46 45 46 46 43 44 42 40 37 35 36 35 33 31 29
38 34 35 42 48 41 36 31 31 32 30 32 33 33 31 37 32 32 34 32 32 27 32 32 32 32 37 39 39 37 37 38 38 39 38 40 41 35 32 30 31 31 30 27
42 41 43 42 37 33 29 28 31 30 28 32 31 33 35 34 36 33 32 30 30 26 34 31 29 34 36 37 35 35 35 34 33 35 34 34 34 33 32 30 29 28 26 24
43 37 33 34 27 21 19 22 26 27 30 33 33 31 33 33 34 31 30 28 28 33 30 29 32 31 33 33 33 32 33 32 31 30 31 31 30 30 29 26 26 25 22 22
31 26 17 18 16 20 22 26 27 29 30 32 32 31 31 32 30 31 27 29 31 27 26 27 27 29 30 30 31 30 28 29 28 28 28 27 26 24 24 23 23 21 19 20
24 25 16 17 23 23 25 26 29 28 30 33 32 33 33 30 29 31 29 26 25 27 24 22 26 28 29 28 27 26 26 25 24 24 23 22 22 22 21 22 22 21 19 17
22 19 17 19 21 19 21 21 24 27 27 31 33 30 27 27 29 27 23 24 22 19 22 24 27 26 25 25 25 25 24 23 23 22 22 21 20 19 19 19 19 18 17 16
21 17 21 20 18 16 18 20 23 27 26 28 28 23 20 27 22 19 22 17 21 23 24 24 24 24 24 24 24 23 23 22 22 21 21 20 21 20 19 16 17 17 17 15

GFSNW_sfc_temp_096.txt.gz
Temp
49 47 50 50 50 51 48 44 33 47 53 36 38 36 39 42 43 47 44 45 43 41 43 41 42 42 48 56 53 47 50 46 40 46 58 59 57 56 56 47 46 51 50 52
49 49 50 50 50 50 43 36 41 45 47 31 34 39 39 42 40 42 42 41 45 46 41 37 43 44 51 52 49 46 48 43 38 43 51 54 50 53 53 52 52 47 43 52
45 48 49 48 49 50 46 37 31 37 38 40 40 38 37 36 43 41 44 42 44 42 40 44 40 41 47 50 49 48 48 44 41 39 43 49 45 48 52 49 42 47 50 54
48 48 49 48 49 50 45 36 35 42 30 33 34 39 38 36 34 42 44 40 40 39 36 39 39 43 45 49 50 51 49 39 44 45 47 48 47 48 50 48 50 44 49 53
49 49 48 48 49 49 40 34 35 42 41 42 38 35 35 35 37 39 38 37 42 41 36 40 38 40 42 41 46 45 43 39 41 40 47 47 44 49 51 51 52 53 54 52
49 49 48 46 49 49 37 41 47 42 40 39 36 36 36 38 41 42 44 43 40 38 41 41 40 43 44 44 42 40 40 40 37 35 45 44 37 45 50 53 57 54 49 58
49 48 48 47 48 49 45 41 47 36 32 37 38 40 41 40 41 39 44 45 40 45 45 44 43 43 41 43 45 47 38 37 35 32 37 27 49 57 57 54 56 59 59 61
49 49 49 49 49 49 46 47 40 38 31 39 39 39 40 42 43 42 43 46 47 44 39 33 31 34 36 41 45 46 46 41 33 30 34 42 48 54 52 51 53 59 57 63
49 49 49 49 49 49 47 46 48 40 32 35 43 40 41 38 38 39 42 48 49 40 35 33 28 28 33 35 41 48 47 43 36 35 29 27 47 56 58 58 45 57 58 57
48 48 49 49 49 49 47 45 48 41 32 42 39 33 36 44 41 37 40 41 39 41 32 29 29 30 40 33 33 31 33 33 30 31 29 39 53 56 58 40 44 56 56 56
48 48 48 48 49 49 47 45 49 42 35 40 45 45 39 37 38 33 38 38 40 36 30 32 33 33 39 38 43 39 35 32 29 31 29 28 54 48 38 44 53 57 54 54
47 47 48 48 48 49 48 40 47 47 39 39 47 49 50 50 50 43 42 41 40 39 37 38 40 35 38 40 34 50 38 45 42 40 38 52 55 48 50 52 53 57 51 52
47 47 47 48 48 48 47 42 43 41 36 35 38 39 47 53 54 57 40 45 48 45 48 39 39 34 44 34 39 43 50 53 45 44 50 50 49 48 51 56 59 57 59 59
48 48 48 47 47 48 47 42 43 41 36 31 37 49 46 54 54 55 54 51 53 51 47 37 36 35 44 41 43 43 50 52 48 47 51 53 55 56 58 60 59 56 56 59
47 48 48 49 49 48 47 45 44 44 41 34 39 47 49 52 52 50 52 50 47 44 38 35 35 43 43 45 44 42 52 49 45 44 54 53 53 58 59 58 59 56 53 59
48 48 48 49 49 48 43 34 43 46 45 36 34 49 45 48 49 48 48 49 47 43 37 37 38 47 43 37 39 50 55 57 57 52 58 57 57 58 60 58 55 52 52 55
47 48 48 48 48 46 38 38 44 46 44 36 33 39 45 49 47 47 46 48 43 40 36 36 38 45 44 39 35 49 53 56 57 59 58 53 57 56 58 55 51 49 48 47
47 48 48 48 48 45 41 49 47 47 40 39 32 36 40 48 42 40 47 41 42 38 38 38 37 40 38 34 46 50 54 56 56 57 59 58 58 58 55 54 51 47 43 41
48 48 48 45 39 37 41 47 47 47 44 33 32 32 31 44 43 46 43 45 35 45 36 37 40 38 34 44 48 50 53 53 54 58 57 57 56 55 52 49 47 43 37 35
48 41 34 32 37 47 46 41 35 37 39 39 35 43 32 40 36 36 36 39 36 31 38 44 34 38 48 51 52 53 51 52 53 50 50 54 51 49 46 47 45 41 35 31
39 33 35 42 49 44 37 32 33 34 32 36 41 42 37 41 34 34 39 32 35 30 37 35 36 37 46 52 51 48 45 46 47 48 48 49 49 48 44 41 40 38 34 30
41 42 44 44 37 34 32 31 33 33 34 35 33 38 44 37 41 36 34 33 32 29 39 33 34 37 38 41 40 40 40 39 40 42 42 43 43 45 42 39 35 32 29 26
50 43 33 36 32 29 29 25 29 29 36 34 34 33 36 36 38 35 33 30 31 40 31 33 33 32 34 34 35 35 35 34 34 34 38 39 38 38 37 30 29 27 25 24
35 32 24 29 27 28 31 33 33 33 34 34 36 33 36 36 33 34 29 32 34 29 28 30 28 30 32 33 33 33 31 30 30 30 31 30 29 28 27 26 25 23 21 21
30 31 22 24 27 29 29 31 32 32 32 35 35 35 34 32 31 33 31 28 28 31 27 27 30 31 31 31 31 29 28 26 25 25 24 24 24 23 22 23 22 21 20 19
28 25 25 27 28 26 27 28 29 31 30 33 35 32 29 29 31 28 26 28 26 24 27 29 31 29 28 28 27 27 26 25 23 22 22 22 20 19 18 19 18 18 18 17
25 22 26 26 25 23 25 27 28 31 29 32 33 28 25 32 26 23 27 23 24 27 29 29 28 27 27 27 26 25 25 24 24 23 23 21 21 21 20 18 18 18 18 16

GFSNW_sfc_temp_099.txt.gz
Temp
50 50 50 49 49 50 47 42 34 55 59 38 40 39 46 45 48 52 48 49 47 46 47 46 46 46 52 59 58 49 56 48 44 50 62 63 60 58 57 46 45 51 50 52
50 49 49 48 46 49 45 35 42 54 51 32 36 44 46 48 45 47 47 45 49 50 45 40 45 47 55 58 53 51 50 47 40 45 55 60 53 58 60 59 57 49 44 50
49 49 48 49 48 48 44 37 32 38 41 44 40 39 41 41 48 46 48 47 49 46 43 48 43 46 52 54 54 48 49 46 44 41 45 46 48 52 55 54 46 49 52 57
49 49 49 49 49 47 42 37 38 43 32 36 38 42 42 41 41 47 48 44 44 43 39 42 42 48 50 53 52 52 49 40 47 49 51 52 49 50 52 51 53 47 53 55
49 50 49 48 49 47 39 34 39 46 43 44 41 39 38 37 43 44 42 42 46 46 40 43 41 46 46 45 52 50 52 40 46 44 50 51 48 52 53 54 55 56 57 56
49 49 49 49 48 46 37 42 51 44 39 41 39 39 41 42 45 46 48 46 42 41 44 47 47 46 47 44 40 43 39 41 40 35 48 48 41 49 53 55 58 58 51 60
49 49 49 49 48 46 44 46 49 37 34 39 39 42 43 42 44 41 46 49 44 49 52 49 46 44 46 46 47 49 40 40 38 35 40 29 49 62 60 56 59 61 62 64
49 49 49 48 48 48 42 47 45 38 34 40 42 42 42 46 47 45 45 49 52 50 42 33 34 38 39 42 46 46 46 41 34 31 35 44 49 55 55 54 54 64 62 63
48 48 48 48 48 48 48 46 49 44 35 38 46 43 45 41 42 42 46 54 55 46 35 33 29 29 36 35 40 51 47 45 37 35 30 29 48 56 56 59 43 58 58 55
48 48 49 48 48 49 50 50 51 42 33 44 45 39 41 47 44 40 43 43 42 41 33 30 31 31 41 34 35 33 38 35 33 34 31 40 55 59 59 40 42 54 56 59
48 48 48 48 48 49 48 48 52 43 37 43 48 49 41 39 39 35 39 37 40 37 31 32 35 32 40 39 43 36 35 32 32 35 29 29 57 55 43 47 52 54 58 60
47 48 48 48 48 49 49 44 51 50 41 43 51 53 54 52 49 42 43 41 42 37 35 39 37 34 40 40 34 51 35 45 40 41 42 54 58 53 53 52 48 53 55 59
47 47 48 48 48 49 48 46 49 45 38 38 42 44 52 55 54 55 41 46 49 45 45 38 36 33 43 35 40 44 49 55 47 47 53 55 57 56 54 51 51 55 60 60
47 47 47 48 48 48 48 43 46 46 37 32 40 52 47 55 56 53 52 50 51 48 46 37 36 35 47 41 43 44 50 50 48 48 53 56 57 58 54 53 59 60 60 54
47 47 48 48 48 48 47 45 44 46 41 35 37 49 51 55 53 51 52 49 46 42 37 35 35 45 43 46 46 43 53 50 47 44 54 53 55 60 61 59 59 60 56 56
47 48 48 48 48 47 43 36 43 45 46 36 33 49 49 52 52 50 48 49 47 42 37 37 44 50 43 37 40 52 56 58 59 53 60 59 60 62 63 61 60 56 56 55
47 48 48 48 48 45 36 39 45 46 45 35 34 39 50 53 51 48 46 49 46 42 36 36 42 45 44 38 36 50 55 58 59 61 60 56 60 58 63 63 59 53 52 49
47 48 48 48 48 46 40 49 47 47 39 38 33 37 41 50 41 40 47 42 44 39 38 39 38 45 44 35 47 52 57 58 58 60 62 62 63 62 62 62 57 52 48 41
47 47 48 45 40 37 41 47 47 48 42 34 35 34 33 49 47 48 44 45 34 46 36 39 44 40 35 45 49 51 55 54 56 59 59 60 59 60 59 56 56 51 43 38
47 43 33 32 38 47 46 40 35 37 39 40 35 46 37 45 42 41 40 42 37 33 41 47 38 39 49 53 55 55 56 58 56 51 51 55 56 57 54 53 53 50 43 36
38 33 35 41 48 44 37 32 33 35 32 38 44 45 40 47 36 35 42 34 38 31 41 38 38 40 46 53 54 55 50 52 51 52 52 54 53 53 53 49 47 42 37 32
40 42 44 43 38 35 33 32 34 35 36 42 39 44 45 41 46 37 37 33 34 29 44 35 35 33 37 40 41 42 43 44 45 45 45 48 48 51 51 47 42 36 31 27
51 44 35 37 33 30 29 27 31 33 40 38 38 36 37 40 42 37 34 31 31 42 32 35 33 34 35 37 38 39 40 37 38 37 38 40 41 43 43 37 32 29 27 25
37 33 27 31 29 33 33 38 39 36 39 38 39 37 39 40 34 35 30 36 37 30 29 30 30 31 33 35 35 36 35 32 30 31 32 30 30 29 29 29 28 25 23 23
32 35 26 27 30 31 31 34 36 34 35 37 36 38 38 34 32 34 35 30 29 31 28 28 30 31 31 31 31 31 31 29 28 28 26 26 25 24 24 25 24 23 21 20
31 29 28 31 30 29 30 31 30 33 33 35 36 33 31 31 33 30 29 30 27 25 28 30 31 30 29 29 29 28 28 27 26 26 24 23 21 20 19 21 20 20 19 18
28 25 29 30 29 27 28 30 30 34 32 32 34 31 28 35 30 26 30 25 26 28 29 31 29 28 28 28 28 27 27 27 25 24 23 22 22 21 20 18 18 19 19 18

GFSNW_sfc_temp_102.txt.gz
Temp
51 51 50 50 50 49 47 39 32 55 52 36 39 35 43 47 51 55 50 49 47 45 47 46 47 47 53 60 58 49 53 46 41 48 57 61 56 54 52 42 41 47 45 46
50 50 50 50 49 48 44 35 39 53 48 30 33 42 43 48 48 48 47 45 49 49 45 40 46 48 56 57 54 49 51 44 36 41 51 58 53 56 57 55 52 45 38 44
50 50 50 49 49 49 43 35 31 41 39 42 38 34 39 42 51 49 50 48 50 46 43 47 43 45 52 55 55 49 49 44 39 35 43 47 42 48 51 53 36 43 48 52
50 50 50 50 49 49 41 33 34 43 33 36 39 41 37 35 39 48 49 45 45 43 39 41 41 46 49 53 52 51 49 37 42 45 48 49 48 47 47 46 50 41 48 51
49 50 50 50 49 49 37 33 34 44 40 38 37 39 38 38 42 45 40 42 45 46 40 43 40 45 46 45 51 49 50 38 42 39 47 48 45 49 49 49 51 52 53 53
49 49 49 49 49 47 37 39 42 36 39 40 38 38 37 41 45 45 48 45 39 40 44 46 47 47 47 46 42 40 40 40 38 33 44 45 38 46 49 51 55 54 48 56
49 48 49 49 48 46 41 44 45 35 33 39 38 39 42 40 43 41 46 47 43 48 53 51 50 48 47 47 46 48 38 35 37 32 37 26 46 58 58 55 57 60 59 61
49 49 49 49 48 48 44 43 41 40 33 41 41 42 43 45 45 40 40 48 51 49 46 37 35 37 39 41 46 46 47 40 32 29 32 41 47 54 52 47 48 52 50 55
48 48 48 48 49 48 47 47 47 40 35 36 44 41 42 38 40 43 47 54 51 46 40 32 27 26 32 30 40 49 46 46 36 33 28 26 45 54 60 57 41 51 53 50
48 48 48 48 48 48 47 46 48 41 35 43 44 38 37 44 41 39 39 42 44 47 33 29 30 30 40 30 32 30 36 36 31 31 28 38 53 57 59 38 38 48 53 54
48 48 48 48 48 49 47 46 51 44 38 42 46 47 41 39 41 35 37 38 41 35 30 32 34 33 37 37 42 32 33 31 30 34 30 27 56 54 42 47 53 53 53 54
47 47 47 48 48 48 48 44 53 50 38 42 50 52 53 51 48 41 41 37 37 35 33 36 34 32 36 35 31 44 31 42 37 40 40 52 56 55 55 54 52 53 53 55
46 46 47 48 48 48 48 47 49 43 38 38 42 42 52 56 54 56 40 44 47 44 41 36 36 31 36 31 36 37 45 47 41 40 47 48 52 58 57 56 54 56 57 57
47 47 47 47 48 48 48 44 48 44 39 32 39 54 49 55 55 54 53 48 49 48 44 35 35 33 43 36 37 36 43 49 46 46 49 52 54 56 56 57 57 56 59 57
46 47 48 47 48 48 48 47 48 47 41 35 36 46 50 55 54 51 51 49 46 42 37 34 34 41 40 42 43 40 49 48 44 39 48 48 49 58 60 58 58 58 55 54
46 47 48 48 47 48 45 36 45 49 47 36 31 49 48 51 52 50 49 48 46 42 35 36 41 47 41 35 36 49 53 53 55 51 56 57 58 60 62 60 56 56 53 49
46 47 48 48 47 45 38 38 46 47 46 33 32 36 49 51 50 48 47 48 45 40 37 35 39 42 43 35 33 47 52 55 57 59 58 54 58 56 62 62 55 51 45 42
46 47 48 48 48 45 39 46 48 47 38 35 32 34 41 51 41 39 48 42 43 38 37 37 38 44 42 33 45 50 53 56 57 58 60 57 59 60 61 62 58 52 42 38
46 47 48 45 42 35 40 47 47 46 40 33 32 33 33 48 44 44 43 44 34 44 36 39 43 39 34 43 47 49 53 53 54 58 58 57 56 54 58 57 56 48 40 35
47 44 33 31 37 47 46 40 36 35 37 38 35 43 37 44 42 39 39 41 37 33 39 47 38 37 47 51 53 53 55 55 54 50 49 51 50 52 53 54 53 49 39 33
37 33 35 41 49 43 36 32 32 33 31 37 41 43 39 48 36 36 43 34 37 30 39 38 37 38 39 44 44 44 45 48 48 49 49 50 49 49 49 50 44 39 35 30
42 42 44 43 38 35 33 31 34 34 34 41 39 42 45 42 46 36 36 33 33 28 40 33 33 31 37 39 40 41 41 41 42 44 43 44 46 45 46 42 37 32 29 25
49 42 35 36 33 29 28 27 31 33 39 41 41 35 37 41 42 34 33 29 30 43 33 33 29 32 35 36 37 39 41 35 35 37 37 36 34 34 33 30 30 27 24 23
36 33 30 31 29 33 34 37 38 38 41 41 42 38 39 39 35 34 30 36 37 30 28 28 28 30 32 34 34 34 33 31 30 30 30 28 28 26 27 27 26 23 21 22
33 36 27 28 31 33 33 34 35 35 39 42 39 39 39 35 32 34 33 29 28 30 25 26 29 30 31 30 30 30 29 28 28 27 25 24 24 23 22 23 23 22 21 20
32 31 30 32 31 30 31 32 31 34 34 37 39 32 30 31 33 30 30 31 25 24 27 29 30 29 29 29 29 28 28 27 26 24 23 22 21 20 20 20 20 19 19 18
30 27 31 31 30 28 29 31 30 34 32 32 34 30 31 35 32 27 28 24 25 28 28 29 29 28 28 29 28 27 27 26 24 23 22 21 21 21 20 18 18 19 19 18

GFSNW_sfc_temp_105.txt.gz
Temp
51 51 51 51 50 50 45 39 28 44 46 33 34 29 37 43 42 46 43 46 42 39 40 38 39 40 46 54 52 44 45 40 32 39 50 50 46 41 43 35 35 38 37 38
51 51 50 50 49 49 38 33 34 42 43 26 29 36 38 41 40 41 43 43 45 44 39 33 40 42 50 52 48 43 45 36 28 34 42 48 44 45 45 40 44 38 31 38
50 51 51 50 49 49 40 34 25 32 34 35 31 30 32 33 43 43 46 44 45 41 37 41 36 40 47 49 49 49 47 39 34 27 33 41 37 44 47 36 32 34 37 42
50 50 50 50 50 49 40 33 29 35 20 30 32 34 35 33 31 41 45 41 41 38 34 36 35 41 43 47 49 46 42 31 37 39 41 42 41 42 45 42 44 34 40 38
50 49 49 50 50 49 38 30 30 33 31 36 34 33 33 34 38 33 34 33 39 40 36 37 33 37 37 37 42 41 44 32 36 33 40 41 38 42 44 45 47 46 47 46
50 49 49 49 49 47 37 37 38 34 33 31 32 31 35 36 36 40 45 40 37 36 39 41 42 41 41 40 37 35 35 34 31 27 37 37 30 39 43 45 49 48 41 49
49 49 49 49 49 47 39 39 38 32 26 31 32 39 40 37 35 34 41 44 37 42 50 45 43 42 42 41 40 42 34 31 29 26 31 20 38 49 51 48 51 53 48 48
49 49 49 48 48 48 40 41 36 35 28 35 36 38 37 39 41 38 40 43 45 45 40 27 29 29 33 36 41 40 41 34 28 25 26 33 40 48 48 46 43 47 47 48
49 49 48 48 48 48 41 40 41 36 30 28 40 33 34 30 31 33 39 47 45 40 30 25 21 21 28 29 31 44 42 38 31 26 23 19 39 47 52 51 34 45 48 46
48 48 48 48 48 48 42 38 42 38 31 35 38 29 33 37 34 31 36 36 37 40 31 21 22 25 37 27 27 29 31 30 27 25 22 31 45 51 54 32 33 46 47 49
48 48 48 48 48 48 43 38 42 39 34 37 41 41 35 35 35 28 35 33 34 33 28 24 27 26 33 33 38 32 29 25 24 27 20 22 49 49 39 41 46 47 47 48
48 48 48 48 48 48 47 35 44 44 37 34 43 44 45 44 42 36 38 34 34 34 31 33 32 28 30 31 26 35 29 34 30 30 30 43 46 43 47 48 46 46 46 49
47 47 47 48 48 48 47 38 40 40 35 33 36 37 45 49 47 47 33 37 43 37 38 33 33 29 33 27 30 32 35 40 34 36 41 42 46 49 50 49 47 50 52 50
47 47 47 47 47 48 48 40 41 38 37 28 33 48 42 49 48 46 45 43 43 41 37 31 31 29 36 30 34 34 39 38 34 36 41 45 46 48 52 51 52 52 53 48
47 47 47 47 48 48 45 42 41 42 36 29 32 40 46 48 47 46 46 43 40 37 34 32 32 36 36 35 36 33 44 40 35 33 42 41 45 52 52 50 51 52 50 44
47 46 47 47 47 48 42 35 41 43 43 34 26 42 44 47 47 45 44 43 39 38 36 34 36 43 37 29 30 45 48 50 51 45 51 50 52 54 54 51 47 46 43 42
46 46 47 47 47 43 37 35 41 46 43 33 28 30 41 46 46 43 41 43 40 37 36 34 36 37 39 32 29 43 47 49 50 53 52 48 51 48 54 47 44 42 39 38
46 46 47 47 47 46 40 42 47 47 38 36 29 28 34 46 37 35 41 37 39 37 36 36 34 37 35 30 40 45 49 51 51 51 53 50 52 52 52 50 45 39 34 32
47 46 47 44 41 34 38 48 47 44 38 31 31 27 26 43 39 40 39 39 32 37 33 33 34 31 29 38 41 42 45 46 47 50 50 50 49 48 49 49 43 36 32 30
46 43 34 30 35 47 45 40 36 33 34 36 31 34 26 38 34 34 32 34 30 24 31 37 29 30 38 40 39 39 39 42 43 40 40 42 42 43 44 44 44 36 31 28
38 33 34 39 47 40 34 30 30 31 30 33 35 35 30 40 31 30 32 28 29 25 30 29 28 29 33 39 39 40 37 37 39 40 40 40 38 38 39 37 34 31 29 27
40 41 43 42 37 33 30 29 29 29 28 33 31 34 37 35 40 32 31 25 29 23 34 29 25 28 33 34 35 37 33 33 34 35 35 34 34 35 33 31 27 26 25 24
47 40 34 34 32 27 24 22 26 24 31 33 32 32 32 34 35 32 30 26 23 32 20 24 26 29 32 32 33 33 34 31 31 31 31 31 29 30 30 27 27 25 23 22
34 32 28 29 25 26 27 28 30 32 33 32 33 28 29 29 29 31 27 25 32 26 21 21 25 27 28 31 31 30 28 28 26 26 27 26 26 25 24 24 23 22 20 21
31 31 24 25 29 31 32 33 32 32 32 32 31 31 30 27 26 29 26 27 25 24 17 23 25 27 26 28 28 27 26 25 23 22 18 18 21 21 20 22 22 21 20 19
30 27 27 30 29 28 30 30 29 32 32 33 31 32 29 20 25 26 25 23 17 17 23 23 24 26 26 25 25 25 23 18 15 14 16 15 15 18 18 19 19 18 18 17
26 24 27 28 27 25 27 28 29 31 32 30 31 27 24 27 22 22 24 17 18 20 21 22 22 22 22 26 24 23 23 20 17 15 15 18 19 18 18 15 16 16 16 16

GFSNW_sfc_temp_108.txt.gz
Temp
50 51 51 51 50 49 43 34 27 40 47 31 33 28 34 40 39 43 40 40 38 34 38 36 35 37 41 48 47 41 43 37 30 36 47 48 48 42 41 30 29 32 33 35
50 50 51 51 50 49 36 33 34 40 38 15 28 33 35 38 37 38 38 37 41 41 36 31 38 38 46 47 45 41 43 34 27 32 38 44 39 44 43 39 35 30 26 34
50 50 50 50 50 49 37 32 21 28 34 34 28 28 29 31 40 36 39 38 41 37 35 38 34 36 43 46 47 49 46 36 32 26 31 36 34 40 42 37 27 30 31 37
50 50 50 49 50 49 40 32 26 30 18 24 30 32 31 29 30 41 40 36 37 35 31 33 33 37 38 43 44 43 41 31 34 36 38 38 36 37 38 37 38 31 36 40
49 50 50 49 49 48 37 26 26 30 28 31 29 31 30 30 33 34 32 31 34 36 31 34 31 35 34 34 39 37 38 30 33 31 36 37 34 37 38 40 41 41 43 43
49 49 50 49 49 47 36 37 35 32 28 27 25 28 32 32 38 39 39 33 32 32 38 38 39 39 39 37 34 33 34 32 29 27 34 34 27 34 37 40 44 43 37 46
49 49 49 49 48 45 37 38 37 31 24 28 30 33 35 34 37 33 39 40 37 42 46 42 41 39 39 38 37 38 32 31 29 24 29 18 35 45 45 42 45 47 46 46
49 48 49 49 48 48 37 36 35 32 27 31 33 33 34 35 37 36 37 40 43 42 38 26 28 28 31 34 37 36 38 32 21 18 22 31 36 43 41 38 39 44 43 45
48 48 48 48 49 49 39 38 40 36 29 28 33 32 33 28 28 30 35 42 42 39 28 23 21 20 27 23 33 41 38 36 28 22 19 20 35 45 51 47 32 44 45 44
47 48 48 48 49 49 39 37 41 37 31 34 34 27 30 34 30 26 33 33 34 38 23 22 20 23 34 25 25 27 28 29 24 25 18 27 42 48 51 29 33 46 46 46
47 48 48 48 48 48 41 36 39 38 33 33 38 39 32 31 31 27 34 31 33 32 23 26 25 24 30 29 35 30 28 25 23 26 18 20 45 43 37 39 43 44 44 45
47 48 48 48 48 48 46 36 40 41 36 33 39 41 43 41 40 34 34 32 34 33 28 29 28 28 29 29 25 34 28 32 28 27 29 41 43 42 44 44 44 44 44 46
47 47 48 48 48 48 46 38 38 37 35 34 33 35 43 46 44 43 31 32 40 35 38 31 29 26 31 25 29 31 34 36 33 34 37 38 43 47 48 49 46 47 49 47
47 47 47 47 48 48 48 40 38 36 34 29 29 44 39 45 44 42 43 40 41 38 34 30 29 26 36 29 33 33 34 35 33 34 36 39 44 45 47 47 48 47 46 44
47 47 47 47 47 48 45 41 41 39 34 27 29 37 45 47 43 41 41 40 37 33 32 32 29 33 31 33 34 32 41 37 33 31 39 40 43 47 48 47 47 47 43 39
47 47 47 48 47 48 41 34 40 40 40 33 26 36 40 44 43 42 40 40 38 35 33 34 35 39 35 29 29 41 47 48 46 43 49 47 49 51 49 44 43 41 39 38
46 46 46 47 46 43 37 33 38 45 41 32 26 27 39 43 43 40 38 41 38 36 33 33 33 35 37 30 27 41 45 47 48 50 48 45 47 44 45 42 39 37 35 35
46 46 46 46 47 45 39 42 46 46 38 36 27 27 32 43 35 34 40 37 38 36 34 36 34 36 34 29 37 38 40 45 46 47 48 48 48 48 45 44 40 34 31 30
46 46 46 43 41 36 38 47 47 43 38 28 28 25 24 41 38 39 38 38 31 37 32 34 35 32 29 32 33 33 35 36 37 44 43 43 42 43 46 43 38 32 29 28
47 43 33 30 35 46 46 38 35 33 33 35 29 33 26 37 32 34 32 34 29 29 31 36 30 30 34 35 36 33 33 34 35 34 33 34 34 36 39 37 37 33 29 28
38 33 33 38 47 40 35 29 29 28 28 32 33 31 27 36 28 27 33 26 28 23 28 29 28 29 31 35 34 34 32 32 33 33 34 33 33 33 34 31 30 29 27 26
40 41 43 42 37 33 29 27 29 29 26 29 29 30 33 31 35 28 29 24 26 20 33 29 26 27 30 32 32 32 31 30 31 32 30 31 31 32 30 30 28 27 26 24
45 40 34 34 31 26 24 23 22 23 27 28 28 29 31 33 32 31 29 20 20 29 17 23 24 27 29 29 29 30 31 29 28 28 28 27 27 28 28 26 26 25 23 22
34 32 27 27 24 27 25 27 28 30 27 31 30 30 31 28 27 26 17 24 29 24 16 19 23 25 27 27 29 28 26 26 21 21 23 23 23 23 23 23 23 22 21 20
30 29 20 20 29 30 31 33 32 31 28 29 29 29 29 29 25 30 25 26 23 22 14 18 23 24 25 25 26 23 23 18 17 14 11 12 15 17 19 20 21 20 19 18
28 24 24 29 29 27 29 30 29 31 30 33 30 29 24 20 20 26 26 23 17 13 16 19 21 22 21 23 22 21 18 14 10 7 9 10 11 12 16 18 17 17 17 16
24 22 25 27 25 24 26 27 28 31 31 29 32 26 21 25 25 20 22 12 15 19 17 18 18 19 18 19 19 18 18 15 13 11 14 12 14 14 14 12 13 14 14 14

GFSNW_sfc_temp_111.txt.gz
Temp
50 50 50 50 50 49 42 34 17 42 46 27 32 23 32 40 37 41 37 37 34 31 32 31 33 36 39 47 46 40 44 36 29 34 43 44 42 37 36 30 28 30 28 29
50 50 50 50 50 48 35 24 29 38 36 13 15 30 32 35 34 36 36 34 37 37 32 26 34 38 45 46 44 41 42 34 27 30 35 41 37 40 41 37 35 30 27 29
50 50 50 50 50 48 36 28 16 26 33 32 27 23 26 30 39 36 38 36 38 34 32 34 30 34 43 44 44 47 44 35 31 25 29 34 31 35 39 36 25 30 30 33
50 50 50 50 49 48 38 30 22 29 17 24 29 29 30 26 27 37 39 34 34 31 28 30 32 34 36 42 43 42 38 30 32 33 35 35 34 33 34 33 34 27 33 35
50 49 50 50 49 48 35 27 26 30 28 30 27 28 27 29 33 32 31 31 34 33 29 32 30 33 33 33 38 38 38 30 31 30 34 35 31 34 35 35 36 36 37 36
49 49 49 49 49 45 36 37 38 30 27 25 24 25 28 31 33 36 37 34 31 31 34 38 38 38 37 37 34 32 32 30 28 25 32 31 27 33 34 36 39 37 32 41
49 49 49 49 49 45 35 34 35 30 23 27 28 30 33 31 33 32 39 38 34 40 45 41 39 37 37 35 35 37 31 30 27 23 28 16 33 41 41 38 41 43 43 44
48 49 48 48 49 47 35 35 33 30 19 29 31 31 32 35 35 34 35 37 40 38 36 27 28 28 30 33 34 34 35 30 20 16 21 29 34 39 38 35 35 42 43 43
48 48 48 48 48 48 39 36 37 35 28 26 35 30 33 29 29 31 34 39 40 37 27 23 20 19 26 21 28 38 35 34 27 21 17 13 32 43 47 44 29 41 42 41
48 48 48 48 48 49 39 35 39 37 30 33 34 29 29 32 30 26 30 33 33 34 19 20 20 22 31 24 21 17 27 28 24 23 15 26 39 44 48 26 31 43 44 43
47 48 48 48 48 49 42 35 40 36 32 33 36 37 32 31 30 26 30 27 29 27 26 22 24 25 30 28 33 28 27 25 24 25 17 18 43 42 35 40 44 45 45 45
48 48 48 48 48 48 45 37 40 41 35 31 37 39 41 39 38 33 32 30 32 31 27 27 27 25 29 27 24 33 25 30 28 29 27 39 40 41 45 45 43 44 43 45
47 47 47 48 48 48 45 37 41 39 34 30 31 33 41 44 42 43 32 32 36 34 37 31 29 24 29 23 27 29 32 35 32 32 35 37 41 44 45 47 45 46 45 44
47 47 47 48 48 48 47 39 41 39 33 28 29 41 37 43 41 41 42 39 39 37 36 30 27 26 33 29 32 31 32 35 32 34 35 37 42 44 45 47 46 43 41 40
47 47 47 47 48 48 44 42 41 40 34 25 27 35 43 44 42 40 38 37 34 31 32 31 28 32 32 31 33 32 37 37 30 29 38 36 38 44 46 43 40 42 40 36
46 47 47 48 47 47 41 34 41 42 42 33 25 34 35 40 40 38 37 37 35 33 30 29 34 36 33 29 27 39 41 43 44 41 44 45 46 43 43 39 38 37 35 35
46 46 47 47 47 43 35 32 36 44 41 32 27 25 36 41 41 38 36 38 36 35 33 32 30 32 36 30 25 33 36 39 41 44 45 43 43 40 41 39 36 35 34 33
46 46 46 46 46 45 39 39 45 45 38 35 26 25 31 41 34 34 38 35 36 35 35 35 33 35 34 29 33 34 34 37 39 39 42 41 44 44 43 41 38 33 29 28
46 46 45 43 39 34 38 46 46 42 37 28 28 24 23 39 37 38 37 38 31 36 31 32 34 31 29 31 32 31 31 32 32 36 37 37 36 36 39 40 36 31 28 27
46 42 34 30 35 47 45 39 33 33 34 34 28 30 24 35 33 34 32 33 29 28 32 36 31 30 32 33 33 32 31 32 32 30 30 31 30 31 34 33 31 30 28 28
34 32 33 38 47 39 35 29 27 29 27 31 33 32 26 35 29 29 33 28 29 23 28 29 28 27 29 32 32 32 31 31 32 32 32 31 30 30 30 30 30 30 29 27
39 40 42 41 37 32 28 25 27 28 25 28 30 32 31 28 33 28 31 28 24 20 31 29 25 25 28 29 30 30 29 28 28 29 28 28 28 28 30 29 28 27 26 24
44 39 32 33 30 25 20 19 24 25 26 26 29 30 29 33 33 28 30 26 21 28 23 26 23 26 26 27 28 28 28 26 25 24 25 26 26 25 25 25 25 25 23 22
34 31 27 27 23 25 25 26 27 28 28 28 27 31 28 27 26 27 23 24 28 23 19 19 21 24 25 26 26 25 24 23 18 19 21 20 20 19 19 18 20 20 20 20
30 30 23 24 23 26 31 32 33 31 31 28 28 30 29 28 24 30 24 25 22 20 13 13 23 24 24 24 25 22 21 17 15 13 10 10 12 14 13 17 18 18 17 17
28 22 25 28 29 27 28 29 29 31 32 32 32 25 19 24 21 25 24 22 15 10 14 17 19 20 21 20 21 18 14 10 7 6 7 9 9 10 11 13 15 15 15 14
21 18 25 25 25 23 25 26 26 31 32 28 28 26 17 24 23 17 18 7 11 19 16 17 16 18 19 13 15 13 14 11 8 7 9 7 7 10 11 9 10 12 13 12

GFSNW_sfc_temp_114.txt.gz
Temp
50 50 50 50 50 48 41 30 17 38 40 30 29 23 30 38 35 38 35 34 32 29 30 28 28 29 37 45 44 37 40 35 31 35 42 42 40 36 35 28 26 30 28 28
49 50 50 50 50 48 33 25 26 36 39 12 14 26 31 34 32 33 34 32 35 35 30 26 30 32 42 43 42 39 40 34 26 30 36 40 36 38 38 35 31 26 22 28
49 50 50 49 49 47 34 24 16 25 32 30 28 24 25 28 36 34 35 34 35 32 29 32 28 31 39 42 42 46 44 35 31 25 31 36 33 35 36 32 22 26 29 32
49 49 50 49 49 48 35 28 20 29 19 22 28 28 28 25 25 34 35 31 32 31 26 28 28 33 35 40 43 40 38 30 33 33 35 34 33 32 33 31 32 26 32 31
49 49 49 49 49 47 34 27 23 31 27 30 26 27 25 27 29 31 28 29 33 32 28 29 27 34 32 32 36 33 37 29 30 29 34 33 30 32 32 32 34 32 34 33
49 49 49 49 49 44 33 31 33 30 26 25 23 24 27 28 31 34 34 32 30 30 34 34 37 37 36 35 33 31 31 30 28 24 30 30 25 32 32 33 35 34 29 37
49 49 48 48 49 44 34 34 32 28 20 25 27 29 31 29 31 30 36 37 32 38 41 40 38 36 36 34 33 35 30 28 27 23 27 14 30 38 37 35 37 39 40 42
49 49 48 48 48 46 35 34 32 28 19 26 29 30 30 32 34 33 33 36 39 38 33 27 28 27 30 32 32 31 34 30 20 15 20 27 31 37 36 33 32 40 39 41
48 48 48 48 48 48 36 34 37 35 23 23 32 30 32 28 27 29 33 38 38 35 28 23 21 18 25 20 27 35 32 32 27 22 17 12 30 38 42 39 26 39 37 39
48 48 48 48 48 49 38 36 40 35 28 30 32 28 29 33 30 25 30 31 32 33 21 21 21 21 29 23 21 19 27 27 23 24 20 26 35 41 43 25 28 37 41 41
48 48 48 48 48 48 42 39 39 36 28 29 34 35 31 30 30 24 29 26 28 25 23 22 24 24 28 27 32 27 26 24 23 25 20 16 38 38 30 37 42 42 43 44
47 47 48 47 48 48 45 37 40 41 35 30 35 38 39 37 37 31 31 30 30 26 20 22 26 24 27 27 23 32 24 29 27 28 27 35 37 40 42 44 41 42 43 44
47 47 48 48 48 47 45 39 40 39 34 34 30 32 40 41 40 41 28 30 35 32 35 32 29 23 28 23 27 29 32 34 31 31 35 35 37 41 45 42 40 45 42 43
47 47 47 47 47 47 46 39 41 39 34 27 28 39 35 41 39 38 39 37 37 35 37 31 28 25 33 28 32 30 33 35 31 32 35 37 41 42 41 42 44 38 38 37
47 47 47 47 48 48 44 41 41 42 35 25 27 33 41 42 40 36 37 36 33 31 29 28 28 31 30 32 31 31 36 33 30 29 35 35 37 41 42 38 38 40 37 34
47 47 47 47 47 47 40 33 38 41 41 32 24 32 34 37 37 35 34 35 32 33 29 29 31 35 33 28 28 34 35 37 36 34 40 42 39 41 41 36 35 35 34 35
46 46 47 47 47 41 35 33 36 43 41 32 26 25 33 39 37 34 33 37 34 33 32 30 30 31 34 29 25 33 34 36 36 37 38 37 39 38 41 37 34 34 32 32
46 46 46 47 47 44 38 41 45 44 37 34 25 24 27 38 31 32 37 33 34 34 33 34 32 34 33 28 32 33 33 34 35 34 37 35 37 37 39 41 37 32 29 29
46 46 46 42 39 34 37 46 45 43 36 26 27 22 20 36 36 36 36 37 30 36 31 32 33 30 28 30 30 30 29 29 30 32 34 33 32 32 34 34 32 29 28 28
46 42 33 30 35 45 45 39 34 33 33 34 28 29 24 32 32 33 32 33 31 28 32 35 31 28 31 32 31 30 30 30 31 28 27 28 28 29 31 31 30 30 29 28
37 32 32 38 45 37 33 28 28 29 27 29 30 30 28 34 26 29 32 30 30 25 29 29 28 26 28 30 30 30 29 28 29 29 29 29 28 27 28 30 30 29 28 26
37 39 41 41 35 32 26 25 26 26 25 28 30 31 33 31 34 30 31 28 26 23 31 28 25 24 26 28 28 28 28 26 26 26 24 26 27 26 26 27 27 26 25 23
42 38 32 32 30 24 19 18 22 24 27 27 30 29 27 30 34 29 30 26 22 28 24 25 23 25 26 26 26 26 27 25 23 23 23 23 24 24 22 22 23 23 21 21
33 31 27 24 22 25 25 25 25 28 26 27 27 30 27 30 25 28 23 25 28 23 20 18 21 23 24 25 26 25 23 22 17 17 18 17 17 17 16 15 17 17 16 16
31 30 21 24 23 27 27 29 28 31 31 28 28 27 30 26 25 28 23 24 22 19 12 14 23 25 23 23 24 21 20 16 14 11 8 8 10 11 10 13 14 15 13 14
27 23 23 26 28 27 28 30 29 31 32 31 30 23 22 24 23 25 22 20 13 10 15 18 19 19 20 19 21 17 13 9 5 4 5 5 6 6 7 7 9 10 11 12
21 16 23 25 24 23 23 25 25 29 30 25 26 18 20 25 21 15 15 6 11 18 18 17 16 17 19 15 13 11 12 10 7 4 6 3 4 6 9 6 8 10 11 11

GFSNW_sfc_temp_117.txt.gz
Temp
49 50 50 50 50 48 40 32 23 40 41 29 28 27 31 37 35 39 36 35 32 30 32 30 30 31 36 45 44 39 43 37 31 36 44 46 43 38 38 35 31 35 35 37
49 49 49 49 49 46 35 28 29 39 39 21 22 28 31 34 33 34 34 33 36 37 32 27 32 33 41 43 42 40 42 34 27 31 40 43 39 41 40 38 37 32 31 38
49 49 49 49 49 47 35 27 21 30 32 32 29 26 26 28 36 33 35 34 36 33 31 34 29 32 39 42 42 45 44 37 32 25 30 38 34 38 40 37 31 33 36 40
49 49 49 49 49 47 35 29 24 31 21 26 29 29 29 26 26 34 36 32 33 30 27 30 30 34 35 40 43 42 41 32 35 37 38 38 37 37 38 36 38 32 38 38
49 49 49 49 49 46 32 25 26 31 29 31 28 28 27 27 29 30 29 29 34 33 28 29 27 31 34 35 40 37 39 32 34 31 36 37 33 37 37 37 38 37 38 37
49 49 49 49 48 43 33 33 35 30 27 28 27 27 28 29 30 34 35 31 30 30 33 36 38 37 38 38 34 35 35 33 31 26 34 34 27 35 36 38 41 39 34 42
49 49 49 49 48 43 35 34 34 25 23 27 28 30 31 29 31 29 35 38 34 39 42 39 39 36 36 37 36 38 34 32 31 26 29 17 35 43 42 38 41 43 42 45
49 49 49 48 48 46 36 35 33 28 22 28 29 29 30 33 35 33 34 38 41 40 36 31 31 31 32 35 36 35 36 34 27 23 24 31 35 40 39 37 38 45 42 43
49 49 48 48 48 47 37 36 37 33 24 26 33 30 31 29 30 31 34 40 41 37 32 29 23 22 27 25 30 36 34 34 29 25 19 17 34 42 47 44 31 40 38 37
48 48 48 48 47 48 39 37 39 35 28 32 33 29 30 34 31 28 31 34 34 36 28 24 24 24 32 23 24 25 28 27 24 25 22 28 40 42 46 29 31 41 38 37
48 48 48 48 48 48 41 38 40 37 31 33 36 37 33 33 33 27 32 31 32 29 25 25 26 25 28 25 29 26 26 25 26 26 23 21 40 42 34 39 41 39 41 42
48 48 48 48 48 48 44 38 41 41 35 33 37 38 40 40 40 35 35 32 32 33 28 27 27 25 28 27 22 33 25 29 27 29 31 38 41 40 44 44 41 41 43 44
48 47 47 48 48 48 44 40 40 38 34 34 35 35 41 42 42 44 31 34 38 36 38 33 31 25 30 24 27 29 33 35 31 31 36 37 39 43 45 45 42 44 41 41
47 47 47 47 47 47 45 39 41 39 34 27 31 40 37 43 41 40 41 39 39 38 37 32 30 27 35 29 32 30 33 34 32 32 34 35 38 37 40 40 41 39 38 38
47 47 47 47 47 47 43 41 41 41 36 27 30 36 42 43 40 38 38 37 36 34 31 29 28 34 32 34 33 31 35 31 29 28 32 33 33 33 36 36 36 37 37 36
47 47 47 47 47 46 38 33 41 42 42 31 25 36 35 39 39 37 35 36 35 34 32 31 34 38 35 28 28 34 36 35 33 31 34 35 36 38 37 35 33 33 35 34
47 46 47 47 47 40 34 34 39 43 42 32 26 27 36 40 38 35 34 37 36 35 33 32 34 35 35 31 27 34 34 35 35 35 37 35 35 33 37 37 36 35 34 33
46 46 47 47 46 43 38 40 45 44 37 35 25 26 30 39 34 33 37 33 34 34 34 34 32 35 33 28 32 32 32 34 34 33 36 33 34 35 35 37 36 33 32 31
47 46 46 42 39 34 37 46 45 43 37 27 28 24 22 38 36 37 36 36 30 37 31 33 34 32 29 29 30 29 29 28 28 32 33 33 31 31 33 34 33 32 30 30
46 41 33 31 35 44 44 39 34 32 33 34 27 32 25 34 33 33 33 33 32 28 32 35 31 29 30 31 30 30 29 29 29 27 26 27 27 27 29 30 31 31 30 29
37 32 32 36 44 38 35 30 29 29 27 30 31 31 28 35 30 30 33 31 31 27 31 31 30 27 27 30 29 30 29 29 28 27 27 28 28 26 26 28 29 29 28 26
37 38 41 40 35 32 28 24 28 27 26 30 30 32 34 34 35 32 32 30 29 25 33 30 27 25 27 29 28 29 28 27 26 26 25 25 27 25 25 26 26 26 25 23
40 37 32 31 30 24 21 20 22 24 28 29 31 29 32 32 34 31 30 27 26 31 26 26 24 26 27 27 27 27 28 25 24 23 24 23 23 23 21 21 22 23 22 22
31 30 26 26 22 25 25 28 29 30 29 29 31 31 30 32 30 31 26 29 29 25 23 22 23 24 25 26 27 26 24 22 17 18 19 18 17 17 16 15 17 18 18 18
30 31 23 24 26 28 28 29 30 29 30 32 31 31 32 29 27 29 26 25 23 23 20 20 25 25 25 25 25 24 22 18 17 15 12 11 11 12 12 12 14 16 16 16
27 24 24 26 29 28 30 30 29 32 32 31 32 27 26 25 27 26 25 23 20 17 20 23 24 23 21 21 21 20 18 16 14 13 12 12 10 10 11 11 11 12 14 14
22 19 23 25 24 24 24 25 26 29 31 31 27 22 24 27 24 20 18 17 16 20 22 23 22 22 21 20 18 17 17 17 15 13 13 12 11 11 13 11 12 13 14 13

GFSNW_sfc_temp_120.txt.gz
Temp
50 50 50 50 49 48 48 47 36 51 53 41 43 39 37 38 40 43 40 40 38 36 38 36 37 36 42 50 48 42 49 43 36 42 51 49 45 36 36 34 36 44 43 43
50 50 50 49 49 47 48 40 45 53 49 33 35 36 36 38 38 39 38 37 41 42 37 31 38 39 47 49 46 42 45 40 32 38 44 44 37 44 43 38 38 38 36 43
49 49 49 49 49 46 50 40 33 44 45 46 37 29 31 33 41 39 40 39 42 38 36 40 35 38 44 47 46 45 45 41 36 31 31 39 36 36 42 41 34 37 43 47
49 50 49 49 49 46 50 38 35 40 32 36 37 37 35 28 32 39 42 38 38 36 30 35 35 40 40 45 46 47 45 36 40 41 43 43 39 38 41 39 42 37 43 46
49 49 49 49 49 47 46 34 38 41 40 37 36 34 34 32 35 33 33 33 34 36 31 30 29 35 37 38 45 43 46 35 39 36 42 42 38 42 43 44 44 45 46 45
49 49 49 49 48 49 45 45 46 43 34 35 36 35 33 33 35 39 39 33 33 36 38 42 43 44 43 41 39 39 39 37 35 30 39 39 32 40 42 44 48 46 40 49
49 49 49 49 48 48 51 47 47 37 33 38 37 35 36 33 36 33 41 43 39 44 49 47 49 47 44 44 44 45 37 36 35 29 34 21 41 50 47 44 47 50 50 52
49 49 49 48 48 46 50 48 45 41 34 40 36 33 35 39 41 39 40 43 46 47 44 37 37 38 38 41 46 44 44 37 30 26 29 36 40 45 44 42 43 52 50 51
49 48 48 48 48 47 50 49 50 45 35 37 38 37 37 36 38 39 39 46 49 46 40 35 28 27 31 30 34 41 38 39 33 31 23 20 37 46 51 50 36 48 46 43
49 48 48 48 48 47 49 49 49 46 36 44 40 39 38 41 39 37 40 40 41 46 35 30 30 29 36 27 25 26 29 30 27 28 25 33 45 47 51 31 34 46 42 36
49 48 48 48 48 48 49 49 49 45 38 43 42 43 40 41 40 34 41 38 39 38 31 31 32 30 33 28 29 27 27 27 28 30 26 23 46 46 35 42 47 42 39 40
48 48 48 48 48 48 48 46 50 49 38 42 45 46 48 47 47 41 43 38 37 39 33 35 33 31 32 28 25 35 27 29 28 31 33 42 44 41 47 48 43 41 40 43
48 48 48 48 48 48 48 46 45 39 35 38 41 43 49 51 49 51 38 45 43 42 45 34 35 29 37 26 30 30 34 36 31 31 33 34 35 37 39 43 39 40 41 42
48 47 47 48 48 48 47 45 46 40 38 32 41 50 45 52 51 49 48 47 47 45 45 36 34 31 41 33 33 32 33 36 32 32 33 35 37 35 34 36 36 36 42 42
48 47 48 48 48 47 48 47 43 43 40 32 37 47 50 51 50 47 47 45 43 42 35 33 33 39 38 39 38 33 37 31 29 29 31 32 33 33 36 35 35 37 40 40
47 47 48 48 48 47 42 34 43 45 44 36 32 48 45 47 48 46 44 44 43 41 36 36 40 44 37 31 32 37 38 35 33 32 38 36 37 42 39 39 38 39 40 39
47 47 47 47 47 47 41 40 41 45 45 33 31 37 46 45 45 45 44 44 40 40 37 36 38 40 37 34 31 35 37 36 37 39 39 37 37 33 39 39 40 40 39 37
46 47 47 47 46 46 42 48 45 45 38 36 28 32 39 46 42 40 46 39 37 38 39 41 37 38 37 31 35 37 36 37 35 38 38 36 38 38 38 40 41 40 38 35
46 47 46 46 43 36 42 46 46 45 38 32 30 29 31 46 43 42 38 38 31 42 33 36 37 38 31 31 34 33 33 33 33 38 37 38 35 34 35 35 36 35 35 35
46 44 35 32 36 46 46 40 35 33 35 35 31 41 33 43 40 37 34 35 33 30 36 40 32 34 33 34 33 34 35 35 35 32 31 32 32 32 32 32 33 33 32 33
39 33 33 44 45 41 37 30 29 32 29 35 37 40 35 45 34 35 41 33 35 30 34 32 33 30 29 33 33 35 35 35 34 33 33 33 32 30 30 31 32 32 31 29
41 41 42 40 36 34 30 29 32 30 31 38 32 35 38 40 43 37 35 32 32 28 38 31 31 27 31 32 32 32 33 32 32 31 30 31 30 29 29 30 29 28 28 26
42 36 33 32 33 27 26 22 26 29 35 38 35 32 37 39 38 34 32 29 29 40 30 31 28 29 31 33 33 33 33 29 30 30 30 29 28 27 24 23 24 24 25 24
33 31 27 28 26 31 32 33 34 38 38 38 38 35 35 36 31 34 28 33 34 28 26 26 29 29 31 32 32 32 30 26 21 24 25 23 21 21 20 18 19 21 21 21
30 32 28 28 36 34 35 36 37 37 41 39 35 35 36 33 31 32 31 27 26 30 28 28 29 30 30 30 29 28 26 23 22 21 19 17 17 17 18 17 19 20 19 20
31 29 29 32 32 31 32 33 31 37 39 40 40 32 30 30 32 28 28 27 27 26 28 30 32 28 27 26 26 25 24 23 22 21 20 20 16 16 18 17 17 17 18 18
27 28 29 28 31 31 29 32 31 35 35 32 35 28 30 33 30 28 30 28 26 28 28 31 28 27 26 25 25 23 23 24 22 21 20 20 19 18 19 18 19 19 19 18

GFSNW_sfc_temp_123.txt.gz
Temp
51 50 50 50 50 49 47 53 41 56 58 49 53 46 44 39 45 48 44 44 43 41 42 40 40 40 46 53 51 44 49 41 36 42 53 53 47 42 34 33 36 42 42 42
50 50 50 50 49 48 56 48 51 59 55 39 42 43 42 44 43 44 43 42 45 46 41 36 42 43 51 52 49 45 45 40 31 37 48 49 40 41 41 38 35 31 34 38
50 50 50 49 49 48 52 47 37 51 54 53 44 37 38 38 45 43 45 44 46 42 39 44 38 41 47 49 49 48 47 40 36 31 37 35 37 36 42 40 33 36 35 38
50 50 50 49 49 48 53 42 43 47 37 43 44 43 40 36 36 44 46 42 41 38 33 37 37 39 42 48 49 49 46 35 39 42 46 46 45 43 42 38 39 35 44 44
50 50 50 49 49 48 52 37 45 49 46 44 42 36 39 38 40 36 37 37 40 41 36 34 31 39 40 38 44 44 47 32 39 36 43 45 42 45 45 45 43 44 46 47
49 49 49 49 49 48 52 54 53 52 40 42 41 41 39 38 38 43 44 40 38 39 43 46 47 48 47 46 42 40 40 38 35 30 41 40 34 43 46 47 49 46 40 50
49 49 49 49 48 48 58 55 56 44 39 44 43 41 41 38 41 38 45 47 43 48 53 52 53 52 51 50 49 49 39 38 36 30 35 22 42 52 51 47 49 52 53 55
49 49 49 49 48 48 56 57 54 48 39 47 41 40 40 44 46 44 44 47 50 53 48 40 39 41 42 44 47 47 48 40 31 26 27 35 41 44 46 44 44 54 53 55
49 49 49 48 48 48 54 56 57 54 41 43 45 42 43 41 44 44 45 51 53 50 44 38 30 28 34 32 34 41 39 38 32 32 23 22 35 47 53 52 37 50 49 47
49 49 49 48 49 48 52 54 54 53 40 49 46 43 44 47 44 42 46 45 45 50 38 32 31 32 40 29 26 28 32 32 28 31 27 35 41 49 52 32 33 46 44 39
49 48 49 48 49 48 48 51 55 49 42 47 48 48 45 46 46 40 45 44 42 42 34 33 35 33 35 31 33 28 27 27 29 30 27 24 39 46 33 38 47 42 41 37
47 48 48 48 49 48 48 45 55 54 44 45 51 51 53 52 51 46 47 43 41 42 35 37 36 32 36 31 26 36 27 30 28 30 30 36 37 35 37 38 40 38 37 37
46 48 48 48 48 48 48 47 50 48 40 42 47 47 54 56 54 55 43 50 48 47 47 39 37 32 40 29 33 33 33 37 31 31 34 33 35 36 36 35 35 37 39 44
47 48 48 48 48 49 48 46 51 50 44 35 45 57 50 57 56 54 53 50 52 49 46 39 37 34 44 36 38 35 36 37 33 33 35 38 39 36 35 36 37 38 40 44
48 48 48 48 48 48 49 48 52 54 42 34 40 51 55 56 55 52 52 49 47 44 38 36 35 43 41 42 42 35 40 32 30 30 34 32 34 35 40 37 38 40 40 41
48 48 48 48 48 47 44 37 48 52 48 38 32 52 49 52 53 51 49 50 47 44 38 38 42 47 40 33 34 38 41 36 36 34 40 40 39 41 41 40 40 41 41 40
47 47 48 48 47 50 42 41 44 49 48 37 33 40 50 51 50 50 49 49 46 43 37 35 40 42 40 36 33 38 41 42 40 42 41 38 40 36 41 41 43 44 43 41
47 47 47 47 47 47 45 49 47 48 43 43 29 35 42 51 44 39 48 39 38 37 40 43 39 42 40 33 38 40 42 43 41 42 42 41 43 44 43 43 42 41 38 38
47 47 47 46 43 39 46 46 47 50 39 33 31 32 33 50 47 45 42 39 32 44 34 38 42 38 33 35 37 37 39 38 38 43 44 43 41 40 40 41 39 35 35 35
46 43 37 32 39 46 47 41 36 35 35 35 33 44 36 47 42 39 36 36 35 31 39 45 37 40 37 38 38 39 39 40 40 37 35 36 36 36 37 37 38 35 33 32
38 34 37 45 47 43 38 31 31 34 30 38 41 43 40 50 37 37 44 36 36 31 37 35 35 32 32 36 36 39 40 39 38 38 38 38 35 34 34 34 34 32 30 28
44 45 45 44 39 34 31 30 34 34 34 43 38 41 45 45 47 39 39 34 35 29 41 33 34 30 35 38 37 37 37 37 36 36 35 35 34 33 31 31 30 28 28 26
46 41 34 33 33 27 26 25 29 32 40 43 40 34 39 41 42 37 34 29 31 44 33 35 31 33 36 38 38 37 36 33 34 33 33 31 30 30 27 25 25 25 25 25
36 31 27 28 27 33 37 38 38 42 43 42 42 35 36 38 33 35 29 36 37 29 28 30 33 34 35 36 36 37 33 29 25 27 29 26 23 23 23 21 22 22 22 23
31 32 28 30 38 41 40 41 42 43 46 44 39 38 39 35 32 35 34 29 28 33 30 30 32 34 34 34 33 32 30 27 26 26 23 22 20 20 21 22 22 22 21 22
32 32 30 35 34 32 33 35 35 42 44 44 42 34 31 31 34 29 30 30 30 29 31 32 33 31 30 30 29 28 27 26 26 26 24 24 21 20 22 24 22 21 21 20
31 31 34 32 32 32 32 35 34 39 37 33 36 29 30 38 32 31 37 30 30 31 31 31 30 29 28 28 28 26 27 27 27 26 25 24 24 23 24 22 23 23 23 22

GFSNW_sfc_temp_126.txt.gz
Temp
51 51 50 50 50 50 48 52 41 57 59 47 51 46 47 41 48 50 47 46 44 42 42 40 40 40 45 52 50 42 48 40 32 39 51 53 49 35 35 28 28 34 37 39
51 50 50 50 50 49 50 48 50 58 54 39 42 45 45 47 46 47 45 43 46 46 41 35 41 42 48 50 44 44 45 33 24 32 43 48 38 41 42 36 34 29 27 37
50 51 50 50 49 49 48 49 38 50 53 54 46 41 41 41 47 45 46 45 47 43 39 44 38 39 45 47 41 44 45 39 34 27 34 35 35 40 44 37 29 32 34 36
50 50 50 50 49 49 49 43 44 50 38 43 45 45 43 38 38 46 48 44 43 40 33 37 37 41 43 47 48 42 41 33 38 40 42 44 43 42 43 40 38 32 37 37
50 50 50 50 49 49 49 37 45 50 47 47 44 38 41 40 43 41 39 39 41 42 36 36 34 39 39 39 45 39 41 28 30 30 41 43 39 43 45 45 45 43 42 40
50 50 50 49 49 48 52 54 55 51 43 44 42 42 42 41 41 44 46 42 40 41 43 46 47 47 46 45 42 41 40 37 33 28 39 38 32 41 44 46 48 46 38 45
50 49 49 49 49 48 49 55 55 44 38 44 44 43 43 41 42 39 46 48 44 48 53 52 52 52 50 46 39 44 39 35 35 29 33 21 39 46 48 47 48 50 50 52
49 49 49 49 49 49 49 56 53 47 40 47 44 43 42 45 47 43 46 49 51 53 48 40 37 37 39 39 41 43 44 37 30 26 28 35 40 40 43 42 43 47 45 44
49 49 49 48 48 48 49 54 55 52 41 43 49 44 45 42 43 45 47 53 54 51 43 37 30 25 33 31 35 45 42 40 30 31 23 22 29 36 46 50 34 40 43 38
49 49 49 48 48 49 50 52 54 51 41 49 48 43 43 48 45 42 46 46 46 51 37 32 31 31 39 28 27 27 31 31 27 28 26 30 32 40 46 30 27 39 41 38
48 49 48 48 48 49 50 50 55 49 43 47 49 50 46 47 46 40 44 43 42 40 34 33 34 32 34 32 34 29 27 26 28 29 24 20 34 39 28 31 36 36 36 37
48 48 48 48 48 48 48 46 54 53 45 46 52 53 54 53 51 46 47 44 43 42 36 35 35 32 36 33 26 36 27 30 28 29 28 34 35 33 35 35 34 35 36 38
48 48 48 48 49 49 48 48 50 50 41 42 46 46 55 57 55 55 42 47 49 45 48 39 37 32 39 29 32 33 36 37 31 30 35 35 34 36 36 36 35 37 39 39
47 48 48 48 48 49 48 46 51 47 44 35 44 58 52 58 57 54 53 50 50 50 48 39 36 34 44 36 38 36 35 36 33 32 35 37 39 36 35 37 38 39 42 41
47 47 48 48 48 49 50 48 50 52 41 33 39 51 56 57 55 52 53 50 46 44 39 36 34 42 41 42 41 34 41 33 30 29 33 32 34 36 40 38 39 40 40 39
47 48 48 48 48 48 43 37 52 54 52 37 32 50 50 54 54 52 50 50 47 45 40 38 43 47 40 32 33 38 41 39 38 33 40 37 40 42 43 40 40 41 41 40
47 47 47 48 48 47 39 40 45 50 49 36 33 38 50 53 52 50 49 50 47 45 39 38 40 41 41 35 32 36 43 44 42 44 43 38 42 39 43 43 42 43 41 40
47 47 47 47 47 46 43 48 48 50 43 43 31 34 42 52 44 39 47 41 42 39 39 41 39 43 39 32 38 43 43 44 44 43 45 43 44 44 43 44 41 38 36 35
47 47 47 46 45 40 44 47 47 50 41 32 32 30 32 50 45 41 39 42 32 42 33 37 41 37 32 35 38 39 40 39 39 43 44 42 40 39 39 40 38 34 32 32
47 44 37 32 41 46 47 44 38 36 37 38 32 42 35 47 42 37 37 36 33 31 37 44 36 37 39 39 40 41 40 41 40 36 34 36 34 34 35 35 35 32 30 29
39 34 36 46 47 46 40 31 31 34 30 37 39 41 38 49 37 36 42 34 36 29 36 34 34 31 32 39 39 41 40 40 39 39 37 37 35 32 31 31 31 29 27 26
43 45 46 45 41 34 29 30 34 34 33 43 38 41 44 45 48 39 39 34 35 28 39 33 31 31 37 39 39 39 37 38 37 37 34 33 32 30 28 28 26 25 26 25
47 43 34 33 33 26 26 25 30 32 40 43 41 36 41 42 44 36 34 29 30 42 33 32 32 35 38 39 39 37 36 32 33 33 32 30 28 28 25 23 23 23 23 23
33 30 25 27 27 32 35 37 38 43 43 43 41 36 36 38 35 35 29 35 37 30 28 29 33 35 36 37 37 37 32 28 25 27 27 25 23 22 23 20 21 21 20 21
32 32 27 30 37 40 39 42 43 45 46 44 39 38 37 34 32 34 34 29 28 32 29 30 33 35 35 34 33 32 29 26 26 27 23 22 19 20 20 22 22 21 21 19
34 33 29 35 34 31 32 33 35 42 43 44 41 34 31 31 33 30 30 30 29 28 30 32 34 32 31 30 30 28 27 27 27 26 25 24 21 20 21 23 22 19 22 18
31 32 33 32 33 31 32 36 36 41 38 32 36 29 30 38 32 31 36 29 29 31 30 31 30 29 28 28 28 27 27 27 26 25 25 24 25 24 24 22 24 23 24 20

GFSNW_sfc_temp_129.txt.gz
Temp
50 51 50 50 50 50 46 42 33 47 50 35 38 33 44 44 48 49 46 45 42 38 38 35 36 36 39 46 44 36 41 34 26 31 42 46 44 35 33 26 25 27 27 28
50 50 50 49 50 49 42 39 39 49 46 29 29 41 43 47 45 45 44 41 44 43 37 30 37 38 45 46 41 37 40 30 21 27 35 41 35 39 40 34 31 24 22 29
50 50 50 50 49 49 42 39 30 39 42 43 38 37 39 39 46 44 46 43 44 39 34 39 34 37 43 45 44 45 40 33 27 21 28 36 29 34 41 37 27 27 30 34
50 50 50 50 49 49 41 38 35 41 30 32 39 41 40 37 37 45 46 42 39 35 28 32 32 36 38 42 45 41 37 26 30 33 35 37 36 37 40 37 36 28 35 36
50 50 50 49 49 49 39 33 36 41 38 42 38 36 37 40 40 39 37 35 38 37 30 29 27 33 33 33 39 37 37 25 30 28 35 36 35 37 39 39 40 39 40 40
50 49 49 49 49 48 40 44 45 40 38 36 33 32 39 37 38 42 44 37 33 34 37 39 40 41 41 39 37 33 31 30 28 24 34 33 27 33 37 39 42 40 33 36
50 49 49 49 49 47 41 42 42 34 28 34 37 42 42 38 39 35 44 44 38 42 47 45 44 41 42 42 37 35 33 30 28 24 28 18 34 38 37 35 34 36 38 38
49 49 49 49 48 49 41 44 41 36 28 40 42 40 40 42 42 39 41 45 45 46 41 30 30 32 33 37 39 40 38 30 25 18 22 30 29 33 31 31 31 35 37 38
49 48 48 48 48 49 42 43 43 39 31 33 47 39 41 33 34 37 43 46 47 42 30 27 25 23 28 26 31 41 38 35 28 26 21 18 26 34 42 36 26 33 36 36
48 48 48 48 49 49 43 42 45 40 32 40 43 35 35 41 36 31 38 39 38 40 24 20 22 24 35 23 19 21 24 23 24 25 22 25 31 37 41 25 22 34 35 35
48 48 48 48 49 49 44 40 45 39 34 39 45 47 38 38 35 29 35 32 33 29 24 22 24 23 25 24 29 24 22 17 19 21 12 13 34 35 25 30 34 35 35 34
48 48 48 48 48 48 47 38 46 47 37 37 45 45 45 44 42 36 37 34 36 29 24 24 23 23 24 25 19 33 19 28 25 27 26 33 35 33 35 35 33 34 35 35
48 48 48 48 48 48 47 40 42 41 33 34 37 39 46 51 47 47 32 36 41 38 38 26 26 23 28 18 23 27 32 35 26 29 31 33 33 35 35 36 35 36 39 39
48 48 48 48 48 48 48 42 42 40 37 26 37 52 45 51 49 46 44 42 43 40 37 28 25 24 34 28 31 29 32 35 31 29 32 35 34 35 35 36 40 39 40 39
47 48 48 48 48 48 45 42 43 44 37 30 30 42 48 50 48 46 45 42 38 33 28 24 24 32 31 31 33 31 35 31 24 26 32 32 33 35 39 38 37 38 38 36
47 48 48 48 48 47 39 32 42 48 42 29 24 41 44 46 46 44 43 41 37 34 30 28 32 39 33 26 25 37 37 37 36 32 39 35 37 41 42 39 38 38 36 36
47 47 48 47 47 42 35 35 41 47 43 30 26 28 42 48 46 41 39 41 37 35 31 27 31 32 34 26 26 35 40 40 39 41 41 37 40 36 40 40 38 38 36 36
47 47 47 47 46 45 39 41 46 45 39 35 23 24 32 44 34 32 38 33 34 32 31 31 30 35 33 28 36 39 40 42 39 39 41 38 39 39 37 38 35 32 31 31
47 47 47 42 39 33 37 48 47 42 38 26 22 20 26 42 36 36 35 35 26 33 23 28 33 29 26 33 35 35 37 36 36 39 38 36 34 33 34 33 31 27 26 28
47 41 34 29 35 47 45 39 34 33 34 35 28 31 25 37 31 34 26 33 30 24 30 35 29 26 34 36 37 36 36 37 36 31 29 30 28 28 29 29 27 26 25 26
37 32 31 39 47 39 32 26 28 27 27 29 30 31 26 38 26 26 32 26 25 23 28 28 27 28 31 38 37 36 36 35 34 33 31 30 28 26 25 25 25 24 24 23
39 40 42 39 35 30 27 26 25 27 27 31 27 31 33 33 37 28 28 26 26 23 32 28 25 28 35 38 35 32 30 32 32 31 28 27 27 25 24 23 22 22 23 19
41 38 31 29 29 23 18 15 22 22 31 33 31 26 31 31 35 28 24 27 24 33 23 26 26 30 37 36 33 29 28 27 28 27 27 25 24 24 23 21 21 19 19 17
30 28 23 24 19 23 26 26 28 31 30 31 31 27 27 27 25 24 26 28 27 19 18 24 27 32 32 30 31 28 25 25 23 24 25 22 21 20 17 12 12 10 13 12
27 28 17 21 27 28 28 29 30 33 35 33 30 28 28 24 23 26 29 22 23 23 22 25 29 30 29 27 27 25 25 20 21 22 15 15 12 12 12 12 14 13 9 7
31 28 24 28 24 27 30 32 32 34 30 33 34 26 24 20 29 26 22 21 19 24 27 28 29 26 26 26 26 23 21 21 19 15 14 13 11 10 16 16 17 10 10 6
26 22 26 24 29 30 31 33 32 32 29 29 31 27 24 27 22 23 25 21 26 26 26 26 28 26 24 26 26 20 22 23 19 14 13 15 18 12 13 12 12 13 17 9